[[{"header":{"parameterUnit":"m.s-1","parameterCategory":1,"la1":31.0,"la2":29.5877,"lo1":-88.7671,"lo2":-86.6584,"dy":0.0162,"dx":0.0185,"nx":115,"ny":88,"refTime":"2026-04-25T00:00:00:Z","depth":0,"parameterNumber":2,"parameterNumberName":"U-component_of_WINDS"},"data":[0.0,0.0,0.0,0.0,0.0,0.0,0.0,0.0,0.0,0.0,0.0,0.0,0.0,0.0,0.0,0.0,0.0,0.0,0.0,0.0,0.0,0.0,0.0,0.0,0.0,0.0,0.0,0.0,0.0,0.0,0.0,0.0,0.0,0.0,0.0,0.0,0.0,0.0,0.0,0.0,0.0,0.0,0.0,0.0,0.0,0.0,0.0,0.0,0.0,0.0,0.0,0.0,0.0,0.0,0.0,0.0,0.0,0.0,0.0,0.0,0.0,0.0,0.0,0.0,0.0,0.0,0.0,0.0,0.0,0.0,0.0,0.0,0.0,0.0,0.0,0.0,0.0,0.0,0.0,0.0,0.0,0.0,0.0,0.0,0.0,0.0,0.0,0.0,0.0,0.0,0.0,0.0,0.0,0.0,0.0,0.0,0.0,0.0,0.0,0.0,0.0,0.0,0.0,0.0,0.0,0.0,0.0,0.0,0.0,0.0,0.0,0.0,0.0,0.0,0.0,0.0,0.0,0.0,0.0,0.0,0.0,0.0,0.0,0.0,0.0,0.0,0.0,0.0,0.0,0.0,0.0,0.0,0.0,0.0,0.0,0.0,0.0,0.0,0.0,0.0,0.0,0.0,0.0,0.0,0.0,0.0,0.0,0.0,0.0,0.0,0.0,0.0,0.0,0.0,0.0,0.0,0.0,0.0,0.0,0.0,0.0,0.0,0.0,0.0,0.0,0.0,0.0,0.0,0.0,0.0,0.0,0.0,0.0,0.0,0.0,0.0,0.0,0.0,0.0,0.0,0.0,0.0,0.0,0.0,0.0,0.0,0.0,0.0,0.0,0.0,0.0,0.0,0.0,0.0,0.0,0.0,0.0,0.0,0.0,0.0,0.0,0.0,0.0,0.0,0.0,0.0,0.0,0.0,0.0,0.0,0.0,0.0,0.0,0.0,0.0,0.0,0.0,0.0,0.0,0.0,0.0,0.0,0.0,0.0,0.0,0.0,0.0,0.0,0.0,0.0,0.0,0.0,0.0,0.0,0.0,0.0,0.0,0.0,0.0,0.0,0.0,0.0,0.0,0.0,0.0,0.0,0.0,0.0,0.0,0.0,0.0,0.0,0.0,0.0,0.0,0.0,0.0,0.0,0.0,0.0,0.0,0.0,0.0,0.0,0.0,0.0,0.0,0.0,0.0,0.0,0.0,0.0,0.0,0.0,0.0,0.0,0.0,0.0,0.0,0.0,0.0,0.0,0.0,0.0,0.0,0.0,0.0,0.0,0.0,0.0,0.0,0.0,0.0,0.0,0.0,0.0,0.0,0.0,0.0,0.0,0.0,0.0,0.0,0.0,0.0,0.0,0.0,0.0,0.0,0.0,0.0,0.0,0.0,0.0,0.0,0.0,0.0,0.0,0.0,0.0,0.0,0.0,0.0,0.0,0.0,0.0,0.0,0.0,0.0,0.0,0.0,0.0,0.0,0.0,0.0,0.0,0.0,0.0,0.0,0.0,0.0,0.0,0.0,0.0,0.0,0.0,0.0,0.0,0.0,0.0,0.0,0.0,0.0,0.0,0.0,0.0,0.0,0.0,0.0,0.0,0.0,0.0,0.0,0.0,0.0,0.0,0.0,0.0,0.0,0.0,0.0,0.0,0.0,0.0,0.0,0.0,0.0,0.0,0.0,0.0,0.0,0.0,0.0,0.0,0.0,0.0,0.0,0.0,0.0,0.0,0.0,0.0,0.0,0.0,0.0,0.0,0.0,0.0,0.0,0.0,0.0,0.0,0.0,0.0,0.0,0.0,0.0,0.0,0.0,0.0,0.0,0.0,0.0,0.0,0.0,0.0,0.0,0.0,0.0,0.0,0.0,0.0,0.0,0.0,0.0,0.0,0.0,0.0,0.0,0.0,0.0,0.0,0.0,0.0,0.0,0.0,0.0,0.0,0.0,0.0,0.0,0.0,0.0,0.0,0.0,0.0,0.0,0.0,0.0,0.0,0.0,0.0,0.0,0.0,0.0,0.0,0.0,0.0,0.0,0.0,0.0,0.0,0.0,0.0,0.0,0.0,0.0,0.0,0.0,0.0,0.0,0.0,0.0,0.0,0.0,0.0,0.0,0.0,0.0,0.0,0.0,0.0,0.0,0.0,0.0,0.0,0.0,0.0,0.0,0.0,0.0,0.0,0.0,0.0,0.0,0.0,0.0,0.0,0.0,0.0,0.0,0.0,0.0,0.0,0.0,0.0,0.0,0.0,0.0,0.0,0.0,0.0,0.0,0.0,0.0,0.0,0.0,0.0,0.0,0.0,0.0,0.0,0.0,0.0,0.0,0.0,0.0,0.0,0.0,0.0,0.0,0.0,0.0,0.0,0.0,0.0,0.0,0.0,0.0,0.0,0.0,0.0,0.0,0.0,0.0,0.0,0.0,0.0,0.0,0.0,0.0,0.0,0.0,0.0,0.0,0.0,0.0,0.0,0.0,0.0,0.0,0.0,0.0,0.0,0.0,0.0,0.0,0.0,0.0,0.0,0.0,0.0,0.0,0.0,0.0,0.0,0.0,0.0,0.0,0.0,0.0,0.0,0.0,0.0,0.0,0.0,0.0,0.0,0.0,0.0,0.0,0.0,0.0,0.0,0.0,0.0,0.0,0.0,0.0,0.0,0.0,0.0,0.0,0.0,0.0,0.0,0.0,0.0,0.0,0.0,0.0,0.0,0.0,0.0,0.0,0.0,0.0,0.0,0.0,0.0,0.0,0.0,0.0,0.0,0.0,0.0,0.0,0.0,0.0,0.0,0.0,0.0,0.0,0.0,0.0,0.0,0.0,0.0,0.0,0.0,0.0,0.0,0.0,0.0,0.0,0.0,0.0,0.0,0.0,0.0,0.0,0.0,0.0,0.0,0.0,0.0,0.0,0.0,0.0,0.0,0.0,0.0,0.0,0.0,0.0,0.0,0.0,0.0,0.0,0.0,0.0,0.0,0.0,0.0,0.0,0.0,0.0,0.0,0.0,0.0,0.0,0.0,0.0,0.0,0.0,0.0,0.0,0.0,0.0,0.0,0.0,0.0,0.0,0.0,0.0,0.0,0.0,0.0,0.0,0.0,0.0,0.0,0.0,0.0,0.0,0.0,0.0,0.0,0.0,0.0,0.0,0.0,0.0,0.0,0.0,0.0,0.0,0.0,0.0,0.0,0.0,0.0,0.0,0.0,0.0,0.0,0.0,0.0,0.0,0.0,0.0,0.0,0.0,0.0,0.0,0.0,0.0,0.0,0.0,0.0,0.0,0.0,0.0,0.0,0.0,0.0,0.0,0.0,0.0,0.0,0.0,0.0,0.0,0.0,0.0,0.0,0.0,0.0,0.0,0.0,0.0,0.0,0.0,0.0,0.0,0.0,0.0,0.0,0.0,0.0,0.0,0.0,0.0,0.0,0.0,0.0,0.0,0.0,0.0,0.0,0.0,0.0,0.0,0.0,0.0,0.0,0.0,0.0,0.0,0.0,0.0,0.0,0.0,0.0,0.0,0.0,0.0,0.0,0.0,0.0,0.0,0.0,0.0,0.0,0.0,0.0,0.0,0.0,0.0,0.0,0.0,0.0,0.0,0.0,0.0,0.0,0.0,0.0,0.0,0.0,0.0,0.0,0.0,0.0,0.0,0.0,0.0,0.0,0.0,0.0,0.0,0.0,0.0,0.0,0.0,0.0,0.0,0.0,0.0,0.0,0.0,0.0,0.0,0.0,0.0,0.0,0.0,0.0,0.0,0.0,0.0,0.0,0.0,0.0,0.0,0.0,0.0,0.0,0.0,0.0,0.0,0.0,0.0,0.0,0.0,0.0,0.0,0.0,0.0,0.0,0.0,0.0,0.0,0.0,0.0,0.0,0.0,0.0,0.0,0.0,0.0,0.0,0.0,0.0,0.0,0.0,0.0,0.0,0.0,0.0,0.0,0.0,0.0,0.0,0.0,0.0,0.0,0.0,0.0,0.0,0.0,0.0,0.0,0.0,0.0,0.0,0.0,0.0,0.0,0.0,0.0,0.0,0.0,0.0,0.0,0.0,0.0,0.0,0.0,0.0,0.0,0.0,0.0,0.0,0.0,0.0,0.0,0.0,0.0,0.0,0.0,0.0,0.0,0.0,0.0,0.0,0.0,0.0,0.0,0.0,0.0,0.0,0.0,0.0,0.0,0.0,0.0,0.0,0.0,0.0,0.0,0.0,0.0,0.0,0.0,0.0,0.0,0.0,0.0,0.0,0.0,0.0,0.0,0.0,0.0,0.0,-3.3476,0.0,0.0,0.0,0.0,0.0,0.0,0.0,0.0,0.0,0.0,0.0,0.0,0.0,0.0,0.0,0.0,0.0,0.0,0.0,0.0,0.0,0.0,0.0,0.0,0.0,0.0,0.0,0.0,0.0,0.0,0.0,0.0,0.0,0.0,0.0,0.0,0.0,0.0,0.0,0.0,0.0,0.0,0.0,0.0,0.0,0.0,0.0,0.0,0.0,0.0,0.0,0.0,0.0,0.0,0.0,0.0,0.0,0.0,0.0,0.0,0.0,0.0,0.0,0.0,0.0,0.0,0.0,0.0,0.0,0.0,0.0,0.0,0.0,0.0,0.0,0.0,0.0,0.0,0.0,0.0,0.0,0.0,0.0,0.0,0.0,0.0,0.0,0.0,0.0,0.0,0.0,0.0,0.0,0.0,0.0,0.0,0.0,0.0,0.0,0.0,0.0,0.0,0.0,0.0,0.0,0.0,0.0,0.0,0.0,0.0,-3.6016,-3.6016,-3.6016,-3.5176,-3.3476,0.0,0.0,0.0,0.0,0.0,0.0,0.0,0.0,0.0,0.0,0.0,0.0,0.0,0.0,0.0,0.0,0.0,0.0,0.0,0.0,0.0,0.0,0.0,0.0,0.0,0.0,0.0,0.0,0.0,0.0,0.0,0.0,0.0,0.0,0.0,0.0,0.0,0.0,0.0,0.0,0.0,0.0,0.0,0.0,0.0,0.0,0.0,0.0,0.0,0.0,0.0,0.0,0.0,0.0,0.0,0.0,0.0,0.0,0.0,0.0,0.0,0.0,0.0,0.0,0.0,0.0,0.0,0.0,0.0,0.0,0.0,0.0,0.0,0.0,0.0,0.0,0.0,0.0,0.0,0.0,0.0,0.0,0.0,0.0,0.0,0.0,0.0,0.0,0.0,0.0,0.0,0.0,0.0,0.0,0.0,0.0,0.0,0.0,0.0,0.0,0.0,0.0,0.0,0.0,0.0,0.0,0.0,0.0,0.0,0.0,0.0,0.0,-3.6582,-3.5762,-3.4062,0.0,0.0,0.0,0.0,0.0,0.0,0.0,0.0,0.0,0.0,0.0,0.0,0.0,0.0,0.0,0.0,0.0,0.0,0.0,0.0,0.0,0.0,0.0,0.0,0.0,0.0,0.0,0.0,0.0,0.0,0.0,0.0,0.0,0.0,0.0,0.0,0.0,0.0,0.0,0.0,0.0,0.0,0.0,0.0,0.0,0.0,0.0,0.0,0.0,0.0,0.0,0.0,0.0,0.0,0.0,0.0,0.0,0.0,0.0,0.0,0.0,0.0,0.0,0.0,0.0,0.0,0.0,0.0,0.0,0.0,0.0,0.0,0.0,0.0,0.0,0.0,0.0,0.0,0.0,0.0,0.0,0.0,0.0,0.0,0.0,0.0,0.0,0.0,0.0,0.0,0.0,0.0,0.0,0.0,0.0,0.0,0.0,0.0,0.0,0.0,0.0,0.0,0.0,0.0,0.0,0.0,0.0,0.0,0.0,0.0,-3.6758,-3.8301,-3.834,0.0,-3.5859,0.0,0.0,0.0,0.0,0.0,0.0,0.0,0.0,0.0,0.0,0.0,0.0,0.0,0.0,0.0,0.0,0.0,0.0,0.0,0.0,0.0,0.0,0.0,0.0,0.0,0.0,0.0,0.0,0.0,0.0,0.0,0.0,0.0,0.0,0.0,0.0,0.0,0.0,0.0,0.0,0.0,0.0,0.0,0.0,0.0,0.0,0.0,0.0,0.0,0.0,0.0,0.0,0.0,0.0,0.0,0.0,0.0,0.0,0.0,0.0,0.0,0.0,0.0,0.0,0.0,0.0,0.0,0.0,0.0,0.0,0.0,0.0,0.0,0.0,0.0,0.0,0.0,0.0,0.0,0.0,0.0,0.0,0.0,0.0,0.0,0.0,0.0,0.0,0.0,0.0,0.0,0.0,0.0,0.0,0.0,0.0,0.0,0.0,0.0,0.0,0.0,0.0,0.0,0.0,0.0,0.0,0.0,0.0,0.0,0.0,-3.7871,-3.8594,-3.7617,-3.6719,0.0,0.0,0.0,0.0,0.0,0.0,0.0,0.0,0.0,0.0,0.0,0.0,0.0,0.0,0.0,0.0,0.0,0.0,0.0,0.0,0.0,0.0,0.0,0.0,0.0,0.0,0.0,0.0,0.0,0.0,0.0,0.0,0.0,0.0,0.0,0.0,0.0,0.0,0.0,0.0,0.0,0.0,0.0,0.0,0.0,0.0,0.0,0.0,0.0,0.0,0.0,0.0,0.0,0.0,0.0,0.0,0.0,0.0,0.0,0.0,0.0,0.0,0.0,0.0,0.0,0.0,0.0,0.0,0.0,0.0,0.0,0.0,0.0,0.0,0.0,0.0,0.0,0.0,0.0,0.0,0.0,0.0,0.0,0.0,0.0,0.0,0.0,0.0,0.0,0.0,0.0,0.0,0.0,0.0,0.0,0.0,0.0,0.0,0.0,0.0,0.0,0.0,0.0,0.0,0.0,0.0,0.0,0.0,0.0,0.0,-3.7851,-3.8457,-3.8867,-3.7734,-3.6504,-3.5332,0.0,0.0,0.0,0.0,0.0,0.0,0.0,0.0,0.0,0.0,0.0,0.0,0.0,0.0,0.0,0.0,0.0,0.0,0.0,0.0,0.0,0.0,0.0,0.0,0.0,0.0,0.0,0.0,0.0,0.0,0.0,0.0,0.0,0.0,0.0,0.0,0.0,0.0,0.0,0.0,0.0,0.0,0.0,0.0,0.0,0.0,0.0,0.0,0.0,0.0,0.0,0.0,0.0,0.0,0.0,0.0,0.0,0.0,0.0,0.0,0.0,0.0,0.0,0.0,0.0,0.0,0.0,0.0,0.0,0.0,0.0,0.0,0.0,0.0,0.0,0.0,0.0,0.0,0.0,0.0,0.0,0.0,0.0,0.0,0.0,0.0,0.0,0.0,0.0,0.0,0.0,0.0,0.0,0.0,0.0,0.0,0.0,0.0,0.0,0.0,0.0,0.0,0.0,0.0,0.0,0.0,0.0,0.0,0.0,-3.8144,-3.8144,-3.9805,-3.9746,-3.7773,0.0,0.0,0.0,0.0,0.0,0.0,0.0,0.0,0.0,0.0,0.0,0.0,0.0,0.0,0.0,0.0,0.0,0.0,0.0,0.0,0.0,0.0,0.0,0.0,0.0,0.0,0.0,0.0,0.0,0.0,0.0,0.0,0.0,0.0,0.0,0.0,0.0,0.0,0.0,0.0,0.0,0.0,0.0,0.0,0.0,0.0,0.0,0.0,0.0,0.0,0.0,0.0,0.0,0.0,0.0,0.0,0.0,0.0,0.0,0.0,0.0,0.0,0.0,0.0,0.0,0.0,0.0,0.0,0.0,0.0,0.0,0.0,0.0,0.0,0.0,0.0,0.0,0.0,0.0,0.0,0.0,0.0,0.0,0.0,0.0,0.0,0.0,0.0,0.0,0.0,0.0,0.0,0.0,0.0,0.0,0.0,0.0,0.0,0.0,0.0,0.0,0.0,0.0,0.0,0.0,0.0,0.0,0.0,0.0,-3.5644,-3.6211,-3.8086,-4.1211,-3.7793,-3.5781,0.0,0.0,0.0,0.0,0.0,0.0,0.0,0.0,0.0,0.0,0.0,0.0,0.0,0.0,0.0,0.0,0.0,0.0,0.0,0.0,0.0,0.0,0.0,0.0,0.0,0.0,0.0,0.0,0.0,0.0,0.0,0.0,0.0,0.0,0.0,0.0,0.0,0.0,0.0,0.0,0.0,0.0,0.0,0.0,0.0,0.0,0.0,0.0,0.0,0.0,0.0,0.0,0.0,0.0,0.0,0.0,0.0,0.0,0.0,0.0,0.0,0.0,0.0,0.0,0.0,0.0,0.0,0.0,0.0,0.0,0.0,0.0,0.0,0.0,0.0,0.0,0.0,0.0,0.0,0.0,0.0,0.0,0.0,0.0,0.0,0.0,0.0,0.0,0.0,0.0,0.0,0.0,0.0,0.0,0.0,0.0,0.0,0.0,0.0,0.0,0.0,0.0,0.0,0.0,0.0,0.0,0.0,0.0,0.0,-3.5059,0.0,-3.9082,0.0,-3.6953,-3.457,0.0,0.0,0.0,0.0,0.0,0.0,0.0,0.0,0.0,0.0,0.0,0.0,0.0,0.0,0.0,0.0,0.0,0.0,0.0,0.0,0.0,0.0,0.0,0.0,0.0,0.0,0.0,0.0,0.0,0.0,0.0,0.0,0.0,0.0,0.0,0.0,0.0,0.0,0.0,0.0,0.0,0.0,0.0,0.0,0.0,0.0,0.0,0.0,0.0,0.0,0.0,0.0,0.0,0.0,0.0,0.0,0.0,0.0,0.0,0.0,0.0,0.0,0.0,0.0,0.0,0.0,0.0,0.0,0.0,0.0,0.0,0.0,0.0,0.0,0.0,0.0,0.0,0.0,0.0,0.0,0.0,0.0,0.0,0.0,0.0,0.0,0.0,0.0,0.0,0.0,0.0,0.0,0.0,0.0,0.0,0.0,0.0,0.0,0.0,0.0,0.0,0.0,0.0,0.0,0.0,0.0,0.0,0.0,-3.341,-3.8301,-4.082,-4.0937,-3.875,-3.7656,-3.4453,0.0,0.0,0.0,0.0,0.0,0.0,0.0,0.0,0.0,0.0,0.0,0.0,0.0,0.0,0.0,0.0,0.0,0.0,0.0,0.0,0.0,0.0,0.0,0.0,0.0,0.0,0.0,0.0,0.0,0.0,0.0,0.0,0.0,0.0,0.0,0.0,0.0,0.0,0.0,0.0,0.0,0.0,0.0,0.0,0.0,0.0,0.0,0.0,0.0,0.0,0.0,0.0,0.0,0.0,0.0,0.0,0.0,0.0,0.0,0.0,0.0,0.0,0.0,0.0,0.0,0.0,0.0,0.0,0.0,0.0,0.0,0.0,0.0,0.0,0.0,0.0,0.0,0.0,0.0,0.0,0.0,0.0,0.0,0.0,0.0,0.0,0.0,0.0,0.0,0.0,0.0,0.0,0.0,0.0,0.0,0.0,0.0,0.0,0.0,0.0,0.0,0.0,0.0,0.0,0.0,0.0,0.0,0.0,0.0,-3.5937,-3.785,-3.9645,-4.0995,-3.6912,-3.4586,0.0,0.0,0.0,0.0,0.0,0.0,0.0,0.0,0.0,0.0,0.0,0.0,0.0,0.0,0.0,0.0,0.0,0.0,0.0,0.0,0.0,0.0,0.0,0.0,0.0,0.0,0.0,0.0,0.0,0.0,0.0,0.0,0.0,0.0,0.0,0.0,0.0,0.0,0.0,0.0,0.0,0.0,0.0,0.0,0.0,0.0,0.0,0.0,0.0,0.0,0.0,0.0,0.0,0.0,0.0,0.0,0.0,0.0,0.0,0.0,0.0,0.0,0.0,0.0,0.0,0.0,0.0,0.0,0.0,0.0,0.0,0.0,0.0,0.0,0.0,0.0,0.0,0.0,0.0,0.0,0.0,0.0,0.0,0.0,0.0,0.0,0.0,0.0,0.0,0.0,0.0,0.0,0.0,0.0,0.0,0.0,0.0,0.0,0.0,0.0,0.0,0.0,0.0,0.0,0.0,0.0,0.0,0.0,0.0,-3.7627,-3.9894,-4.1517,-4.2379,-3.7807,-3.5324,-3.5262,0.0,0.0,0.0,0.0,0.0,0.0,0.0,0.0,0.0,0.0,0.0,0.0,0.0,0.0,0.0,0.0,0.0,0.0,0.0,0.0,0.0,0.0,0.0,0.0,0.0,0.0,0.0,0.0,0.0,0.0,0.0,0.0,0.0,0.0,0.0,0.0,0.0,0.0,0.0,0.0,0.0,0.0,0.0,0.0,0.0,0.0,0.0,0.0,0.0,0.0,0.0,0.0,0.0,0.0,0.0,0.0,0.0,0.0,0.0,0.0,0.0,0.0,0.0,0.0,0.0,0.0,0.0,0.0,0.0,0.0,0.0,0.0,0.0,0.0,0.0,0.0,0.0,0.0,0.0,0.0,0.0,0.0,0.0,0.0,0.0,0.0,0.0,0.0,0.0,0.0,0.0,0.0,0.0,0.0,0.0,0.0,0.0,0.0,0.0,0.0,0.0,0.0,0.0,0.0,0.0,0.0,0.0,0.0,-4.2322,-4.5877,-4.6085,-4.2824,-4.013,-3.675,0.0,0.0,0.0,0.0,0.0,0.0,0.0,0.0,0.0,0.0,0.0,0.0,0.0,0.0,0.0,0.0,0.0,0.0,0.0,0.0,0.0,0.0,0.0,0.0,0.0,0.0,0.0,0.0,0.0,0.0,0.0,0.0,0.0,0.0,0.0,0.0,0.0,0.0,0.0,0.0,0.0,0.0,0.0,0.0,0.0,0.0,0.0,0.0,0.0,0.0,0.0,0.0,0.0,0.0,0.0,0.0,0.0,0.0,0.0,0.0,0.0,0.0,0.0,0.0,0.0,0.0,0.0,0.0,0.0,0.0,0.0,0.0,0.0,0.0,0.0,0.0,0.0,0.0,0.0,0.0,0.0,0.0,0.0,0.0,0.0,0.0,0.0,0.0,0.0,0.0,0.0,0.0,0.0,0.0,0.0,0.0,0.0,0.0,0.0,0.0,0.0,0.0,0.0,0.0,0.0,0.0,0.0,0.0,0.0,-4.3259,-4.7305,-4.8416,-4.6235,-4.2485,-3.934,0.0,0.0,0.0,0.0,0.0,0.0,0.0,0.0,0.0,0.0,0.0,0.0,0.0,0.0,0.0,0.0,0.0,0.0,0.0,0.0,0.0,0.0,0.0,0.0,0.0,0.0,0.0,0.0,0.0,0.0,0.0,0.0,0.0,0.0,0.0,0.0,0.0,0.0,0.0,0.0,0.0,0.0,0.0,0.0,0.0,0.0,0.0,0.0,0.0,0.0,0.0,0.0,0.0,0.0,0.0,0.0,0.0,0.0,0.0,0.0,0.0,0.0,0.0,0.0,0.0,0.0,0.0,0.0,0.0,0.0,0.0,0.0,0.0,0.0,0.0,0.0,0.0,0.0,0.0,0.0,0.0,0.0,0.0,0.0,0.0,0.0,0.0,0.0,0.0,0.0,0.0,0.0,0.0,0.0,0.0,0.0,0.0,0.0,0.0,0.0,0.0,0.0,0.0,0.0,0.0,0.0,0.0,0.0,-4.1194,-4.4546,-4.8128,-4.9351,-4.8077,-4.4598,-4.1443,0.0,0.0,0.0,0.0,0.0,0.0,0.0,0.0,0.0,0.0,0.0,0.0,0.0,0.0,0.0,0.0,0.0,0.0,0.0,0.0,0.0,0.0,0.0,0.0,0.0,0.0,0.0,0.0,0.0,0.0,0.0,0.0,0.0,0.0,0.0,0.0,0.0,0.0,0.0,0.0,0.0,0.0,0.0,0.0,0.0,0.0,0.0,0.0,0.0,0.0,0.0,0.0,0.0,0.0,0.0,0.0,0.0,0.0,0.0,0.0,0.0,0.0,0.0,0.0,0.0,0.0,0.0,0.0,0.0,0.0,0.0,0.0,0.0,0.0,0.0,0.0,0.0,0.0,0.0,0.0,0.0,0.0,0.0,0.0,0.0,0.0,0.0,0.0,0.0,0.0,0.0,0.0,0.0,0.0,0.0,0.0,0.0,0.0,0.0,0.0,0.0,0.0,0.0,0.0,0.0,0.0,0.0,0.0,-4.1667,-4.589,-4.8552,-4.9571,-4.876,-4.6326,-4.2976,0.0,0.0,0.0,0.0,0.0,0.0,0.0,0.0,0.0,0.0,0.0,0.0,0.0,0.0,0.0,0.0,0.0,0.0,0.0,0.0,0.0,0.0,0.0,0.0,0.0,0.0,0.0,0.0,0.0,0.0,0.0,0.0,0.0,0.0,0.0,0.0,0.0,0.0,0.0,0.0,0.0,0.0,0.0,0.0,0.0,0.0,0.0,0.0,0.0,0.0,0.0,0.0,0.0,0.0,0.0,0.0,0.0,0.0,0.0,0.0,0.0,0.0,0.0,0.0,0.0,0.0,0.0,0.0,0.0,0.0,0.0,0.0,0.0,0.0,0.0,0.0,0.0,0.0,0.0,0.0,0.0,0.0,0.0,0.0,0.0,0.0,0.0,0.0,0.0,0.0,0.0,0.0,0.0,0.0,0.0,0.0,0.0,0.0,0.0,0.0,0.0,0.0,0.0,0.0,0.0,0.0,0.0,0.0,-4.286,-4.5816,-4.9044,-5.0365,-4.958,-4.6497,-4.2827,0.0,0.0,0.0,0.0,0.0,0.0,0.0,0.0,0.0,0.0,0.0,0.0,0.0,0.0,0.0,0.0,0.0,0.0,0.0,0.0,0.0,0.0,0.0,0.0,0.0,0.0,0.0,0.0,0.0,0.0,0.0,0.0,0.0,0.0,0.0,0.0,0.0,0.0,0.0,0.0,0.0,0.0,0.0,0.0,0.0,0.0,0.0,0.0,-2.4091,0.0,0.0,0.0,0.0,0.0,0.0,0.0,0.0,0.0,0.0,0.0,0.0,0.0,0.0,0.0,0.0,0.0,0.0,0.0,0.0,0.0,0.0,0.0,0.0,0.0,0.0,0.0,0.0,0.0,0.0,0.0,0.0,0.0,0.0,0.0,0.0,0.0,0.0,0.0,0.0,0.0,0.0,0.0,0.0,0.0,0.0,0.0,0.0,0.0,0.0,0.0,0.0,0.0,0.0,0.0,0.0,0.0,0.0,0.0,-4.3798,-4.6355,-4.898,-4.9951,-4.9052,-4.6607,-4.3291,0.0,0.0,0.0,0.0,0.0,0.0,0.0,0.0,0.0,0.0,0.0,0.0,0.0,0.0,0.0,0.0,0.0,0.0,0.0,0.0,0.0,0.0,0.0,0.0,0.0,0.0,0.0,0.0,0.0,0.0,0.0,0.0,0.0,0.0,0.0,0.0,0.0,0.0,0.0,0.0,0.0,0.0,0.0,0.0,0.0,0.0,0.0,0.0,0.0,0.0,0.0,0.0,0.0,0.0,0.0,0.0,0.0,0.0,0.0,0.0,0.0,0.0,0.0,0.0,0.0,0.0,0.0,0.0,0.0,0.0,0.0,0.0,0.0,0.0,0.0,0.0,0.0,0.0,0.0,0.0,0.0,0.0,0.0,0.0,0.0,0.0,0.0,0.0,0.0,0.0,0.0,0.0,0.0,0.0,0.0,0.0,0.0,0.0,0.0,0.0,0.0,0.0,0.0,0.0,0.0,0.0,0.0,-4.0585,-4.4264,-4.6989,-4.8717,-4.9096,-4.8091,-4.659,-4.3763,-3.9524,0.0,0.0,0.0,0.0,0.0,0.0,0.0,0.0,0.0,0.0,0.0,0.0,0.0,0.0,0.0,0.0,0.0,0.0,0.0,0.0,0.0,0.0,0.0,0.0,0.0,0.0,0.0,0.0,0.0,0.0,0.0,0.0,0.0,0.0,0.0,0.0,0.0,0.0,-2.5062,-2.6585,0.0,0.0,0.0,0.0,0.0,0.0,0.0,0.0,-2.4758,0.0,0.0,0.0,0.0,0.0,0.0,0.0,0.0,0.0,0.0,0.0,0.0,0.0,0.0,0.0,0.0,0.0,0.0,0.0,0.0,0.0,0.0,0.0,0.0,0.0,0.0,0.0,0.0,0.0,0.0,0.0,0.0,0.0,0.0,0.0,0.0,0.0,0.0,0.0,0.0,0.0,0.0,0.0,0.0,0.0,0.0,0.0,0.0,0.0,0.0,0.0,0.0,0.0,0.0,0.0,0.0,-3.8584,-4.0893,-4.3594,-4.6842,-4.8584,-4.8699,-4.7169,-4.6138,-4.3304,-3.8548,0.0,0.0,0.0,0.0,0.0,0.0,0.0,0.0,0.0,0.0,0.0,0.0,0.0,0.0,0.0,0.0,0.0,0.0,0.0,0.0,0.0,0.0,0.0,0.0,0.0,0.0,0.0,0.0,0.0,0.0,0.0,0.0,0.0,0.0,0.0,0.0,0.0,0.0,0.0,-2.9728,-3.1036,0.0,0.0,0.0,0.0,0.0,0.0,0.0,0.0,-2.5379,0.0,0.0,0.0,0.0,0.0,0.0,0.0,0.0,0.0,0.0,0.0,0.0,0.0,0.0,0.0,0.0,0.0,0.0,0.0,0.0,0.0,0.0,0.0,0.0,0.0,0.0,0.0,0.0,0.0,0.0,0.0,0.0,0.0,0.0,0.0,0.0,0.0,0.0,0.0,0.0,0.0,0.0,0.0,0.0,0.0,0.0,0.0,0.0,0.0,0.0,0.0,0.0,0.0,0.0,0.0,-3.8488,-4.1566,-4.4335,-4.6808,-4.7702,-4.7721,-4.6885,-4.4778,-4.1873,0.0,0.0,0.0,0.0,0.0,0.0,0.0,0.0,0.0,0.0,0.0,0.0,0.0,0.0,0.0,0.0,0.0,0.0,0.0,0.0,0.0,0.0,0.0,0.0,0.0,0.0,0.0,0.0,0.0,0.0,0.0,0.0,0.0,0.0,0.0,0.0,0.0,0.0,0.0,0.0,-3.1036,-3.2109,-3.2147,0.0,0.0,0.0,0.0,0.0,0.0,-2.7206,-2.6483,0.0,0.0,0.0,0.0,0.0,0.0,0.0,0.0,0.0,0.0,0.0,0.0,0.0,0.0,0.0,0.0,0.0,0.0,0.0,0.0,0.0,0.0,0.0,0.0,0.0,0.0,0.0,0.0,0.0,0.0,0.0,0.0,0.0,0.0,0.0,0.0,0.0,0.0,0.0,0.0,0.0,0.0,0.0,0.0,0.0,0.0,0.0,0.0,0.0,0.0,0.0,0.0,0.0,0.0,0.0,-3.7738,-4.1739,-4.472,-4.6547,-4.6817,-4.674,-4.6327,-4.3412,-4.045,0.0,0.0,0.0,0.0,0.0,0.0,0.0,0.0,0.0,0.0,0.0,0.0,0.0,0.0,0.0,0.0,0.0,0.0,0.0,0.0,0.0,0.0,0.0,0.0,0.0,0.0,0.0,0.0,0.0,0.0,0.0,0.0,0.0,0.0,0.0,0.0,0.0,0.0,0.0,0.0,0.0,-3.2951,-3.3106,-3.1546,0.0,0.0,0.0,0.0,-2.8967,-2.9311,0.0,0.0,0.0,0.0,0.0,0.0,0.0,0.0,0.0,0.0,0.0,0.0,0.0,0.0,0.0,0.0,0.0,0.0,0.0,0.0,0.0,0.0,0.0,0.0,0.0,0.0,0.0,0.0,0.0,0.0,0.0,0.0,0.0,0.0,0.0,0.0,0.0,0.0,0.0,0.0,0.0,0.0,0.0,0.0,0.0,0.0,0.0,0.0,0.0,0.0,0.0,0.0,0.0,0.0,0.0,0.0,-3.6808,-4.0296,-4.3297,-4.5643,-4.6509,-4.6182,-4.4643,-4.2777,-3.9904,0.0,0.0,0.0,0.0,0.0,0.0,0.0,0.0,0.0,0.0,0.0,0.0,0.0,0.0,0.0,0.0,0.0,0.0,0.0,0.0,0.0,0.0,0.0,0.0,0.0,0.0,0.0,0.0,0.0,0.0,0.0,0.0,0.0,0.0,0.0,0.0,0.0,0.0,0.0,0.0,0.0,-3.4734,-3.2547,-3.2665,-3.2392,0.0,0.0,-3.1544,-3.1641,-3.2941,0.0,0.0,0.0,0.0,0.0,0.0,0.0,0.0,0.0,0.0,0.0,0.0,0.0,0.0,0.0,0.0,0.0,0.0,0.0,0.0,0.0,0.0,0.0,0.0,0.0,0.0,0.0,0.0,0.0,0.0,0.0,0.0,0.0,0.0,0.0,0.0,0.0,0.0,0.0,0.0,0.0,0.0,0.0,0.0,0.0,0.0,0.0,0.0,0.0,0.0,0.0,0.0,0.0,0.0,0.0,-3.225,-3.5981,-3.9827,-4.2777,-4.4778,-4.522,-4.5066,-4.4297,-4.1296,-3.8354,0.0,0.0,0.0,0.0,0.0,0.0,0.0,0.0,0.0,0.0,0.0,0.0,0.0,0.0,0.0,0.0,0.0,0.0,0.0,0.0,0.0,0.0,0.0,0.0,0.0,0.0,0.0,0.0,0.0,0.0,0.0,0.0,0.0,0.0,0.0,0.0,0.0,0.0,0.0,0.0,0.0,0.0,-3.3715,-3.3911,0.0,0.0,0.0,-3.2831,-3.2831,0.0,0.0,0.0,0.0,0.0,0.0,0.0,0.0,0.0,0.0,0.0,0.0,0.0,0.0,0.0,0.0,0.0,0.0,0.0,0.0,0.0,0.0,0.0,0.0,0.0,0.0,0.0,0.0,0.0,0.0,0.0,0.0,0.0,0.0,0.0,0.0,0.0,0.0,0.0,0.0,0.0,0.0,0.0,0.0,0.0,0.0,0.0,0.0,0.0,0.0,0.0,0.0,0.0,0.0,0.0,0.0,0.0,-3.5481,-3.9392,-4.2236,-4.3912,-4.4008,-4.3893,-4.3624,-3.9988,0.0,0.0,0.0,0.0,0.0,0.0,0.0,0.0,0.0,0.0,0.0,0.0,0.0,0.0,0.0,0.0,0.0,0.0,0.0,0.0,0.0,0.0,0.0,0.0,0.0,0.0,0.0,-1.9908,0.0,0.0,0.0,0.0,0.0,0.0,0.0,0.0,0.0,0.0,0.0,0.0,0.0,0.0,-3.461,-3.4396,-3.4924,-3.5275,0.0,0.0,-3.3982,-3.3749,-3.4275,-3.3396,0.0,0.0,0.0,0.0,0.0,0.0,0.0,0.0,0.0,0.0,0.0,0.0,0.0,0.0,0.0,0.0,0.0,0.0,0.0,0.0,0.0,0.0,0.0,0.0,0.0,0.0,0.0,0.0,0.0,0.0,0.0,0.0,0.0,0.0,0.0,0.0,0.0,0.0,0.0,0.0,0.0,0.0,0.0,0.0,0.0,0.0,0.0,0.0,0.0,0.0,0.0,0.0,0.0,0.0,0.0,-3.5448,-3.8665,-4.1241,-4.3096,-4.3181,-4.2777,-4.1942,-3.9411,-3.6449,0.0,0.0,0.0,0.0,0.0,0.0,0.0,0.0,0.0,0.0,0.0,0.0,0.0,0.0,0.0,0.0,0.0,0.0,0.0,0.0,0.0,0.0,0.0,0.0,0.0,0.0,0.0,0.0,0.0,0.0,0.0,0.0,0.0,0.0,0.0,0.0,0.0,0.0,0.0,0.0,0.0,-3.4402,-3.3601,-3.5574,-3.6824,0.0,0.0,-3.5543,-3.4744,-3.6639,-3.6522,-3.1465,0.0,0.0,0.0,0.0,0.0,0.0,0.0,0.0,0.0,0.0,0.0,0.0,0.0,0.0,0.0,0.0,0.0,0.0,0.0,0.0,0.0,0.0,0.0,0.0,0.0,0.0,0.0,0.0,0.0,0.0,0.0,0.0,0.0,0.0,0.0,0.0,0.0,0.0,0.0,0.0,0.0,0.0,0.0,0.0,0.0,0.0,0.0,0.0,0.0,0.0,0.0,0.0,0.0,-3.0125,-3.3568,-3.73,-4.0129,-4.1951,-4.2047,-4.1726,-4.1008,-3.845,-3.5544,0.0,0.0,0.0,0.0,0.0,0.0,0.0,0.0,0.0,0.0,0.0,0.0,0.0,0.0,0.0,0.0,0.0,0.0,0.0,0.0,0.0,0.0,0.0,0.0,0.0,0.0,0.0,0.0,-2.2154,-2.2272,-2.2603,0.0,0.0,0.0,0.0,0.0,0.0,0.0,0.0,0.0,0.0,-3.4572,-3.4241,-3.5979,0.0,0.0,-3.6013,-3.5895,-3.5543,-3.5876,-3.496,-3.1366,-2.9692,0.0,0.0,0.0,0.0,0.0,0.0,0.0,0.0,0.0,0.0,0.0,0.0,0.0,0.0,0.0,0.0,0.0,0.0,0.0,0.0,0.0,0.0,0.0,0.0,0.0,0.0,0.0,0.0,0.0,0.0,0.0,0.0,0.0,0.0,0.0,0.0,0.0,0.0,0.0,0.0,0.0,0.0,0.0,0.0,0.0,0.0,0.0,0.0,0.0,0.0,0.0,0.0,-2.8618,-3.1989,-3.5551,-3.8333,-4.0177,-4.0206,-4.0005,-3.9525,-3.7012,-3.4472,0.0,0.0,0.0,0.0,0.0,0.0,0.0,0.0,0.0,0.0,0.0,0.0,0.0,0.0,0.0,0.0,0.0,0.0,0.0,0.0,0.0,0.0,0.0,0.0,0.0,0.0,0.0,0.0,-2.3244,-2.2896,-2.2409,0.0,0.0,0.0,0.0,0.0,0.0,0.0,0.0,0.0,0.0,-3.451,-3.5018,-3.6364,-3.7087,-3.648,-3.5953,-3.5621,-3.5621,-3.5115,-3.3827,-3.1231,0.0,0.0,0.0,0.0,0.0,0.0,0.0,0.0,0.0,0.0,0.0,0.0,0.0,0.0,0.0,0.0,0.0,0.0,0.0,0.0,0.0,0.0,0.0,0.0,0.0,0.0,0.0,-2.5754,0.0,0.0,-2.464,0.0,0.0,0.0,0.0,0.0,0.0,0.0,0.0,0.0,0.0,0.0,0.0,0.0,0.0,0.0,0.0,0.0,0.0,0.0,0.0,0.0,0.0,-2.7675,-3.1107,-3.3561,-3.5648,-3.746,-3.7508,-3.7527,-3.7451,-3.5002,-3.3239,-3.2282,0.0,0.0,0.0,0.0,0.0,0.0,0.0,0.0,0.0,0.0,0.0,0.0,0.0,0.0,0.0,0.0,0.0,0.0,0.0,0.0,0.0,0.0,0.0,0.0,0.0,0.0,-2.4006,-2.3546,-2.2447,0.0,0.0,0.0,0.0,0.0,0.0,0.0,0.0,0.0,0.0,-3.1797,-3.406,-3.5719,-3.6714,-3.7282,-3.7223,-3.5837,-3.4744,-3.4803,-3.4726,-3.3807,0.0,0.0,0.0,0.0,0.0,0.0,0.0,0.0,0.0,0.0,0.0,0.0,0.0,0.0,0.0,0.0,0.0,0.0,0.0,0.0,0.0,0.0,0.0,0.0,0.0,0.0,0.0,-2.9978,-2.8581,0.0,0.0,0.0,0.0,0.0,0.0,0.0,0.0,0.0,0.0,0.0,-3.1831,-3.2351,0.0,0.0,0.0,0.0,0.0,0.0,0.0,0.0,0.0,0.0,0.0,0.0,-2.7428,-3.0692,-3.3134,-3.5244,-3.7057,-3.7144,-3.6936,-3.6529,-3.4537,-3.2034,-2.8957,0.0,0.0,0.0,0.0,0.0,0.0,0.0,0.0,0.0,0.0,0.0,0.0,0.0,0.0,0.0,0.0,0.0,0.0,0.0,0.0,0.0,0.0,0.0,0.0,0.0,-2.192,0.0,0.0,0.0,0.0,0.0,0.0,0.0,0.0,0.0,0.0,0.0,-2.8166,-3.0138,-3.3143,-3.5114,-3.5135,-3.6364,-3.7106,0.0,0.0,0.0,0.0,0.0,0.0,0.0,0.0,0.0,0.0,0.0,0.0,0.0,0.0,-2.9389,-2.4802,-2.3963,-2.3788,-2.3222,0.0,0.0,0.0,0.0,0.0,0.0,0.0,0.0,0.0,0.0,0.0,0.0,0.0,0.0,-3.2293,0.0,-3.0898,0.0,0.0,0.0,0.0,0.0,0.0,0.0,0.0,-3.3339,-3.4457,-3.4321,-3.481,-3.4513,0.0,-3.2147,-3.0121,0.0,0.0,0.0,0.0,0.0,0.0,0.0,0.0,-2.7594,-3.0549,-3.2685,-3.4516,-3.5932,-3.6019,-3.5837,-3.5415,-3.3748,-3.1143,-2.7568,-2.6048,-2.4525,0.0,0.0,0.0,0.0,0.0,0.0,0.0,0.0,0.0,0.0,0.0,0.0,0.0,0.0,0.0,0.0,0.0,0.0,0.0,0.0,0.0,0.0,0.0,-2.2302,0.0,0.0,0.0,0.0,0.0,0.0,0.0,0.0,0.0,-2.5764,-2.7736,-2.9902,-3.1895,-3.3845,-3.5094,-3.5154,0.0,0.0,0.0,0.0,0.0,0.0,0.0,-3.3749,-3.3455,-3.2714,-3.1856,-3.0956,-3.1524,-3.1741,-3.0633,0.0,0.0,-2.7048,-2.6464,-2.6386,-2.5527,-2.582,-2.6387,-2.6953,-2.7305,-2.7519,0.0,0.0,0.0,0.0,0.0,0.0,0.0,0.0,-3.4237,-3.4151,0.0,-3.266,0.0,0.0,0.0,0.0,0.0,-3.1665,0.0,0.0,-3.5965,-3.7216,-3.6753,-3.6716,-3.6716,-3.6655,-3.5856,-3.4612,-3.2737,-2.7501,0.0,0.0,0.0,0.0,0.0,0.0,-2.8152,-3.0604,-3.2221,-3.3392,-3.4209,-3.4246,-3.4209,-3.4098,-3.2593,-3.0623,-2.831,-2.8204,-2.6826,-2.3701,-2.2806,0.0,0.0,0.0,0.0,0.0,0.0,0.0,0.0,0.0,0.0,0.0,0.0,0.0,0.0,0.0,0.0,0.0,0.0,0.0,0.0,-2.3087,0.0,0.0,0.0,0.0,0.0,0.0,0.0,0.0,0.0,0.0,-2.8479,-2.9883,-3.1815,-3.4276,0.0,0.0,0.0,0.0,-3.5057,-3.5895,-3.5291,-3.4764,-3.4783,-3.4725,-3.4413,-3.3632,0.0,0.0,-3.1327,-3.1582,-3.1663,-3.0027,-3.1141,-3.2139,-3.197,-3.1171,-3.0527,-2.9746,-2.9531,-2.9668,-2.9766,-3.0293,-3.082,-3.9946,0.0,0.0,0.0,0.0,-3.609,-3.6939,-3.8333,-3.8009,-3.7482,-3.6807,-3.5545,0.0,0.0,0.0,0.0,0.0,0.0,-3.4271,-3.4842,-3.6425,-3.739,-3.7827,-3.7891,-3.7579,-3.6993,-3.6947,-3.6094,-3.4452,-3.2437,-2.9118,-2.4705,0.0,0.0,0.0,0.0,-2.8988,-3.1366,-3.2481,-3.3398,-3.4179,-3.4216,-3.3652,-3.2518,-3.1496,-3.0326,-2.9062,-2.794,-2.6934,-2.6059,-2.4166,0.0,0.0,0.0,0.0,0.0,0.0,0.0,0.0,0.0,0.0,0.0,0.0,0.0,0.0,0.0,0.0,0.0,0.0,0.0,-2.2201,-2.2385,-2.2416,0.0,0.0,0.0,0.0,0.0,0.0,0.0,0.0,0.0,-3.1698,-3.2343,-3.2928,0.0,0.0,-3.5211,-3.5096,-3.5389,-3.5699,-3.5953,-3.5778,0.0,-3.5621,-3.5096,-3.4842,-3.5192,-3.4959,-3.4237,-3.2889,-3.285,-3.2675,-3.1565,-3.2291,-3.284,-3.2218,-3.193,-3.1679,-3.1484,-3.1445,-3.166,-3.2187,-3.2539,-3.25,-4.2965,-4.0083,-3.8832,-3.8325,-3.838,-3.8443,-3.9042,-3.9931,-3.9639,-3.9403,-3.9094,-3.7532,-3.5953,-3.4399,-3.3125,0.0,0.0,0.0,-3.627,-3.6995,-3.7873,-3.8461,-3.8773,-3.8824,-3.8419,-3.7635,-3.7427,-3.6905,-3.6035,-3.5378,-3.2851,-2.8709,0.0,0.0,-2.7687,-2.8913,-3.0456,-3.2221,-3.3076,-3.3714,-3.4179,-3.3881,-3.3113,-3.1849,-3.1013,-3.0214,-2.9415,-2.8096,-2.7391,-2.7466,-2.5151,-2.3116,0.0,0.0,0.0,0.0,0.0,0.0,0.0,0.0,0.0,0.0,0.0,-1.7641,-1.6311,0.0,0.0,0.0,-1.9315,-2.1412,-2.3581,-2.3664,0.0,0.0,0.0,0.0,0.0,0.0,0.0,-2.9547,-3.0301,-3.1277,-3.3141,-3.371,-3.404,-3.4392,-3.5036,-3.5408,-3.5252,0.0,-3.5602,-3.5953,-3.6012,-3.6012,-3.6012,-3.5563,-3.5291,-3.5447,-3.5057,-3.4237,-3.3105,-3.2889,-3.2578,-3.1914,-3.2288,-3.272,-3.2195,-3.2357,-3.2498,-3.2226,-3.2187,-3.248,-3.3242,-3.3379,-3.3242,-4.513,-4.4182,-4.2137,-4.0767,-4.0043,-4.0681,-4.0543,-3.9871,-3.9842,-4.0239,-4.0745,-3.8833,-3.7937,-3.7795,-3.6624,0.0,-3.6076,-3.7637,-3.8564,-3.9119,-3.9801,-3.9896,-3.9472,-3.94,-3.8997,-3.8267,-3.7485,-3.7247,-3.7422,-3.6684,-3.5266,-3.3227,-3.1681,-3.0869,-3.0753,-3.1496,-3.2295,-3.3101,-3.3826,-3.4197,-3.4197,-3.3354,-3.2544,-3.1812,-3.0957,-3.014,-2.9415,-2.856,-2.8114,-2.8021,-2.5847,-2.3878,-2.2245,0.0,0.0,0.0,0.0,0.0,0.0,0.0,0.0,0.0,0.0,0.0,0.0,0.0,0.0,0.0,-2.1547,0.0,-2.5346,-2.6173,0.0,0.0,0.0,-2.5959,-2.6904,-2.7755,-2.8965,-3.0695,0.0,0.0,-3.3467,-3.4291,-3.5093,-3.5895,-3.5291,-3.5096,-3.5895,-3.533,-3.5076,-3.5895,-3.6012,-3.6012,-3.6012,-3.5856,-3.5525,-3.4901,-3.4588,-3.3828,-3.248,-3.2013,-3.168,-3.1016,-3.1465,-3.1975,-3.2001,-3.2531,-3.3003,-3.2342,-3.2285,-3.2559,-3.3379,-3.3574,-3.3574,-4.6345,-4.5087,-4.4535,-4.3578,-4.2344,-4.193,-4.1654,-4.1412,-4.0948,-4.081,-4.0808,-3.9841,-3.8737,-3.7551,-3.6645,-3.6561,-3.7147,-3.7582,-3.8534,-3.9775,-3.9504,-3.9347,-3.9317,-3.8734,-3.8045,-3.7373,-3.7345,-3.7381,-3.7398,-3.6777,-3.598,-3.5056,-3.4229,-3.3042,-3.1597,-3.2314,-3.3101,-3.39,-3.4104,-3.4216,-3.416,-3.2834,-3.1987,-3.1794,-3.0437,-2.9582,-2.9407,-2.856,-2.8114,-2.8059,-2.6368,-2.4955,-2.3933,-2.1589,0.0,0.0,0.0,0.0,0.0,0.0,0.0,0.0,0.0,-2.0588,-1.7923,0.0,-2.1893,0.0,-2.3596,-2.5404,-2.7101,-2.689,0.0,0.0,-2.7691,-2.7907,-2.9363,-2.9757,-3.0595,-3.2326,-3.3297,-3.4199,-3.5178,-3.5498,-3.5708,-3.5968,-3.5836,-3.5758,-3.5973,-3.5836,-3.5758,-3.5953,-3.6012,-3.6012,-3.5973,-3.5428,-3.494,-3.4746,-3.3612,-3.2579,-3.2169,-3.1524,-3.1036,-3.0839,-3.0937,-3.1094,-3.1194,-3.1335,-3.1965,-3.2809,-3.3105,-3.3379,-3.4199,-3.4394,-3.4394,-4.6483,-4.5414,-4.5414,-4.4941,-4.4096,-4.3017,-4.2327,-4.1964,-4.1311,-4.0959,-4.086,-4.0199,-3.919,-3.8013,-3.7655,-3.7902,-3.8545,-3.8673,-3.9429,-4.0632,-4.0298,-3.9843,-3.9284,-3.8827,-3.8078,-3.7066,-3.7166,-3.7319,-3.7505,-3.7149,-3.6695,-3.6168,-3.556,-3.4511,-3.3119,-3.3364,-3.3751,-3.4197,-3.4216,-3.4216,-3.416,-3.263,-3.1801,-3.1756,-3.0233,-2.9229,-2.8839,-2.8003,-2.7557,-2.752,-2.6042,-2.4983,-2.4481,-2.2495,-2.0771,0.0,0.0,0.0,0.0,0.0,0.0,0.0,0.0,0.0,0.0,0.0,-2.3434,-2.3885,-2.5466,-2.7005,-2.8294,-2.8352,-2.8673,-2.9583,-2.9621,-3.0083,-3.1365,-3.1546,-3.2108,-3.3469,-3.3718,-3.4139,-3.5093,-3.5265,-3.5488,-3.5888,-3.5983,-3.6012,-3.6012,-3.6012,-3.6012,-3.6012,-3.6012,-3.6012,-3.6012,-3.5271,-3.4549,-3.41,-3.3008,-3.1993,-3.1621,-3.1465,-3.1387,-3.1387,-3.1679,-3.1952,-3.1952,-3.1997,-3.2373,-3.304,-3.3396,-3.3867,-3.5019,-3.5273,-3.5293,-4.6121,-4.5414,-4.5414,-4.5414,-4.5294,-4.3828,-4.281,-4.2102,-4.1274,-4.0894,-4.086,-4.0072,-3.9358,-3.8755,-3.8768,-3.9207,-3.9858,-4.0006,-4.0518,-4.1318,-4.1335,-4.0599,-3.9234,-3.9238,-3.8438,-3.7009,-3.6933,-3.7126,-3.7504,-3.7431,-3.7077,-3.6508,-3.5969,-3.5268,-3.4461,-3.4226,-3.4136,-3.4161,-3.4185,-3.4216,-3.4179,-3.263,-3.1801,-3.1727,-3.0121,-2.8876,-2.8133,-2.7427,-2.6999,-2.6851,-2.5559,-2.476,-2.4611,-2.3081,-2.1792,0.0,-2.0196,0.0,0.0,0.0,0.0,0.0,0.0,0.0,0.0,-2.4335,-2.5028,-2.6002,-2.7495,-2.8679,-2.9377,-3.0121,-3.0577,-3.0596,-3.1333,-3.2122,-3.2814,-3.2987,-3.3377,-3.4179,-3.3713,-3.365,-3.448,-3.4655,-3.5042,-3.5722,-3.594,-3.5981,-3.5986,-3.5989,-3.6012,-3.6012,-3.6012,-3.6012,-3.5934,-3.5271,-3.4471,-3.369,-3.2773,-3.1856,-3.1172,-3.1504,-3.1875,-3.1934,-3.2362,-3.2928,-3.3182,-3.3147,-3.321,-3.3348,-3.3393,-3.3905,-3.5254,-3.5664,-3.5859,-4.6148,-4.5414,-4.5414,-4.5414,-4.5276,-4.3828,-4.3103,-4.2879,-4.1498,-4.0894,-4.0791,-3.9445,-3.9083,-3.937,-3.8299,-3.8506,-3.9744,-3.9767,-4.0222,-4.0989,-4.0989,-4.0176,-3.878,-3.8728,-3.7936,-3.6499,-3.643,-3.6489,-3.6574,-3.6635,-3.6116,-3.5064,-3.517,-3.4636,-3.3539,0.0,0.0,0.0,-3.4111,-3.4216,-3.416,-3.2618,-3.1801,-3.1756,-2.9545,0.0,-2.8096,-2.7947,-2.7575,-2.6925,-2.6619,0.0,0.0,0.0,0.0,0.0,0.0,0.0,0.0,0.0,0.0,0.0,-2.4895,-2.4768,-2.4714,-2.7227,-2.9287,-3.0161,-3.0702,-3.1044,-3.1198,-3.1352,-3.1448,-3.1487,-3.2179,-3.2737,-3.2891,-3.3526,-3.4039,-3.4193,-3.4674,-3.5091,-3.5289,-3.5403,-3.5485,-3.5698,-3.5827,-3.5921,-3.5907,-3.5956,-3.601,-3.6012,-3.6012,-3.6012,-3.6012,-3.527,-3.4648,-3.4295,-3.3105,-3.213,-3.1836,-3.1368,-3.1094,-3.1114,-3.1172,-3.1621,-3.2246,-3.2345,-3.2641,-3.3249,-3.3391,-3.3707,-3.4725,-3.4961,-3.5156,-4.5759,0.0,-4.5414,-4.5414,0.0,-4.3828,-4.3207,-4.3086,-4.1567,-4.0894,-4.0825,-3.9664,-3.9353,-3.9629,-3.8525,-3.8629,-3.9698,-3.9698,-4.0129,-4.0877,-4.0474,-3.9698,-3.8577,-3.8237,-3.7482,-3.6419,-3.6322,-3.6381,-3.6485,-3.6159,-3.565,-3.5044,-3.4569,-3.4002,-3.3421,-3.3403,-3.3512,-3.3734,-3.3947,-3.4049,-3.4006,-3.2572,-3.1801,-3.1738,-2.9824,0.0,0.0,0.0,0.0,0.0,0.0,0.0,0.0,0.0,0.0,-2.4399,-2.4036,-2.3981,-2.4371,-2.4426,-2.5132,-2.6739,-2.7278,-2.7252,-2.6642,-2.9041,-3.0651,-3.0763,-3.123,-3.1591,-3.1712,-3.2045,-3.2295,-3.2333,-3.3045,-3.3551,-3.3628,-3.4314,-3.4834,-3.4872,-3.5231,-3.5515,-3.554,-3.5593,-3.5609,-3.5645,-3.5749,-3.5833,-3.5889,-3.5951,-3.601,-3.6012,-3.6012,-3.6012,-3.5934,-3.5271,-3.4707,-3.453,-3.3612,-3.2675,-3.215,-3.2109,-3.1971,-3.1602,-3.1776,-3.2265,-3.2617,-3.2736,-3.2895,-3.3266,-3.3389,-3.351,-3.3981,-3.4062,-3.416,-4.5414,-4.5414,-4.5414,-4.5414,-4.5276,-4.3802,-4.3034,-4.2706,0.0,0.0,0.0,-4.0043,-3.9767,-3.9836,-3.9129,-3.9221,-3.9888,-3.9905,-4.025,-4.0843,-4.006,-3.9301,-3.8577,-3.7858,-3.7141,-3.6478,-3.6343,-3.6402,-3.6588,-3.5798,-3.535,-3.5188,-3.4087,-3.3477,-3.344,-3.325,-3.325,-3.3491,-3.3707,-3.3873,-3.3858,-3.2489,-3.1748,-3.1801,-3.0084,-2.8839,-2.8133,-2.8114,-2.7483,-2.6219,-2.6126,-2.6135,-2.6108,-2.6005,-2.62,-2.6832,-2.6888,-2.6981,-2.7092,-2.7111,-2.7464,-2.8263,-2.9248,-2.9534,-2.8839,-3.0327,-3.1107,-3.0712,-3.1378,-3.1924,-3.209,-3.2551,-3.2968,-3.3122,-3.3776,-3.4244,-3.4436,-3.5038,-3.5442,-3.55,-3.5481,-3.55,-3.5494,-3.5566,-3.5574,-3.559,-3.5631,-3.5757,-3.5858,-3.597,-3.6012,-3.6012,-3.6012,-3.6012,-3.5914,-3.5485,-3.4959,-3.4959,-3.4237,-3.3398,-3.2871,-3.289,-3.2831,-3.2148,-3.2617,-3.283,-3.3085,-3.305,-3.3169,-3.3165,-3.3172,-3.3119,-3.2984,-3.2967,-3.3047,-4.5414,-4.5414,-4.5414,-4.5414,-4.5276,-4.3845,-4.2447,-4.1222,-4.0998,-4.0894,-4.086,-4.0043,-4.0077,-4.0687,-3.9911,-3.998,-4.0722,-4.0739,-4.0808,-4.086,-4.0083,-3.9301,-3.8577,-3.7858,-3.7081,-3.6374,-3.6301,-3.6322,-3.6295,-3.57,-3.5089,-3.4474,-3.3825,-3.33,-3.2935,-3.2938,-3.2961,-3.3011,-3.343,-3.3726,-3.3876,-3.2342,-3.1621,-3.1689,-2.9527,-2.8244,-2.8114,-2.8114,-2.8003,-2.778,-2.7761,-2.7761,-2.7743,-2.712,-2.6795,-2.6888,-2.6888,-2.7204,-2.7873,-2.7929,-2.83,-2.9192,-3.0586,-3.1117,-3.0416,-3.1313,-3.2193,-3.2759,-3.3166,-3.3555,-3.3567,-3.3203,-3.3295,-3.391,-3.4129,-3.4487,-3.5173,-3.5404,-3.55,-3.55,-3.55,-3.55,-3.5488,-3.5508,-3.5528,-3.5515,-3.5574,-3.5684,-3.5837,-3.5951,-3.6009,-3.6012,-3.6012,-3.6012,-3.5992,-3.5934,-3.5738,-3.5797,-3.5076,-3.4452,-3.416,-3.328,-3.2539,-3.213,-3.1797,-3.1641,-3.2148,-3.2286,-3.2288,-3.229,-3.2295,-3.2182,-3.1675,-3.1542,-3.1875,-4.5414,-4.5414,-4.5414,-4.5414,-4.5294,-4.3845,-4.2309,-4.0946,-4.0894,-4.0894,-4.086,-4.0491,-4.0567,-4.086,-4.0532,-4.0549,-4.0894,-4.0894,-4.067,-4.0198,-3.9479,-3.8698,-3.7996,-3.7215,-3.6646,-3.6301,-3.6284,-3.6284,-3.6215,-3.5621,-3.4918,-3.4146,-3.3224,-3.2687,-3.2593,-3.269,-3.2771,-3.2854,-3.3208,-3.3426,-3.3472,-3.2085,-3.1427,-3.1602,-2.9595,-2.8551,-2.8638,-2.8638,-2.8434,-2.7943,-2.8046,-2.8114,-2.8096,-2.7743,-2.7761,-2.8217,-2.8244,-2.8412,-2.8783,-2.9211,-2.9638,-3.0028,-3.1125,-3.1645,-3.1292,-3.2061,-3.2617,-3.2676,-3.3289,-3.3794,-3.3902,-3.4129,-3.4481,-3.4853,-3.4891,-3.5064,-3.5404,-3.55,-3.55,-3.55,-3.55,-3.55,-3.55,-3.55,-3.55,-3.5514,-3.5546,-3.5635,-3.5743,-3.5852,-3.5953,-3.5988,-3.6012,-3.6012,-3.6012,-3.6012,-3.6012,-3.6012,-3.568,-3.5232,-3.4842,-3.3886,-3.3202,-3.2286,-3.1719,-3.1485,-3.1524,-3.143,-3.1431,-3.1449,-3.1847,-3.1831,-3.1656,-3.1894,-3.2539,-4.5414,-4.5414,-4.5414,-4.5207,-4.4803,-4.35,-4.2154,-4.0946,-4.0894,-4.0894,-4.0894,-4.0894,-4.0894,-4.0894,-4.0894,-4.0894,-4.0894,-4.0894,-4.048,-3.9664,-3.8939,-3.822,-3.7478,-3.668,-3.6284,-3.6284,-3.6284,-3.6284,-3.6197,-3.5542,-3.4734,-3.3842,-3.2678,-3.2196,-3.2406,-3.2472,-3.2589,-3.274,-3.2896,-3.2975,-3.2931,-3.1746,-3.112,-3.1035,-2.9673,-2.891,-2.9033,-2.9067,-2.8776,-2.8158,-2.8241,-2.8334,-2.8393,-2.8393,-2.869,-2.9314,-2.9388,-2.9489,-2.9704,-3.0418,-3.0864,-3.0902,-3.1608,-3.2061,-3.2128,-3.2816,-3.3003,-3.2537,-3.3278,-3.3941,-3.4192,-3.4856,-3.5446,-3.5474,-3.55,-3.5462,-3.55,-3.55,-3.55,-3.55,-3.55,-3.55,-3.55,-3.55,-3.55,-3.5501,-3.5565,-3.5602,-3.5629,-3.5768,-3.5864,-3.5921,-3.5962,-3.5991,-3.6012,-3.6012,-3.6012,-3.6012,-3.5992,-3.568,-3.5154,-3.4881,-3.4139,-3.2792,-3.2208,-3.1738,-3.1016,-3.0862,-3.1001,-3.1215,-3.1748,-3.2143,-3.2399,-3.3065,-3.3516,-4.5414,-4.5414,-4.5414,-4.463,-4.3414,-4.2516,-4.1671,-4.0963,-4.0894,-4.0894,-4.0894,-4.0894,-4.0894,-4.0894,-4.0894,-4.0894,-4.0894,-4.0894,-4.0463,-3.9669,-3.8939,-3.822,-3.7443,-3.6663,-3.6284,-3.6284,-3.6284,-3.6266,-3.618,-3.5473,-3.4498,-3.3263,-3.2454,-3.2214,-3.2371,-3.2353,-3.2404,-3.2524,-3.2438,-3.2316,-3.2141,-3.1303,-3.0613,-3.0118,-2.9457,-2.898,-2.8851,-2.8991,-2.9052,-2.8997,-2.8972,-2.9089,-2.9227,-2.9266,-2.9285,-2.9388,-2.9396,-2.9694,-3.0437,-3.1236,-3.1701,-3.1756,-3.2444,-3.289,-3.2915,-3.3603,-3.3763,-3.3275,-3.3896,-3.4494,-3.4785,-3.5069,-3.5289,-3.5465,-3.5467,-3.55,-3.55,-3.55,-3.55,-3.55,-3.55,-3.55,-3.55,-3.55,-3.55,-3.55,-3.5547,-3.5604,-3.5615,-3.5674,-3.5729,-3.5767,-3.5877,-3.5985,-3.5986,-3.6012,-3.6007,-3.6009,-3.6012,-3.5895,-3.566,-3.5154,-3.4354,-3.3573,-3.2656,-3.1934,-3.1211,-3.0841,-3.1136,-3.1684,-3.2078,-3.2433,-3.3122,-3.3982,-3.4294,-4.5414,-4.5414,-4.5414,-4.4561,-4.3172,-4.2344,-4.1585,-4.0929,-4.0894,-4.0894,-4.0894,-4.0894,-4.0894,-4.0894,-4.0894,-4.0894,-4.0894,-4.0894,-4.0239,-3.9094,-3.8715,-3.7978,-3.6818,-3.6473,-3.6284,-3.6284,-3.6284,-3.6059,-3.5508,-3.4438,-3.3544,-3.2961,-3.2273,-3.2,-3.2108,-3.2144,-3.2232,-3.2284,-3.1862,-3.1396,-3.0891,-3.0644,-3.0252,-2.9705,-2.8954,-2.86,-2.8614,-2.8706,-2.8743,-2.8773,-2.8975,-2.9141,-2.9218,-2.9326,-2.9388,-2.9415,-2.9842,-3.0456,-3.1255,-3.2072,-3.2518,-3.2518,-3.3262,-3.3714,-3.3696,-3.4011,-3.403,-3.3861,-3.4263,-3.4636,-3.473,-3.4889,-3.5098,-3.5266,-3.5324,-3.538,-3.5493,-3.55,-3.55,-3.55,-3.55,-3.55,-3.55,-3.55,-3.55,-3.5481,-3.5522,-3.5534,-3.554,-3.5602,-3.5626,-3.565,-3.5749,-3.582,-3.5836,-3.5904,-3.5936,-3.5945,-3.598,-3.6012,-3.5931,-3.5778,-3.5172,-3.4294,-3.3433,-3.2574,-3.1758,-3.1582,-3.174,-3.2288,-3.3229,-3.3896,-3.4761,-3.5192,-3.5213,-4.5414,-4.5345,-4.4983,-4.4165,-4.312,-4.212,-4.1412,-4.0946,-4.0894,-4.0894,-4.0894,-4.0894,-4.0894,-4.0894,-4.0894,-4.0894,-4.0894,-4.0894,-4.0066,-3.8715,-3.8594,-3.7767,-3.6404,-3.6284,-3.6284,-3.6284,-3.6284,-3.5904,-3.5128,-3.3904,-3.3128,-3.2835,-3.2162,-3.1838,-3.1912,-3.2001,-3.2055,-3.2039,-3.1411,-3.0693,-3.0025,-2.9873,-2.9612,-2.9104,-2.8563,-2.8318,-2.8406,-2.8484,-2.851,-2.8523,-2.8798,-2.8987,-2.9089,-2.924,-2.9326,-2.9489,-3.0363,-3.1162,-3.1764,-3.276,-3.3324,-3.3373,-3.3881,-3.4216,-3.4216,-3.4216,-3.4216,-3.4191,-3.4374,-3.4495,-3.4623,-3.473,-3.4889,-3.5089,-3.5149,-3.5258,-3.5383,-3.5446,-3.55,-3.55,-3.55,-3.55,-3.55,-3.55,-3.55,-3.5481,-3.5481,-3.55,-3.5514,-3.5534,-3.5575,-3.5581,-3.5609,-3.566,-3.5689,-3.5767,-3.584,-3.5849,-3.5897,-3.5912,-3.5921,-3.5901,-3.5609,-3.4469,-3.3984,-3.3432,-3.2652,-3.2423,-3.2609,-3.3025,-3.3948,-3.5083,-3.5638,-3.5933,-3.5955,-4.5414,-4.5207,-4.3871,-4.331,-4.3086,-4.1619,-4.0963,-4.0894,-4.0894,-4.0894,-4.0894,-4.0894,-4.0894,-4.0894,-4.086,-4.0894,-4.0894,-4.086,-4.0049,-3.8681,-3.856,-3.7767,-3.6353,-3.6284,-3.6284,-3.6284,-3.6284,-3.5887,-3.5128,-3.4372,-3.3645,-3.285,-3.2145,-3.1838,-3.1858,-3.1856,-3.1839,-3.186,-3.1096,-3.037,-2.9642,-2.9094,-2.8561,-2.8174,-2.8259,-2.8327,-2.8264,-2.8406,-2.8497,-2.851,-2.8531,-2.8706,-2.9033,-2.91,-2.9207,-2.9543,-3.0864,-3.1756,-3.2017,-3.325,-3.4086,-3.4104,-3.4141,-3.4216,-3.4216,-3.4216,-3.4216,-3.4216,-3.4221,-3.4347,-3.4528,-3.4572,-3.468,-3.4879,-3.5081,-3.5176,-3.5207,-3.5395,-3.5474,-3.55,-3.55,-3.55,-3.55,-3.55,-3.55,-3.55,-3.55,-3.55,-3.5507,-3.5514,-3.5508,-3.5508,-3.5515,-3.5572,-3.5669,-3.5713,-3.5717,-3.5733,-3.5745,-3.5729,-3.5714,-3.5609,-3.517,-3.4769,-3.4399,-3.3975,-3.346,-3.3402,-3.3709,-3.4191,-3.4908,-3.5797,-3.5889,-3.5965,-3.5967,-4.5414,-4.5259,-4.3828,-4.3207,-4.3034,-4.155,-4.0894,-4.0894,-4.0894,-4.0894,-4.0894,-4.0894,-4.0894,-4.0894,-4.0377,-4.0429,-4.0808,-4.0353,-3.956,-3.8612,-3.8134,-3.7301,-3.6387,-3.6284,-3.6284,-3.6284,-3.6284,-3.568,-3.4527,-3.3714,-3.2938,-3.2283,-3.1938,-3.1801,-3.1819,-3.1801,-3.1818,-3.1717,-3.061,-2.9799,-2.9471,-2.8445,-2.7805,-2.7694,-2.8025,-2.8209,-2.8196,-2.8277,-2.83,-2.83,-2.8414,-2.8556,-2.8718,-2.8964,-2.9418,-3.0174,-3.118,-3.2035,-3.26,-3.3584,-3.4216,-3.4216,-3.4216,-3.4216,-3.4216,-3.4216,-3.4216,-3.4216,-3.4216,-3.4257,-3.4305,-3.434,-3.4431,-3.4668,-3.4781,-3.4917,-3.5132,-3.5266,-3.5346,-3.5472,-3.55,-3.55,-3.55,-3.55,-3.55,-3.55,-3.55,-3.55,-3.55,-3.55,-3.55,-3.55,-3.5488,-3.5515,-3.5553,-3.5604,-3.5631,-3.565,-3.5664,-3.5685,-3.5689,-3.5696,-3.5351,-3.5187,-3.4853,-3.4473,-3.3999,-3.4062,-3.4455,-3.5003,-3.5752,-3.5788,-3.5808,-3.5838,-3.5864,-4.5414,-4.5156,-4.3785,-4.3207,-4.3017,-4.155,-4.0894,-4.0894,-4.0894,-4.0894,-4.0894,-4.0894,-4.0894,-4.0774,-4.0066,-3.9957,-4.0388,-3.9698,-3.8962,-3.8232,-3.7737,-3.7098,-3.6404,-3.6284,-3.6284,-3.6284,-3.6284,-3.5542,-3.4217,-3.3559,-3.2783,-3.1852,-3.18,-3.18,-3.18,-3.18,-3.18,-3.1524,-3.0282,-2.9506,-2.9317,-2.8139,-2.7438,-2.7526,-2.781,-2.8011,-2.8126,-2.8154,-2.8186,-2.8209,-2.8327,-2.8432,-2.8518,-2.9131,-2.9783,-3.0506,-3.1574,-3.2407,-3.2971,-3.3751,-3.4216,-3.4216,-3.4216,-3.4216,-3.4216,-3.4216,-3.4216,-3.4216,-3.4216,-3.4216,-3.4216,-3.4228,-3.4269,-3.4461,-3.4539,-3.4711,-3.5035,-3.5149,-3.5281,-3.5446,-3.55,-3.55,-3.55,-3.55,-3.55,-3.55,-3.55,-3.55,-3.55,-3.55,-3.55,-3.55,-3.55,-3.5481,-3.5521,-3.5553,-3.557,-3.5568,-3.559,-3.5616,-3.5645,-3.5641,-3.5621,-3.5514,-3.5282,-3.4923,-3.4768,-3.4799,-3.5122,-3.5588,-3.5722,-3.5739,-3.5728,-3.5725,-3.5746,-4.5397,-4.5121,-4.3785,-4.3155,-4.2896,-4.1516,-4.0894,-4.0894,-4.0894,-4.0894,-4.0894,-4.0894,-4.086,-4.067,-3.9922,-3.9646,-3.9439,-3.8784,-3.8163,-3.7616,-3.7478,-3.6991,-3.6318,-3.6284,-3.6284,-3.6284,-3.6284,-3.5525,-3.4165,-3.3975,-3.3248,-3.2041,-3.18,-3.18,-3.18,-3.18,-3.18,-3.1507,-3.0351,-2.9592,-2.9351,-2.8192,-2.7492,-2.7498,-2.7612,-2.7774,-2.7986,-2.8056,-2.8126,-2.8182,-2.8213,-2.8304,-2.8626,-2.9527,-3.0256,-3.0554,-3.1969,-3.2885,-3.3064,-3.3733,-3.4216,-3.4216,-3.4216,-3.4216,-3.4216,-3.4216,-3.4216,-3.4216,-3.4216,-3.4216,-3.4216,-3.4216,-3.4209,-3.4233,-3.4409,-3.4628,-3.4851,-3.5081,-3.5266,-3.5432,-3.5486,-3.55,-3.55,-3.55,-3.55,-3.55,-3.55,-3.55,-3.55,-3.55,-3.55,-3.55,-3.55,-3.55,-3.55,-3.5488,-3.5488,-3.5501,-3.5502,-3.5528,-3.5553,-3.5559,-3.5571,-3.5488,-3.5475,-3.5178,-3.5184,-3.5222,-3.5301,-3.5645,-3.5678,-3.5674,-3.566,-3.564,-3.5685,-4.5113,-4.4544,-4.3603,-4.2861,-4.2292,-4.1326,-4.0894,-4.0894,-4.0894,-4.0894,-4.0894,-4.0894,-4.0601,-3.9991,-3.9284,-3.8681,-3.8129,-3.7387,-3.7163,-3.7374,-3.6922,-3.6577,-3.6335,-3.6284,-3.6284,-3.6284,-3.6284,-3.5542,-3.4337,-3.4096,-3.3317,-3.2076,-3.18,-3.18,-3.18,-3.18,-3.18,-3.1679,-3.0834,-3.0075,-2.9489,-2.8574,-2.7864,-2.7428,-2.7452,-2.7559,-2.7679,-2.794,-2.8126,-2.8182,-2.8196,-2.8273,-2.8624,-2.9381,-2.9989,-3.0428,-3.1863,-3.2859,-3.3071,-3.3726,-3.4216,-3.4216,-3.4216,-3.4216,-3.4216,-3.4216,-3.4216,-3.4216,-3.4216,-3.4216,-3.4216,-3.4216,-3.4216,-3.4216,-3.4281,-3.4431,-3.468,-3.5001,-3.5182,-3.5281,-3.5417,-3.5493,-3.55,-3.55,-3.55,-3.55,-3.55,-3.55,-3.55,-3.55,-3.55,-3.55,-3.55,-3.55,-3.55,-3.55,-3.55,-3.55,-3.55,-3.55,-3.55,-3.55,-3.55,-3.55,-3.55,-3.5501,-3.5534,-3.5559,-3.5574,-3.5581,-3.557,-3.5558,-3.5552,-3.5574,-3.5614,-4.4716,-4.4207,-4.3189,-4.2482,-4.193,-4.1205,-4.0894,-4.0894,-4.0894,-4.0894,-4.0894,-4.0894,-4.0612,-3.9991,-3.906,-3.8353,-3.7784,-3.6818,-3.6559,-3.6939,-3.6594,-3.6301,-3.6284,-3.6284,-3.6284,-3.6284,-3.6284,-3.5525,-3.4165,-3.4044,-3.3337,-3.2041,-3.18,-3.18,-3.18,-3.18,-3.18,-3.1696,-3.1076,-3.0437,-2.9851,-2.892,-2.8161,-2.7763,-2.7516,-2.7438,-2.7511,-2.778,-2.7954,-2.8039,-2.8053,-2.8119,-2.8327,-2.935,-3.0184,-3.0737,-3.2058,-3.3222,-3.3383,-3.3882,-3.4216,-3.4216,-3.4216,-3.4216,-3.4216,-3.4216,-3.4216,-3.4216,-3.4216,-3.4216,-3.4216,-3.4216,-3.4216,-3.4216,-3.4209,-3.4316,-3.4583,-3.4879,-3.5107,-3.5182,-3.5297,-3.5391,-3.5467,-3.55,-3.55,-3.55,-3.55,-3.55,-3.55,-3.55,-3.55,-3.55,-3.55,-3.55,-3.55,-3.55,-3.55,-3.55,-3.55,-3.55,-3.55,-3.55,-3.55,-3.55,-3.55,-3.55,-3.5528,-3.5515,-3.5522,-3.5488,-3.55,-3.5508,-3.5522,-3.5509,-3.554,-4.4259,-4.4,-4.262,-4.1999,-4.1826,-4.117,-4.0894,-4.0894,-4.0894,-4.0894,-4.0894,-4.0894,-4.0825,-4.0463,-3.9181,-3.8513,-3.8232,-3.6956,-3.6318,-3.6387,-3.6284,-3.6284,-3.6284,-3.6284,-3.6284,-3.6284,-3.6284,-3.5508,-3.4148,-3.4079,-3.33,-3.1938,-3.18,-3.18,-3.18,-3.18,-3.18,-3.1696,-3.1127,-3.08,-3.0575,-2.9386,-2.8541,-2.8454,-2.7881,-2.7579,-2.7656,-2.7644,-2.7674,-2.7774,-2.7924,-2.8009,-2.8246,-2.9679,-3.0747,-3.093,-3.2739,-3.351,-3.3813,-3.3924,-3.4111,-3.408,-3.4136,-3.4185,-3.4173,-3.4161,-3.4161,-3.4161,-3.4173,-3.4173,-3.4185,-3.4173,-3.4173,-3.4185,-3.4185,-3.4316,-3.4539,-3.4761,-3.4917,-3.5081,-3.5185,-3.525,-3.5424,-3.5446,-3.546,-3.55,-3.55,-3.55,-3.55,-3.55,-3.55,-3.55,-3.55,-3.55,-3.55,-3.55,-3.55,-3.55,-3.55,-3.55,-3.55,-3.55,-3.55,-3.55,-3.55,-3.55,-3.55,-3.55,-3.55,-3.55,-3.55,-3.55,-3.55,-3.55,-3.5488,-4.3638,-4.2585,-4.2171,-4.1705,-4.1222,-4.0963,-4.0894,-4.0894,-4.0894,-4.0894,-4.0894,-4.0894,-4.0567,-3.9963,-3.906,-3.8341,-3.7698,-3.6801,-3.6284,-3.6284,-3.6284,-3.6284,-3.6284,-3.6284,-3.6284,-3.6284,-3.6249,-3.5525,-3.4199,-3.4096,-3.3266,-3.1852,-3.18,-3.18,-3.18,-3.18,-3.18,-3.18,-3.1645,-3.1214,-3.0713,-3.0317,-2.9799,-2.9179,-2.8523,-2.8175,-2.8121,-2.77,-2.7542,-2.7768,-2.8328,-2.8627,-2.8734,-3.0145,-3.1082,-3.1426,-3.2294,-3.3087,-3.3281,-3.3538,-3.368,-3.3725,-3.3954,-3.4061,-3.4049,-3.4061,-3.4049,-3.4049,-3.4061,-3.4074,-3.4111,-3.4086,-3.4105,-3.4124,-3.4161,-3.4203,-3.434,-3.4509,-3.471,-3.4761,-3.4898,-3.5063,-3.5218,-3.5273,-3.5339,-3.5439,-3.5467,-3.5481,-3.5474,-3.55,-3.55,-3.55,-3.55,-3.55,-3.55,-3.55,-3.55,-3.55,-3.55,-3.55,-3.55,-3.55,-3.55,-3.55,-3.55,-3.55,-3.55,-3.55,-3.55,-3.55,-3.55,-3.55,-3.55,-3.55,-3.55,-4.281,-4.1981,-4.1671,-4.1291,-4.0929,-4.0894,-4.0894,-4.0894,-4.0894,-4.0894,-4.0825,-4.0491,-4.0319,-4.0118,-3.9077,-3.841,-3.787,-3.7146,-3.6628,-3.6284,-3.6284,-3.6284,-3.6284,-3.6284,-3.6284,-3.6284,-3.6284,-3.5439,-3.4337,-3.4096,-3.3231,-3.2059,-3.18,-3.18,-3.18,-3.18,-3.18,-3.18,-3.18,-3.1558,-3.1197,-3.0852,-3.0489,-2.992,-2.9282,-2.8851,-2.8799,-2.847,-2.822,-2.8173,-2.8464,-2.8863,-2.9282,-3.0379,-3.1144,-3.1359,-3.2194,-3.2811,-3.3072,-3.3357,-3.3556,-3.3711,-3.3902,-3.3967,-3.4011,-3.3998,-3.3998,-3.4011,-3.3998,-3.4023,-3.4036,-3.4023,-3.4023,-3.4049,-3.4117,-3.4136,-3.4216,-3.4347,-3.4484,-3.4583,-3.471,-3.4841,-3.5046,-3.5072,-3.5166,-3.5297,-3.5354,-3.5398,-3.5467,-3.5474,-3.55,-3.55,-3.55,-3.55,-3.55,-3.55,-3.55,-3.55,-3.55,-3.55,-3.55,-3.55,-3.55,-3.55,-3.55,-3.55,-3.55,-3.55,-3.55,-3.55,-3.55,-3.55,-3.55,-3.55,-3.55,-4.1981,-4.1843,-4.117,-4.0894,-4.0894,-4.0894,-4.0894,-4.0894,-4.0894,-4.0894,-4.0774,-4.017,-4.0233,-4.0687,-3.9186,-3.8525,-3.8375,-3.7478,-3.6904,-3.6456,-3.6284,-3.6284,-3.6284,-3.6284,-3.6284,-3.6284,-3.6284,-3.5525,-3.4596,-3.4217,-3.3317,-3.2283,-3.1903,-3.18,-3.18,-3.18,-3.18,-3.18,-3.18,-3.1783,-3.1593,-3.1196,-3.0903,-3.0731,-3.0058,-2.9541,-2.9455,-2.9351,-2.9178,-2.8695,-2.8676,-2.9176,-2.9798,-3.0543,-3.1046,-3.1323,-3.2051,-3.2685,-3.3047,-3.3225,-3.3528,-3.377,-3.3889,-3.3985,-3.3996,-3.4076,-3.4162,-3.3965,-3.4046,-3.4107,-3.3972,-3.3972,-3.4114,-3.4207,-3.422,-3.4197,-3.426,-3.4241,-3.4281,-3.4525,-3.455,-3.4639,-3.4782,-3.4898,-3.4936,-3.5124,-3.5174,-3.525,-3.5339,-3.5376,-3.5439,-3.55,-3.55,-3.55,-3.55,-3.55,-3.55,-3.55,-3.55,-3.55,-3.55,-3.55,-3.55,-3.55,-3.55,-3.55,-3.55,-3.55,-3.55,-3.55,-3.55,-3.55,-3.55,-3.55,-3.55,-4.1671,-4.1119,-4.0963,-4.0894,-4.0894,-4.0894,-4.0894,-4.0894,-4.0894,-4.0894,-4.0843,-4.0687,-4.0377,-3.9939,-3.9026,-3.8306,-3.7732,-3.7008,-3.6439,-3.6353,-3.6284,-3.6284,-3.6284,-3.6284,-3.6284,-3.6284,-3.6284,-3.5783,-3.5007,-3.4303,-3.3611,-3.2731,-3.2041,-3.18,-3.18,-3.18,-3.18,-3.18,-3.18,-3.18,-3.18,-3.1645,-3.1489,-3.142,-3.0817,-3.0144,-2.9627,-2.9506,-2.9713,-3.0076,-3.0179,-3.0248,-3.0559,-3.1165,-3.1546,-3.1616,-3.181,-3.2162,-3.247,-3.2811,-3.3105,-3.3465,-3.3689,-3.3847,-3.3902,-3.438,-3.4361,-3.4178,-3.438,-3.4448,-3.4168,-3.3968,-3.4331,-3.4773,-3.4921,-3.4961,-3.4947,-3.4512,-3.4296,-3.4257,-3.4305,-3.4374,-3.4626,-3.4658,-3.4742,-3.4908,-3.501,-3.5063,-3.5168,-3.525,-3.5297,-3.5361,-3.5432,-3.5424,-3.5439,-3.5453,-3.55,-3.55,-3.55,-3.55,-3.55,-3.55,-3.55,-3.55,-3.55,-3.55,-3.55,-3.55,-3.55,-3.55,-3.55,-3.55,-3.55,-3.55,-3.55,-4.1274,-4.0912,-4.0894,-4.0894,-4.0894,-4.0894,-4.0894,-4.0894,-4.0894,-4.0894,-4.0808,-4.0526,-4.0101,-3.9646,-3.8922,-3.818,-3.7461,-3.6663,-3.6301,-3.6284,-3.6284,-3.6284,-3.6284,-3.6284,-3.6284,-3.6284,-3.6284,-3.587,-3.518,-3.4476,-3.3699,-3.2904,-3.2145,-3.1834,-3.18,-3.18,-3.18,-3.18,-3.18,-3.18,-3.18,-3.18,-3.18,-3.1783,-3.142,-3.0972,-3.0662,-3.0627,-3.0817,-3.1093,-3.1196,-3.1196,-3.1231,-3.1558,-3.1765,-3.18,-3.18,-3.1965,-3.2283,-3.2469,-3.2781,-3.3262,-3.3465,-3.3638,-3.3803,-3.4215,-3.4454,-3.4454,-3.4729,-3.4912,-3.4963,-3.5028,-3.5349,-3.5533,-3.5717,-3.5745,-3.5685,-3.5143,-3.4481,-3.4303,-3.4161,-3.4245,-3.4351,-3.442,-3.455,-3.4701,-3.4761,-3.4831,-3.4982,-3.5063,-3.5089,-3.5149,-3.5273,-3.5339,-3.538,-3.5417,-3.5481,-3.55,-3.55,-3.55,-3.55,-3.55,-3.55,-3.55,-3.55,-3.55,-3.55,-3.55,-3.55,-3.55,-3.55,-3.55,-3.55,-3.55,-3.55,-4.0894,-4.0894,-4.0894,-4.0894,-4.0894,-4.0894,-4.0894,-4.0894,-4.0894,-4.0894,-4.0756,-4.0043,-3.9698,-3.937,-3.8698,-3.7991,-3.7267,-3.6697,-3.6284,-3.6284,-3.6284,-3.6284,-3.6284,-3.6284,-3.6284,-3.6284,-3.6284,-3.5904,-3.5352,-3.4545,-3.3837,-3.3041,-3.2179,-3.1852,-3.18,-3.18,-3.18,-3.18,-3.18,-3.18,-3.18,-3.18,-3.18,-3.1783,-3.1748,-3.1679,-3.1558,-3.1593,-3.1714,-3.18,-3.18,-3.18,-3.18,-3.18,-3.18,-3.18,-3.18,-3.1965,-3.2214,-3.2352,-3.2603,-3.3187,-3.3306,-3.3437,-3.3657,-3.4023,-3.4435,-3.4821,-3.5169,-3.555,-3.6174,-3.6079,-3.6207,-3.6446,-3.6483,-3.6497,-3.6444,-3.5966,-3.5407,-3.4561,-3.4506,-3.4581,-3.4346,-3.4257,-3.4381,-3.4484,-3.4536,-3.4604,-3.4771,-3.4879,-3.4889,-3.4954,-3.5098,-3.516,-3.5176,-3.53,-3.5376,-3.5405,-3.5432,-3.546,-3.5467,-3.55,-3.55,-3.55,-3.55,-3.55,-3.55,-3.55,-3.55,-3.55,-3.55,-3.55,-3.55,-3.55,-3.55,-4.0894,-4.0894,-4.0894,-4.0894,-4.0894,-4.0894,-4.0894,-4.0894,-4.0894,-4.0894,-4.0756,-4.0043,-3.9353,-3.8715,-3.803,-3.7249,-3.6697,-3.6353,-3.6284,-3.6284,-3.6284,-3.6284,-3.6284,-3.6284,-3.6284,-3.6284,-3.6284,-3.6163,-3.5766,-3.4838,-3.4162,-3.3647,-3.2524,-3.1886,-3.1886,-3.18,-3.18,-3.18,-3.18,-3.18,-3.18,-3.18,-3.18,-3.18,-3.18,-3.18,-3.18,-3.18,-3.18,-3.18,-3.18,-3.18,-3.18,-3.18,-3.18,-3.18,-3.18,-3.193,-3.2179,-3.2283,-3.2487,-3.2844,-3.3078,-3.3298,-3.359,-3.4227,-3.4765,-3.5279,-3.5775,-3.6211,-3.6266,-3.6541,-3.674,-3.707,-3.7309,-3.729,-3.7287,-3.7095,-3.6513,-3.5486,-3.5238,-3.492,-3.4624,-3.4309,-3.4264,-3.4335,-3.4358,-3.4439,-3.4583,-3.4678,-3.4701,-3.4802,-3.4936,-3.4955,-3.4964,-3.5107,-3.5234,-3.5266,-3.5297,-3.5376,-3.5417,-3.5467,-3.5481,-3.5439,-3.546,-3.55,-3.55,-3.55,-3.55,-3.55,-3.55,-3.55,-3.55,-3.55,-3.55,-4.0894,-4.0894,-4.0894,-4.0894,-4.0894,-4.0894,-4.0894,-4.0894,-4.0894,-4.067,-4.0273,-3.9819,-3.906,-3.8185,-3.7719,-3.7064,-3.6473,-3.6284,-3.6284,-3.6284,-3.6284,-3.6284,-3.6284,-3.6284,-3.6284,-3.6284,-3.6284,-3.6284,-3.618,-3.5252,-3.4663,-3.4337,-3.3128,-3.2386,-3.2265,-3.199,-3.1852,-3.18,-3.18,-3.18,-3.18,-3.18,-3.18,-3.18,-3.18,-3.18,-3.18,-3.18,-3.18,-3.18,-3.18,-3.18,-3.18,-3.18,-3.18,-3.18,-3.18,-3.1856,-3.2002,-3.2055,-3.2179,-3.2486,-3.2734,-3.3126,-3.3638,-3.435,-3.5232,-3.6186,-3.6986,-3.7533,-3.7606,-3.7477,-3.7753,-3.7988,-3.8098,-3.8083,-3.8102,-3.8083,-3.7408,-3.6435,-3.574,-3.5291,-3.4938,-3.4624,-3.429,-3.4204,-3.4216,-3.43,-3.4416,-3.4461,-3.4509,-3.4564,-3.468,-3.4772,-3.4792,-3.4917,-3.5027,-3.5081,-3.5141,-3.5234,-3.5258,-3.5289,-3.5312,-3.5304,-3.5361,-3.5453,-3.55,-3.55,-3.55,-3.55,-3.55,-3.55,-3.55,-3.55,-3.55,-4.0894,-4.0894,-4.0894,-4.0894,-4.0894,-4.0894,-4.0894,-4.0894,-4.0894,-4.048,-3.9733,-3.9457,-3.8715,-3.7715,-3.7249,-3.687,-3.6284,-3.6284,-3.6284,-3.6284,-3.6284,-3.6284,-3.6284,-3.6284,-3.6284,-3.6284,-3.6284,-3.6284,-3.6163,-3.5473,-3.5145,-3.4507,-3.3473,-3.2783,-3.2507,-3.2007,-3.1834,-3.18,-3.18,-3.18,-3.18,-3.18,-3.18,-3.18,-3.18,-3.18,-3.18,-3.18,-3.18,-3.18,-3.18,-3.18,-3.18,-3.18,-3.18,-3.18,-3.18,-3.18,-3.1818,-3.1837,-3.2052,-3.2494,-3.2529,-3.3124,-3.3997,-3.4859,-3.5742,-3.7159,-3.8105,-3.8524,-3.845,-3.8615,-3.8634,-3.8634,-3.8634,-3.867,-3.8615,-3.8505,-3.8322,-3.7375,-3.6338,-3.5657,-3.5309,-3.4988,-3.4661,-3.4179,-3.4173,-3.4216,-3.4311,-3.4288,-3.4305,-3.4316,-3.4409,-3.4553,-3.4639,-3.4751,-3.4812,-3.4841,-3.4945,-3.5037,-3.5054,-3.5063,-3.5107,-3.5174,-3.5281,-3.5369,-3.5439,-3.5481,-3.55,-3.55,-3.55,-3.55,-3.55,-3.55,-3.55,-4.0894,-4.0894,-4.0894,-4.0894,-4.0894,-4.0894,-4.0894,-4.086,-4.0825,-4.0463,-3.9457,-3.8974,-3.8254,-3.7461,-3.6749,-3.6439,-3.6318,-3.6284,-3.6284,-3.6284,-3.6284,-3.6284,-3.6284,-3.6284,-3.6284,-3.6284,-3.6284,-3.6284,-3.6163,-3.5594,-3.4956,-3.4369,-3.3714,-3.2731,-3.2576,-3.2162,-3.18,-3.1817,-3.1817,-3.18,-3.18,-3.18,-3.18,-3.18,-3.18,-3.18,-3.18,-3.18,-3.18,-3.18,-3.18,-3.18,-3.18,-3.18,-3.18,-3.18,-3.18,-3.18,-3.18,-3.1817,-3.2112,-3.2641,-3.298,-3.3668,-3.4571,-3.5701,-3.6535,-3.6828,-3.7974,-3.859,-3.8627,-3.8692,-3.8707,-3.8707,-3.8707,-3.8707,-3.8707,-3.8689,-3.8524,-3.834,-3.7323,-3.6342,-3.5676,-3.5378,-3.5043,-3.4531,-3.4148,-3.4191,-3.4216,-3.4216,-3.4216,-3.4233,-3.4245,-3.4386,-3.4435,-3.4553,-3.4615,-3.4636,-3.471,-3.4821,-3.4812,-3.4812,-3.4982,-3.5081,-3.5193,-3.5308,-3.5376,-3.5439,-3.5467,-3.55,-3.55,-3.55,-3.55,-3.55,-3.55,-4.0894,-4.0894,-4.0894,-4.0894,-4.0894,-4.0894,-4.0636,-4.0267,-4.0221,-3.9543,-3.856,-3.8151,-3.7564,-3.687,-3.6404,-3.6301,-3.6284,-3.6284,-3.6284,-3.6284,-3.6284,-3.6284,-3.6284,-3.6284,-3.6284,-3.6284,-3.6284,-3.6284,-3.6146,-3.6008,-3.5614,-3.5214,-3.4576,-3.418,-3.3317,-3.2783,-3.2524,-3.2334,-3.2076,-3.1817,-3.18,-3.18,-3.18,-3.18,-3.18,-3.18,-3.18,-3.18,-3.18,-3.18,-3.18,-3.18,-3.18,-3.18,-3.18,-3.18,-3.18,-3.18,-3.18,-3.1817,-3.2265,-3.2716,-3.3178,-3.371,-3.502,-3.6199,-3.7041,-3.7254,-3.7901,-3.83,-3.8433,-3.858,-3.8676,-3.8707,-3.8707,-3.8707,-3.8707,-3.8707,-3.8634,-3.8524,-3.834,-3.736,-3.6397,-3.5805,-3.5494,-3.5084,-3.4586,-3.4346,-3.429,-3.4191,-3.4204,-3.4228,-3.4228,-3.4245,-3.4281,-3.4328,-3.4381,-3.4423,-3.4442,-3.4525,-3.452,-3.4577,-3.4743,-3.487,-3.4936,-3.5089,-3.5281,-3.5398,-3.5453,-3.5474,-3.55,-3.55,-3.55,-3.55,-3.55,-4.0894,-4.0894,-4.0894,-4.0894,-4.0894,-4.0894,-4.0463,-3.975,-3.9733,-3.8888,-3.7737,-3.7305,-3.6835,-3.6422,-3.6318,-3.6284,-3.6284,-3.6284,-3.6284,-3.6284,-3.6284,-3.6284,-3.6284,-3.6284,-3.6284,-3.6284,-3.6284,-3.6284,-3.6284,-3.6215,-3.6111,-3.6025,-3.5232,-3.4904,-3.4576,-3.38,-3.3128,-3.2748,-3.2127,-3.1834,-3.18,-3.18,-3.18,-3.18,-3.18,-3.18,-3.18,-3.18,-3.18,-3.18,-3.18,-3.18,-3.18,-3.18,-3.18,-3.18,-3.18,-3.1955,-3.2076,-3.2231,-3.2507,-3.3024,-3.3734,-3.4631,-3.5614,-3.6556,-3.6978,-3.7233,-3.7667,-3.7948,-3.8135,-3.8385,-3.853,-3.8627,-3.8707,-3.8707,-3.8707,-3.8707,-3.8707,-3.8634,-3.8524,-3.8395,-3.7452,-3.6489,-3.5957,-3.562,-3.5156,-3.4629,-3.4445,-3.4371,-3.421,-3.4222,-3.4253,-3.4253,-3.4284,-3.4265,-3.4284,-3.4383,-3.442,-3.4389,-3.4477,-3.4453,-3.4531,-3.4628,-3.4768,-3.4879,-3.5081,-3.5266,-3.5439,-3.5467,-3.55,-3.55,-3.55,-3.5474,-3.5467,-4.0894,-4.0894,-4.0894,-4.0894,-4.0894,-4.0894,-4.0422,-3.9595,-3.9646,-3.8784,-3.7392,-3.6784,-3.6439,-3.6301,-3.6284,-3.6284,-3.6284,-3.6284,-3.6284,-3.6284,-3.6284,-3.6284,-3.6284,-3.6284,-3.6284,-3.6284,-3.6284,-3.6284,-3.6284,-3.6284,-3.5887,-3.5335,-3.5473,-3.4852,-3.4507,-3.4286,-3.3507,-3.3007,-3.2265,-3.1886,-3.1834,-3.18,-3.18,-3.18,-3.18,-3.18,-3.18,-3.18,-3.18,-3.18,-3.18,-3.18,-3.18,-3.18,-3.18,-3.18,-3.1955,-3.2196,-3.2507,-3.2697,-3.3214,-3.4093,-3.501,-3.5683,-3.6139,-3.6599,-3.69,-3.6978,-3.7321,-3.765,-3.7896,-3.8153,-3.8269,-3.8465,-3.8562,-3.8627,-3.8643,-3.8707,-3.8707,-3.8707,-3.8634,-3.8524,-3.8414,-3.7434,-3.675,-3.6398,-3.5606,-3.5082,-3.4875,-3.4729,-3.4371,-3.4247,-3.4309,-3.4327,-3.4383,-3.4457,-3.4624,-3.4847,-3.4996,-3.4791,-3.4642,-3.4584,-3.468,-3.4611,-3.4789,-3.4835,-3.4851,-3.5,-3.5182,-3.5391,-3.546,-3.5361,-3.5346,-3.5312,-3.5361,-4.0894,-4.0894,-4.0894,-4.0894,-4.0894,-4.0894,-4.0187,-3.9129,-3.9008,-3.8185,-3.677,-3.6439,-3.6284,-3.6284,-3.6284,-3.6284,-3.6284,-3.6284,-3.6284,-3.6284,-3.6284,-3.6284,-3.6284,-3.6284,-3.6284,-3.6284,-3.6284,-3.6284,-3.6284,-3.6284,-3.6197,-3.5939,-3.5818,-3.5783,-3.5439,-3.4855,-3.4059,-3.3179,-3.2628,-3.2317,-3.1834,-3.18,-3.18,-3.18,-3.18,-3.18,-3.18,-3.18,-3.18,-3.18,-3.18,-3.1817,-3.1886,-3.1869,-3.1903,-3.199,-3.2265,-3.2662,-3.2904,-3.3059,-3.3455,-3.468,-3.5645,-3.6284,-3.6284,-3.6454,-3.6516,-3.6658,-3.69,-3.7246,-3.7321,-3.7596,-3.7843,-3.8168,-3.835,-3.8433,-3.8564,-3.8596,-3.8692,-3.8692,-3.8692,-3.8652,-3.856,-3.8377,-3.7749,-3.7173,-3.6311,-3.5606,-3.5475,-3.5232,-3.4901,-3.4748,-3.4829,-3.4946,-3.5039,-3.5052,-3.507,-3.5312,-3.559,-3.5479,-3.5312,-3.5138,-3.5175,-3.5011,-3.4778,-3.4772,-3.4779,-3.478,-3.4993,-3.5323,-3.5299,-3.5098,-3.5107,-3.5157,-3.5182,-4.0894,-4.0894,-4.0894,-4.0894,-4.0877,-4.0653,-3.9963,-3.8974,-3.8461,-3.756,-3.6301,-3.6284,-3.6284,-3.6284,-3.6284,-3.6284,-3.6284,-3.6284,-3.6284,-3.6284,-3.6284,-3.6284,-3.6284,-3.6284,-3.6284,-3.6284,-3.6284,-3.6284,-3.6284,-3.6284,-3.6249,-3.6232,-3.6284,-3.6215,-3.6059,-3.5542,-3.4628,-3.3818,-3.3007,-3.2748,-3.2179,-3.1903,-3.18,-3.18,-3.18,-3.18,-3.18,-3.18,-3.18,-3.18,-3.1834,-3.1938,-3.2041,-3.2162,-3.2248,-3.2541,-3.2904,-3.3283,-3.3507,-3.3714,-3.4197,-3.5404,-3.5904,-3.6249,-3.6284,-3.6284,-3.6346,-3.6346,-3.6577,-3.6761,-3.6858,-3.7208,-3.7487,-3.7808,-3.7913,-3.8017,-3.8285,-3.8417,-3.858,-3.8676,-3.8692,-3.8692,-3.867,-3.8579,-3.8358,-3.7786,-3.7136,-3.6564,-3.6381,-3.6053,-3.5594,-3.5504,-3.5556,-3.5694,-3.5831,-3.6023,-3.6185,-3.6092,-3.6333,-3.6408,-3.6278,-3.6036,-3.5659,-3.5355,-3.5094,-3.482,-3.4853,-3.5079,-3.5197,-3.5343,-3.5287,-3.523,-3.4982,-3.5028,-3.4992,-4.0894,-4.0894,-4.0894,-4.0894,-4.0825,-4.006,-3.9698,-3.925,-3.8082,-3.706,-3.6335,-3.6284,-3.6284,-3.6284,-3.6284,-3.6284,-3.6284,-3.6284,-3.6284,-3.6284,-3.6284,-3.6284,-3.6284,-3.6284,-3.6284,-3.6284,-3.6284,-3.6284,-3.6284,-3.6284,-3.6284,-3.6284,-3.6284,-3.6284,-3.6232,-3.5594,-3.5197,-3.4887,-3.3559,-3.3059,-3.2507,-3.2041,-3.1834,-3.18,-3.18,-3.18,-3.2007,-3.2024,-3.2041,-3.2024,-3.2007,-3.2162,-3.2455,-3.2541,-3.2886,-3.3593,-3.38,-3.4318,-3.499,-3.5076,-3.5456,-3.5939,-3.6232,-3.6266,-3.6284,-3.6284,-3.6284,-3.6305,-3.6367,-3.6536,-3.6721,-3.6919,-3.7152,-3.7359,-3.7487,-3.765,-3.793,-3.8118,-3.8236,-3.8451,-3.8596,-3.8692,-3.8692,-3.8689,-3.8689,-3.834,-3.786,-3.75,-3.7172,-3.6846,-3.6334,-3.6122,-3.6176,-3.6488,-3.6682,-3.7124,-3.7281,-3.7132,-3.697,-3.6957,-3.6994,-3.6864,-3.6395,-3.585,-3.5653,-3.5597,-3.5516,-3.5498,-3.5378,-3.5241,-3.5516,-3.5472,-3.5163,-3.4888,-3.4856,-4.0894,-4.0894,-4.0894,-4.0894,-4.086,-4.0636,-3.9963,-3.8801,-3.7439,-3.6559,-3.6353,-3.6284,-3.6284,-3.6284,-3.6284,-3.6284,-3.6284,-3.6284,-3.6284,-3.6284,-3.6284,-3.6284,-3.6284,-3.6284,-3.6284,-3.6284,-3.6284,-3.6284,-3.6284,-3.6284,-3.6284,-3.6284,-3.6284,-3.6284,-3.6266,-3.5904,-3.5576,-3.4594,-3.3818,-3.3266,-3.2317,-3.199,-3.1834,-3.1852,-3.1852,-3.2076,-3.249,-3.2541,-3.2541,-3.2507,-3.2507,-3.2472,-3.2455,-3.2403,-3.2679,-3.3369,-3.3731,-3.4697,-3.5508,-3.5921,-3.599,-3.6215,-3.6284,-3.6284,-3.6284,-3.6284,-3.6284,-3.6284,-3.6284,-3.6409,-3.6471,-3.6495,-3.6681,-3.698,-3.7133,-3.7339,-3.7542,-3.7685,-3.7809,-3.8085,-3.8303,-3.8499,-3.858,-3.8596,-3.8596,-3.8545,-3.8065,-3.7768,-3.7482,-3.7341,-3.7016,-3.6749,-3.6736,-3.7124,-3.7475,-3.7613,-3.802,-3.8108,-3.7654,-3.7243,-3.7312,-3.7548,-3.7344,-3.688,-3.6642,-3.6439,-3.6235,-3.5937,-3.5299,-3.5133,-3.539,-3.5492,-3.5169,-3.4881,-3.4708,-4.0894,-4.0877,-4.0601,-4.0498,-4.044,-4.0221,-3.9238,-3.7836,-3.6991,-3.6577,-3.6353,-3.6284,-3.6284,-3.6284,-3.6284,-3.6284,-3.6284,-3.6284,-3.6284,-3.6284,-3.6284,-3.6284,-3.6284,-3.6284,-3.6284,-3.6284,-3.6284,-3.6284,-3.6284,-3.6284,-3.6284,-3.6284,-3.6284,-3.6284,-3.6266,-3.6111,-3.5887,-3.5094,-3.4663,-3.3938,-3.3041,-3.2455,-3.2214,-3.2231,-3.2317,-3.2541,-3.3076,-3.33,-3.3283,-3.3231,-3.3041,-3.2869,-3.2559,-3.2645,-3.2955,-3.368,-3.4473,-3.5352,-3.6025,-3.6232,-3.6232,-3.6266,-3.6284,-3.6284,-3.6284,-3.6284,-3.6284,-3.6284,-3.6284,-3.6284,-3.6305,-3.6284,-3.6392,-3.6701,-3.6781,-3.6958,-3.717,-3.7283,-3.745,-3.7739,-3.7948,-3.8186,-3.8403,-3.8467,-3.8467,-3.8394,-3.8285,-3.8013,-3.7811,-3.7779,-3.7732,-3.7525,-3.7444,-3.7815,-3.7909,-3.7771,-3.8271,-3.8952,-3.8428,-3.7674,-3.8053,-3.8326,-3.8109,-3.7942,-3.7719,-3.7389,-3.6891,-3.6396,-3.5733,-3.5306,-3.5237,-3.5237,-3.512,-3.5064,-3.499,-4.0894,-4.0791,-4.0083,-3.9819,-3.9664,-3.9134,-3.787,-3.649,-3.7116,-3.6956,-3.6318,-3.6284,-3.6284,-3.6284,-3.6284,-3.6284,-3.6284,-3.6284,-3.6284,-3.6284,-3.6284,-3.6284,-3.6284,-3.6284,-3.6284,-3.6284,-3.6284,-3.6284,-3.6284,-3.6284,-3.6284,-3.6284,-3.6284,-3.6284,-3.6284,-3.6249,-3.6059,-3.5576,-3.5163,-3.4473,-3.3682,-3.3231,-3.3007,-3.2921,-3.2886,-3.3283,-3.3697,-3.3869,-3.3938,-3.38,-3.3438,-3.3576,-3.3749,-3.4061,-3.4562,-3.5114,-3.5732,-3.6094,-3.6249,-3.6284,-3.6284,-3.6284,-3.6284,-3.6284,-3.6284,-3.6284,-3.6284,-3.6284,-3.6284,-3.6284,-3.6284,-3.6284,-3.6305,-3.6371,-3.6371,-3.6577,-3.6818,-3.6978,-3.7132,-3.7339,-3.7523,-3.7738,-3.8,-3.8119,-3.8135,-3.8163,-3.8136,-3.8232,-3.8118,-3.8362,-3.8337,-3.8352,-3.836,-3.8571,-3.8468,-3.805,-3.8274,-3.8882,-3.8677,-3.8172,-3.8662,-3.8861,-3.8533,-3.8381,-3.8608,-3.8331,-3.757,-3.6816,-3.6105,-3.5789,-3.5683,-3.5553,-3.5609,-3.5677,-3.5696,-4.0894,-4.0877,-4.067,-4.0567,-4.0359,-3.9152,-3.8047,-3.7219,-3.6853,-3.6456,-3.6284,-3.6284,-3.6284,-3.6284,-3.6284,-3.6284,-3.6284,-3.6284,-3.6284,-3.6284,-3.6284,-3.6284,-3.6284,-3.6284,-3.6284,-3.6284,-3.6284,-3.6284,-3.6284,-3.6284,-3.6284,-3.6284,-3.6284,-3.6284,-3.6284,-3.6284,-3.6008,-3.5732,-3.5421,-3.4887,-3.4389,-3.3886,-3.3749,-3.368,-3.3317,-3.38,-3.449,-3.3955,-3.4042,-3.4594,-3.4093,-3.399,-3.399,-3.413,-3.4441,-3.5145,-3.5783,-3.6284,-3.6284,-3.6284,-3.6284,-3.6284,-3.6284,-3.6284,-3.6284,-3.6284,-3.6284,-3.6284,-3.6284,-3.6284,-3.6284,-3.6284,-3.6284,-3.6284,-3.6284,-3.6388,-3.6577,-3.6638,-3.6781,-3.6978,-3.717,-3.7377,-3.7632,-3.7667,-3.7721,-3.7809,-3.7931,-3.8068,-3.8252,-3.8467,-3.8658,-3.8673,-3.8704,-3.8747,-3.8538,-3.8158,-3.8423,-3.867,-3.8516,-3.8468,-3.8685,-3.8792,-3.8733,-3.8703,-3.8687,-3.8461,-3.8029,-3.7299,-3.6588,-3.6513,-3.6389,-3.6222,-3.611,-3.6272,-3.6495,-4.0894,-4.086,-4.0526,-4.0135,-3.937,-3.8232,-3.7404,-3.6978,-3.649,-3.6284,-3.6284,-3.6284,-3.6284,-3.6284,-3.6284,-3.6284,-3.6284,-3.6284,-3.6284,-3.6284,-3.6284,-3.6284,-3.6284,-3.6284,-3.6284,-3.6284,-3.6284,-3.6284,-3.6284,-3.6284,-3.6284,-3.6284,-3.6284,-3.6284,-3.6284,-3.6266,-3.6094,-3.587,-3.5576,-3.5163,-3.4818,-3.4542,-3.4545,-3.4441,-3.3938,-3.4559,-3.5318,-3.4404,-3.4818,-3.5283,-3.4749,-3.4283,-3.4387,-3.4596,-3.4907,-3.5576,-3.599,-3.6266,-3.6284,-3.6284,-3.6284,-3.6284,-3.6284,-3.6284,-3.6284,-3.6284,-3.6284,-3.6284,-3.6284,-3.6284,-3.6284,-3.6284,-3.6284,-3.6284,-3.6284,-3.6284,-3.6305,-3.6305,-3.6471,-3.6638,-3.6858,-3.7036,-3.717,-3.7209,-3.734,-3.756,-3.765,-3.7721,-3.793,-3.8152,-3.8483,-3.8676,-3.8689,-3.8686,-3.8459,-3.8327,-3.8519,-3.8659,-3.8574,-3.8578,-3.874,-3.8773,-3.8733,-3.8659,-3.8613,-3.8465,-3.841,-3.7801,-3.7206,-3.7169,-3.7169,-3.7095,-3.7039,-3.7095,-3.7373,-4.0894,-4.0843,-4.0008,-3.9008,-3.7616,-3.6887,-3.6473,-3.6284,-3.6301,-3.6284,-3.6284,-3.6284,-3.6284,-3.6284,-3.6284,-3.6284,-3.6284,-3.6284,-3.6284,-3.6284,-3.6284,-3.6284,-3.6284,-3.6284,-3.6284,-3.6284,-3.6284,-3.6284,-3.6284,-3.6284,-3.6284,-3.6284,-3.6284,-3.6284,-3.6284,-3.6284,-3.6197,-3.6128,-3.6042,-3.5835,-3.5456,-3.5283,-3.5283,-3.5249,-3.5214,-3.5439,-3.5973,-3.6128,-3.618,-3.5749,-3.5266,-3.4663,-3.5042,-3.5301,-3.5714,-3.5939,-3.6215,-3.6266,-3.6284,-3.6284,-3.6284,-3.6284,-3.6284,-3.6284,-3.6284,-3.6284,-3.6284,-3.6284,-3.6284,-3.6284,-3.6284,-3.6284,-3.6284,-3.6284,-3.6284,-3.6284,-3.6284,-3.6284,-3.6346,-3.6492,-3.6516,-3.6719,-3.6799,-3.686,-3.688,-3.7208,-3.7302,-3.7283,-3.7505,-3.7756,-3.8051,-3.8385,-3.8368,-3.835,-3.8476,-3.8397,-3.8563,-3.8649,-3.8579,-3.8624,-3.8728,-3.8732,-3.8735,-3.8711,-3.8718,-3.8853,-3.8729,-3.8234,-3.7941,-3.7986,-3.7986,-3.7986,-3.7968,-3.7949,-3.8061,-4.0894,-4.0825,-4.0026,-3.9146,-3.8267,-3.7547,-3.6818,-3.6301,-3.6284,-3.6284,-3.6284,-3.6284,-3.6284,-3.6284,-3.6284,-3.6284,-3.6284,-3.6284,-3.6284,-3.6284,-3.6284,-3.6284,-3.6284,-3.6284,-3.6284,-3.6284,-3.6284,-3.6284,-3.6284,-3.6284,-3.6284,-3.6284,-3.6284,-3.6284,-3.6284,-3.6284,-3.6284,-3.6284,-3.6249,-3.6215,-3.599,-3.599,-3.6025,-3.5835,-3.5749,-3.568,-3.5801,-3.5318,-3.5645,-3.5766,-3.5352,-3.5421,-3.5956,-3.599,-3.6111,-3.6266,-3.6284,-3.6284,-3.6284,-3.6284,-3.6284,-3.6284,-3.6284,-3.6284,-3.6284,-3.6284,-3.6284,-3.6284,-3.6284,-3.6284,-3.6284,-3.6284,-3.6284,-3.6284,-3.6284,-3.6284,-3.6284,-3.6284,-3.6284,-3.6284,-3.6284,-3.6346,-3.6451,-3.6492,-3.6512,-3.6553,-3.6574,-3.6638,-3.6919,-3.7171,-3.7358,-3.765,-3.7774,-3.7844,-3.8101,-3.8269,-3.8318,-3.8465,-3.846,-3.8575,-3.8689,-3.8735,-3.875,-3.8792,-3.8862,-3.8925,-3.8968,-3.89,-3.8702,-3.8614,-3.8604,-3.8498,-3.8599,-3.8618,-3.8711,-4.0894,-4.0756,-3.9664,-3.8784,-3.8047,-3.7305,-3.6697,-3.6335,-3.6284,-3.6284,-3.6284,-3.6284,-3.6284,-3.6284,-3.6284,-3.6284,-3.6284,-3.6284,-3.6284,-3.6284,-3.6284,-3.6284,-3.6284,-3.6284,-3.6284,-3.6284,-3.6284,-3.6284,-3.6284,-3.6284,-3.6284,-3.6284,-3.6284,-3.6284,-3.6284,-3.6284,-3.6284,-3.6284,-3.6284,-3.6284,-3.6284,-3.6284,-3.6284,-3.6094,-3.6042,-3.5973,-3.587,-3.5456,-3.5732,-3.6059,-3.5835,-3.5542,-3.587,-3.6025,-3.6215,-3.6284,-3.6284,-3.6284,-3.6284,-3.6284,-3.6284,-3.6284,-3.6284,-3.6284,-3.6284,-3.6284,-3.6284,-3.6284,-3.6284,-3.6284,-3.6284,-3.6284,-3.6284,-3.6284,-3.6284,-3.6284,-3.6284,-3.6284,-3.6284,-3.6284,-3.6284,-3.6305,-3.6367,-3.6367,-3.6388,-3.6388,-3.6322,-3.6322,-3.6536,-3.6701,-3.686,-3.6997,-3.7189,-3.7432,-3.7721,-3.7844,-3.7896,-3.8068,-3.8269,-3.8269,-3.8318,-3.8593,-3.8765,-3.8732,-3.8762,-3.8851,-3.8896,-3.8939,-3.8997,-3.8855,-3.892,-3.8971,-3.9073,-3.9087,-3.9045,-4.0825,-4.0549,-3.9198,-3.8185,-3.7443,-3.6646,-3.6301,-3.6284,-3.6284,-3.6284,-3.6284,-3.6284,-3.6284,-3.6284,-3.6284,-3.6284,-3.6284,-3.6284,-3.6284,-3.6284,-3.6284,-3.6284,-3.6284,-3.6284,-3.6284,-3.6284,-3.6284,-3.6284,-3.6284,-3.6284,-3.6284,-3.6284,-3.6284,-3.6284,-3.6284,-3.6284,-3.6284,-3.6284,-3.6284,-3.6284,-3.6284,-3.6284,-3.6284,-3.6284,-3.6284,-3.6284,-3.6284,-3.6284,-3.6284,-3.6266,-3.6215,-3.599,-3.5852,-3.6077,-3.6197,-3.6284,-3.6284,-3.6284,-3.6284,-3.6284,-3.6284,-3.6284,-3.6284,-3.6284,-3.6284,-3.6284,-3.6284,-3.6284,-3.6284,-3.6284,-3.6284,-3.6284,-3.6284,-3.6284,-3.6284,-3.6284,-3.6284,-3.6284,-3.6284,-3.6284,-3.6284,-3.6284,-3.6284,-3.6284,-3.6284,-3.6284,-3.6284,-3.6284,-3.6326,-3.6412,-3.6557,-3.6678,-3.6838,-3.7094,-3.7359,-3.7432,-3.7469,-3.7685,-3.7861,-3.7861,-3.7913,-3.8135,-3.835,-3.8562,-3.8606,-3.8652,-3.8773,-3.8848,-3.8906,-3.8935,-3.9007,-3.9036,-3.905,-3.9059,-3.9087,-4.0532,-3.9853,-3.8957,-3.8168,-3.7404,-3.6628,-3.6284,-3.6284,-3.6284,-3.6284,-3.6284,-3.6284,-3.6284,-3.6284,-3.6284,-3.6284,-3.6284,-3.6284,-3.6284,-3.6284,-3.6284,-3.6284,-3.6284,-3.6284,-3.6284,-3.6284,-3.6284,-3.6284,-3.6284,-3.6284,-3.6284,-3.6284,-3.6284,-3.6284,-3.6284,-3.6284,-3.6284,-3.6284,-3.6284,-3.6284,-3.6284,-3.6284,-3.6284,-3.6284,-3.6284,-3.6284,-3.6284,-3.6284,-3.6284,-3.6284,-3.6284,-3.6163,-3.6128,-3.6128,-3.6249,-3.6284,-3.6284,-3.6284,-3.6284,-3.6284,-3.6284,-3.6284,-3.6284,-3.6284,-3.6284,-3.6284,-3.6284,-3.6284,-3.6284,-3.6284,-3.6284,-3.6284,-3.6284,-3.6284,-3.6284,-3.6284,-3.6284,-3.6284,-3.6284,-3.6284,-3.6284,-3.6284,-3.6284,-3.6284,-3.6284,-3.6284,-3.6284,-3.6284,-3.6284,-3.6284,-3.6284,-3.6409,-3.6536,-3.6698,-3.6939,-3.7017,-3.7075,-3.7302,-3.7487,-3.7523,-3.756,-3.7596,-3.7809,-3.8118,-3.8285,-3.8316,-3.8494,-3.8603,-3.874,-3.8785,-3.8935,-3.9026,-3.9007,-3.9021,-3.9036]},{"header":{"parameterUnit":"m.s-1","parameterCategory":1,"la1":31.0,"la2":29.5877,"lo1":-88.7671,"lo2":-86.6584,"dy":0.0162,"dx":0.0185,"nx":115,"ny":88,"refTime":"2026-04-25T00:00:00:Z","depth":0,"parameterNumber":3,"parameterNumberName":"V-component_of_WINDS"},"data":[0.0,0.0,0.0,0.0,0.0,0.0,0.0,0.0,0.0,0.0,0.0,0.0,0.0,0.0,0.0,0.0,0.0,0.0,0.0,0.0,0.0,0.0,0.0,0.0,0.0,0.0,0.0,0.0,0.0,0.0,0.0,0.0,0.0,0.0,0.0,0.0,0.0,0.0,0.0,0.0,0.0,0.0,0.0,0.0,0.0,0.0,0.0,0.0,0.0,0.0,0.0,0.0,0.0,0.0,0.0,0.0,0.0,0.0,0.0,0.0,0.0,0.0,0.0,0.0,0.0,0.0,0.0,0.0,0.0,0.0,0.0,0.0,0.0,0.0,0.0,0.0,0.0,0.0,0.0,0.0,0.0,0.0,0.0,0.0,0.0,0.0,0.0,0.0,0.0,0.0,0.0,0.0,0.0,0.0,0.0,0.0,0.0,0.0,0.0,0.0,0.0,0.0,0.0,0.0,0.0,0.0,0.0,0.0,0.0,0.0,0.0,0.0,0.0,0.0,0.0,0.0,0.0,0.0,0.0,0.0,0.0,0.0,0.0,0.0,0.0,0.0,0.0,0.0,0.0,0.0,0.0,0.0,0.0,0.0,0.0,0.0,0.0,0.0,0.0,0.0,0.0,0.0,0.0,0.0,0.0,0.0,0.0,0.0,0.0,0.0,0.0,0.0,0.0,0.0,0.0,0.0,0.0,0.0,0.0,0.0,0.0,0.0,0.0,0.0,0.0,0.0,0.0,0.0,0.0,0.0,0.0,0.0,0.0,0.0,0.0,0.0,0.0,0.0,0.0,0.0,0.0,0.0,0.0,0.0,0.0,0.0,0.0,0.0,0.0,0.0,0.0,0.0,0.0,0.0,0.0,0.0,0.0,0.0,0.0,0.0,0.0,0.0,0.0,0.0,0.0,0.0,0.0,0.0,0.0,0.0,0.0,0.0,0.0,0.0,0.0,0.0,0.0,0.0,0.0,0.0,0.0,0.0,0.0,0.0,0.0,0.0,0.0,0.0,0.0,0.0,0.0,0.0,0.0,0.0,0.0,0.0,0.0,0.0,0.0,0.0,0.0,0.0,0.0,0.0,0.0,0.0,0.0,0.0,0.0,0.0,0.0,0.0,0.0,0.0,0.0,0.0,0.0,0.0,0.0,0.0,0.0,0.0,0.0,0.0,0.0,0.0,0.0,0.0,0.0,0.0,0.0,0.0,0.0,0.0,0.0,0.0,0.0,0.0,0.0,0.0,0.0,0.0,0.0,0.0,0.0,0.0,0.0,0.0,0.0,0.0,0.0,0.0,0.0,0.0,0.0,0.0,0.0,0.0,0.0,0.0,0.0,0.0,0.0,0.0,0.0,0.0,0.0,0.0,0.0,0.0,0.0,0.0,0.0,0.0,0.0,0.0,0.0,0.0,0.0,0.0,0.0,0.0,0.0,0.0,0.0,0.0,0.0,0.0,0.0,0.0,0.0,0.0,0.0,0.0,0.0,0.0,0.0,0.0,0.0,0.0,0.0,0.0,0.0,0.0,0.0,0.0,0.0,0.0,0.0,0.0,0.0,0.0,0.0,0.0,0.0,0.0,0.0,0.0,0.0,0.0,0.0,0.0,0.0,0.0,0.0,0.0,0.0,0.0,0.0,0.0,0.0,0.0,0.0,0.0,0.0,0.0,0.0,0.0,0.0,0.0,0.0,0.0,0.0,0.0,0.0,0.0,0.0,0.0,0.0,0.0,0.0,0.0,0.0,0.0,0.0,0.0,0.0,0.0,0.0,0.0,0.0,0.0,0.0,0.0,0.0,0.0,0.0,0.0,0.0,0.0,0.0,0.0,0.0,0.0,0.0,0.0,0.0,0.0,0.0,0.0,0.0,0.0,0.0,0.0,0.0,0.0,0.0,0.0,0.0,0.0,0.0,0.0,0.0,0.0,0.0,0.0,0.0,0.0,0.0,0.0,0.0,0.0,0.0,0.0,0.0,0.0,0.0,0.0,0.0,0.0,0.0,0.0,0.0,0.0,0.0,0.0,0.0,0.0,0.0,0.0,0.0,0.0,0.0,0.0,0.0,0.0,0.0,0.0,0.0,0.0,0.0,0.0,0.0,0.0,0.0,0.0,0.0,0.0,0.0,0.0,0.0,0.0,0.0,0.0,0.0,0.0,0.0,0.0,0.0,0.0,0.0,0.0,0.0,0.0,0.0,0.0,0.0,0.0,0.0,0.0,0.0,0.0,0.0,0.0,0.0,0.0,0.0,0.0,0.0,0.0,0.0,0.0,0.0,0.0,0.0,0.0,0.0,0.0,0.0,0.0,0.0,0.0,0.0,0.0,0.0,0.0,0.0,0.0,0.0,0.0,0.0,0.0,0.0,0.0,0.0,0.0,0.0,0.0,0.0,0.0,0.0,0.0,0.0,0.0,0.0,0.0,0.0,0.0,0.0,0.0,0.0,0.0,0.0,0.0,0.0,0.0,0.0,0.0,0.0,0.0,0.0,0.0,0.0,0.0,0.0,0.0,0.0,0.0,0.0,0.0,0.0,0.0,0.0,0.0,0.0,0.0,0.0,0.0,0.0,0.0,0.0,0.0,0.0,0.0,0.0,0.0,0.0,0.0,0.0,0.0,0.0,0.0,0.0,0.0,0.0,0.0,0.0,0.0,0.0,0.0,0.0,0.0,0.0,0.0,0.0,0.0,0.0,0.0,0.0,0.0,0.0,0.0,0.0,0.0,0.0,0.0,0.0,0.0,0.0,0.0,0.0,0.0,0.0,0.0,0.0,0.0,0.0,0.0,0.0,0.0,0.0,0.0,0.0,0.0,0.0,0.0,0.0,0.0,0.0,0.0,0.0,0.0,0.0,0.0,0.0,0.0,0.0,0.0,0.0,0.0,0.0,0.0,0.0,0.0,0.0,0.0,0.0,0.0,0.0,0.0,0.0,0.0,0.0,0.0,0.0,0.0,0.0,0.0,0.0,0.0,0.0,0.0,0.0,0.0,0.0,0.0,0.0,0.0,0.0,0.0,0.0,0.0,0.0,0.0,0.0,0.0,0.0,0.0,0.0,0.0,0.0,0.0,0.0,0.0,0.0,0.0,0.0,0.0,0.0,0.0,0.0,0.0,0.0,0.0,0.0,0.0,0.0,0.0,0.0,0.0,0.0,0.0,0.0,0.0,0.0,0.0,0.0,0.0,0.0,0.0,0.0,0.0,0.0,0.0,0.0,0.0,0.0,0.0,0.0,0.0,0.0,0.0,0.0,0.0,0.0,0.0,0.0,0.0,0.0,0.0,0.0,0.0,0.0,0.0,0.0,0.0,0.0,0.0,0.0,0.0,0.0,0.0,0.0,0.0,0.0,0.0,0.0,0.0,0.0,0.0,0.0,0.0,0.0,0.0,0.0,0.0,0.0,0.0,0.0,0.0,0.0,0.0,0.0,0.0,0.0,0.0,0.0,0.0,0.0,0.0,0.0,0.0,0.0,0.0,0.0,0.0,0.0,0.0,0.0,0.0,0.0,0.0,0.0,0.0,0.0,0.0,0.0,0.0,0.0,0.0,0.0,0.0,0.0,0.0,0.0,0.0,0.0,0.0,0.0,0.0,0.0,0.0,0.0,0.0,0.0,0.0,0.0,0.0,0.0,0.0,0.0,0.0,0.0,0.0,0.0,0.0,0.0,0.0,0.0,0.0,0.0,0.0,0.0,0.0,0.0,0.0,0.0,0.0,0.0,0.0,0.0,0.0,0.0,0.0,0.0,0.0,0.0,0.0,0.0,0.0,0.0,0.0,0.0,0.0,0.0,0.0,0.0,0.0,0.0,0.0,0.0,0.0,0.0,0.0,0.0,0.0,0.0,0.0,0.0,0.0,0.0,0.0,0.0,0.0,0.0,0.0,0.0,0.0,0.0,0.0,0.0,0.0,0.0,0.0,0.0,0.0,0.0,0.0,0.0,0.0,0.0,0.0,0.0,0.0,0.0,0.0,0.0,0.0,0.0,0.0,0.0,0.0,0.0,0.0,0.0,0.0,0.0,0.0,0.0,0.0,0.0,0.0,0.0,0.0,0.0,0.0,0.0,0.0,0.0,0.0,0.0,0.0,0.0,0.0,0.0,0.0,0.0,0.0,0.0,0.0,0.0,0.0,0.0,0.0,0.0,0.0,0.0,0.0,0.0,0.0,0.0,0.0,0.0,0.0,0.0,0.0,0.0,0.0,0.0,0.0,0.0,0.0,0.0,0.0,0.0,0.0,0.0,0.0,0.0,0.0,0.0,0.0,0.0,0.0,0.0,0.0,0.0,0.0,0.0,0.0,0.0,0.0,0.0,0.0,0.0,0.0,0.0,0.0,0.0,0.0,0.0,0.0,0.0,0.0,0.0,0.0,0.0,0.0,0.0,0.0,0.0,0.0,0.0,0.0,0.0,0.0,0.0,0.0,0.0,0.0,0.0,0.0,0.0,0.0,0.0,0.0,0.0,0.0,0.0,0.0,0.0,0.0,0.0,0.0,0.0,0.0,0.0,0.0,0.0,0.0,0.0,0.0,0.0,0.0,0.0,0.0,0.0,0.0,0.0,0.0,0.0,0.0,0.0,0.0,0.0,0.0,0.0,0.0,0.0,0.0,0.0,0.0,0.0,0.0,0.0,0.0,0.0,0.0,0.0,0.0,0.0,0.0,0.0,0.0,0.0,0.0,0.0,0.0,0.0,0.0,0.0,0.0,0.0,0.0,0.0,0.0,0.0,0.0,0.0,0.0,0.0,0.0,0.0,0.0,0.0,0.0,0.0,0.0,0.0,0.0,0.0,0.0,0.0,0.0,0.0,0.0,0.0,0.0,0.0,0.0,0.0,0.0,0.0,0.0,0.0,0.0,0.0,0.0,0.0,0.0,0.0,0.0,0.0,0.0,0.0,0.0,0.0,0.0,0.0,0.0,0.0,0.0,0.0,0.0,0.0,0.0,0.0,0.0,0.0,0.0,0.0,0.0,0.0,0.0,0.0,0.0,0.0,0.0,0.0,0.0,0.0,0.0,0.0,0.0,0.0,0.0,0.0,0.0,0.0,0.0,0.0,0.0,0.0,0.0,0.0,0.0,0.0,0.0,0.0,0.0,0.0,0.0,0.0,0.0,0.0,0.0,0.0,0.0,0.0,0.0,0.0,0.0,0.0,0.0,0.0,0.0,0.0,0.0,0.0,0.0,0.0,0.0,0.0,0.0,0.0,0.0,0.0,0.0,0.0,0.0,0.0,0.0,0.0,0.0,0.0,0.0,0.0,0.0,0.0,0.0,0.0,0.0,0.0,0.0,0.0,0.0,0.0,0.0,0.0,0.0,0.0,0.0,0.0,0.0,0.0,0.0,0.0,0.0,0.0,0.0,0.0,0.0,0.0,0.0,0.0,0.0,0.0,0.0,0.0,0.0,0.0,0.0,0.0,0.0,0.0,0.0,0.0,0.0,0.0,0.0,0.0,0.0,0.0,0.0,0.0,0.0,0.0,0.0,0.0,0.0,0.0,0.0,0.0,0.0,0.0,0.0,0.0,0.0,0.0,0.0,0.0,0.0,0.0,0.0,0.0,0.0,0.0,0.0,0.0,0.0,0.0,0.0,0.0,0.0,0.0,0.0,0.0,0.0,0.0,0.0,0.0,0.0,0.0,0.0,0.0,0.0,0.0,0.0,0.0,0.0,0.0,0.0,0.0,0.0,0.0,0.0,0.0,0.0,0.0,0.0,0.0,0.0,0.0,0.0,0.0,0.0,0.0,0.0,0.0,0.0,0.0,0.0,0.0,0.0,0.0,0.0,0.0,0.0,0.0,0.0,0.0,0.0,0.0,0.0,0.0,0.0,0.0,0.0,0.0,0.0,0.0,0.0,0.0,0.0,0.0,0.0,0.0,0.0,0.0,0.0,0.0,0.0,0.0,0.0,0.0,0.0,0.0,0.0,0.0,0.0,0.0,0.0,0.0,0.0,0.0,0.0,0.0,0.0,0.0,0.0,0.0,0.0,0.0,0.0,0.0,0.0,0.0,0.0,0.0,0.0,0.0,0.0,0.0,0.0,0.0,0.0,0.0,0.0,0.0,0.0,0.0,0.0,0.0,0.0,0.0,0.0,0.0,0.0,0.0,0.0,0.0,0.0,0.0,0.0,0.0,0.0,0.0,0.0,0.0,0.0,0.0,0.0,0.0,0.0,0.0,0.0,0.0,0.0,0.0,0.0,0.0,0.0,0.0,0.0,0.0,0.0,0.0,0.0,0.0,0.0,0.0,0.0,0.0,0.0,0.0,0.0,0.0,0.0,0.0,0.0,0.0,0.0,0.0,0.0,0.0,0.0,0.0,0.0,0.0,0.0,0.0,0.0,0.0,0.0,0.0,0.0,0.0,0.0,0.0,0.0,0.0,0.0,0.0,0.0,0.0,0.0,0.0,0.0,0.0,0.0,0.0,0.0,0.0,0.0,0.0,0.0,0.0,0.0,0.0,0.0,0.0,0.0,0.0,0.0,0.0,0.0,0.0,0.0,0.0,0.0,0.0,0.0,0.0,0.0,0.0,0.0,0.0,0.0,0.0,0.0,0.0,0.0,0.0,0.0,0.0,0.0,0.0,0.0,0.0,0.0,0.0,0.0,0.0,0.0,0.0,0.0,0.0,0.0,0.0,0.0,0.0,0.0,0.0,0.0,0.0,0.0,0.0,0.0,0.0,0.0,0.0,0.0,0.0,0.0,0.0,0.0,0.0,0.0,0.0,0.0,0.0,0.0,0.0,0.0,0.0,0.0,0.0,0.0,0.0,0.0,0.0,0.0,0.0,0.0,0.0,0.0,0.0,0.0,0.0,0.0,0.0,0.0,0.0,0.0,0.0,0.0,0.0,0.0,0.0,0.0,0.0,0.0,0.0,0.0,0.0,0.0,0.0,0.0,0.0,0.0,0.0,0.0,0.0,0.0,0.0,0.0,0.0,0.0,0.0,0.0,0.0,0.0,0.0,0.0,0.0,0.0,0.0,0.0,0.0,0.0,0.0,0.0,0.0,0.0,0.0,0.0,0.0,0.0,0.0,0.0,0.0,0.0,0.0,0.0,0.0,0.0,0.0,0.0,0.0,0.0,0.0,0.0,0.0,0.0,0.0,0.0,0.0,0.0,0.0,0.0,0.0,0.0,0.0,0.0,0.0,0.0,0.0,0.0,0.0,0.0,0.0,0.0,0.0,0.0,0.0,0.0,0.0,0.0,0.0,0.0,0.0,0.0,0.0,0.0,0.0,0.0,0.0,0.0,0.0,0.0,0.0,0.0,0.0,0.0,0.0,0.0,0.0,0.0,0.0,0.0,0.0,0.0,0.0,0.0,0.0,0.0,0.0,0.0,0.0,0.0,0.0,0.0,0.0,0.0,0.0,0.0,0.0,0.0,0.0,0.0,0.0,0.0,0.0,0.0,0.0,0.0,0.0,0.0,0.0,0.0,0.0,0.0,0.0,0.0,0.0,0.0,0.0,0.0,0.0,0.0,0.0,0.0,0.0,0.0,0.0,0.0,0.0,0.0,0.0,0.0,0.0,0.0,0.0,0.0,0.0,0.0,0.0,0.0,0.0,0.0,0.0,0.0,0.0,0.0,0.0,0.0,0.0,0.0,0.0,0.0,0.0,0.0,0.0,0.0,0.0,0.0,0.0,0.0,0.0,0.0,0.0,0.0,0.0,0.0,0.0,0.0,0.0,0.0,0.0,0.0,0.0,0.0,0.0,0.0,0.0,0.0,0.0,0.0,0.0,0.0,0.0,0.0,0.0,0.0,0.0,0.0,0.0,0.0,0.0,0.0,0.0,0.0,0.0,0.0,0.0,0.0,0.0,0.0,0.0,0.0082,0.0117,0.0,0.0,0.0,0.0,0.0,0.0,0.0,0.0,0.0,0.0,0.0,0.0,0.0,0.0,0.0,0.0,0.0,0.0,0.0,0.0,0.0,0.0,0.0,0.0,0.0,0.0,0.0,0.0,0.0,0.0,0.0,0.0,0.0,0.0,0.0,0.0,0.0,0.0,0.0,0.0,0.0,0.0,0.0,0.0,0.0,0.0,0.0,0.0,0.0,0.0,0.0,0.0,0.0,0.0,0.0,0.0,0.0,0.0,0.0,0.0,0.0,0.0,0.0,0.0,0.0,0.0,0.0,0.0,0.0,0.0,0.0,0.0,0.0,0.0,0.0,0.0,0.0,0.0,0.0,0.0,0.0,0.0,0.0,0.0,0.0,0.0,0.0,0.0,0.0,0.0,0.0,0.0,0.0,0.0,0.0,0.0,0.0,0.0,0.0,0.0,0.0,0.0,0.0,0.0,0.0,0.0,0.0,0.0,0.0,0.0,0.0,0.0,0.0,0.0081,0.0151,0.0,0.0,0.0,0.0,0.0,0.0,0.0,0.0,0.0,0.0,0.0,0.0,0.0,0.0,0.0,0.0,0.0,0.0,0.0,0.0,0.0,0.0,0.0,0.0,0.0,0.0,0.0,0.0,0.0,0.0,0.0,0.0,0.0,0.0,0.0,0.0,0.0,0.0,0.0,0.0,0.0,0.0,0.0,0.0,0.0,0.0,0.0,0.0,0.0,0.0,0.0,0.0,0.0,0.0,0.0,0.0,0.0,0.0,0.0,0.0,0.0,0.0,0.0,0.0,0.0,0.0,0.0,0.0,0.0,0.0,0.0,0.0,0.0,0.0,0.0,0.0,0.0,0.0,0.0,0.0,0.0,0.0,0.0,0.0,0.0,0.0,0.0,0.0,0.0,0.0,0.0,0.0,0.0,0.0,0.0,0.0,0.0,0.0,0.0,0.0,0.0,0.0,0.0,0.0,0.0,0.0,0.0,0.0,0.0729,0.0042,0.0,0.0,0.0,0.0041,0.0075,0.0,0.0,0.0,0.0,0.0,0.0,0.0,0.0,0.0,0.0,0.0,0.0,0.0,0.0,0.0,0.0,0.0,0.0,0.0,0.0,0.0,0.0,0.0,0.0,0.0,0.0,0.0,0.0,0.0,0.0,0.0,0.0,0.0,0.0,0.0,0.0,0.0,0.0,0.0,0.0,0.0,0.0,0.0,0.0,0.0,0.0,0.0,0.0,0.0,0.0,0.0,0.0,0.0,0.0,0.0,0.0,0.0,0.0,0.0,0.0,0.0,0.0,0.0,0.0,0.0,0.0,0.0,0.0,0.0,0.0,0.0,0.0,0.0,0.0,0.0,0.0,0.0,0.0,0.0,0.0,0.0,0.0,0.0,0.0,0.0,0.0,0.0,0.0,0.0,0.0,0.0,0.0,0.0,0.0,0.0,0.0,0.0,0.0,0.0,0.0,0.0,0.0,0.0,0.0,0.0,0.0,0.0,0.0,0.0,0.0039,0.0372,0.0476,0.0313,0.0362,0.049,0.0,0.0,0.0,0.0,0.0,0.0,0.0,0.0,0.0,0.0,0.0,0.0,0.0,0.0,0.0,0.0,0.0,0.0,0.0,0.0,0.0,0.0,0.0,0.0,0.0,0.0,0.0,0.0,0.0,0.0,0.0,0.0,0.0,0.0,0.0,0.0,0.0,0.0,0.0,0.0,0.0,0.0,0.0,0.0,0.0,0.0,0.0,0.0,0.0,0.0,0.0,0.0,0.0,0.0,0.0,0.0,0.0,0.0,0.0,0.0,0.0,0.0,0.0,0.0,0.0,0.0,0.0,0.0,0.0,0.0,0.0,0.0,0.0,0.0,0.0,0.0,0.0,0.0,0.0,0.0,0.0,0.0,0.0,0.0,0.0,0.0,0.0,0.0,0.0,0.0,0.0,0.0,0.0,0.0,0.0,0.0,0.0,0.0,0.0,0.0,0.0,0.0,0.0,0.0,0.0,0.0,0.0,0.0,0.0,0.0862,0.0827,0.0725,0.0555,0.0619,0.0732,0.0885,0.0,0.0,0.0,0.0,0.0,0.0,0.0,0.0,0.0,0.0,0.0,0.0,0.0,0.0,0.0,0.0,0.0,0.0,0.0,0.0,0.0,0.0,0.0,0.0,0.0,0.0,0.0,0.0,0.0,0.0,0.0,0.0,0.0,0.0,0.0,0.0,0.0,0.0,0.0,0.0,0.0,0.0,0.0,0.0,0.0,0.0,0.0,0.0,0.0,0.0,0.0,0.0,0.0,0.0,0.0,0.0,0.0,0.0,0.0,0.0,0.0,0.0,0.0,0.0,0.0,0.0,0.0,0.0,0.0,0.0,0.0,0.0,0.0,0.0,0.0,0.0,0.0,0.0,0.0,0.0,0.0,0.0,0.0,0.0,0.0,0.0,0.0,0.0,0.0,0.0,0.0,0.0,0.0,0.0,0.0,0.0,0.0,0.0,0.0,0.0,0.0,0.0,0.0,0.0,0.0,0.0,0.0,0.0,0.2264,0.1402,0.0905,0.0841,0.0744,0.0762,0.0,0.0,0.0,0.0,0.0,0.0,0.0,0.0,0.0,0.0,0.0,0.0,0.0,0.0,0.0,0.0,0.0,0.0,0.0,0.0,0.0,0.0,0.0,0.0,0.0,0.0,0.0,0.0,0.0,0.0,0.0,0.0,0.0,0.0,0.0,0.0,0.0,0.0,0.0,0.0,0.0,0.0,0.0,0.0,0.0,0.0,0.0,0.0,0.0,0.0,0.0,0.0,0.0,0.0,0.0,0.0,0.0,0.0,0.0,0.0,0.0,0.0,0.0,0.0,0.0,0.0,0.0,0.0,0.0,0.0,0.0,0.0,0.0,0.0,0.0,0.0,0.0,0.0,0.0,0.0,0.0,0.0,0.0,0.0,0.0,0.0,0.0,0.0,0.0,0.0,0.0,0.0,0.0,0.0,0.0,0.0,0.0,0.0,0.0,0.0,0.0,0.0,0.0,0.0,0.0,0.0,0.0,0.0,0.0,0.2646,0.191,0.1426,0.116,0.1113,0.1116,0.0,0.0,0.0,0.0,0.0,0.0,0.0,0.0,0.0,0.0,0.0,0.0,0.0,0.0,0.0,0.0,0.0,0.0,0.0,0.0,0.0,0.0,0.0,0.0,0.0,0.0,0.0,0.0,0.0,0.0,0.0,0.0,0.0,0.0,0.0,0.0,0.0,0.0,0.0,0.0,0.0,0.0,0.0,0.0,0.0,0.0,0.0,0.0,0.0,0.0,0.0,0.0,0.0,0.0,0.0,0.0,0.0,0.0,0.0,0.0,0.0,0.0,0.0,0.0,0.0,0.0,0.0,0.0,0.0,0.0,0.0,0.0,0.0,0.0,0.0,0.0,0.0,0.0,0.0,0.0,0.0,0.0,0.0,0.0,0.0,0.0,0.0,0.0,0.0,0.0,0.0,0.0,0.0,0.0,0.0,0.0,0.0,0.0,0.0,0.0,0.0,0.0,0.0,0.0,0.0,0.0,0.0,0.0,0.4375,0.3555,0.3313,0.2856,0.2152,0.1655,0.1357,0.0,0.0,0.0,0.0,0.0,0.0,0.0,0.0,0.0,0.0,0.0,0.0,0.0,0.0,0.0,0.0,0.0,0.0,0.0,0.0,0.0,0.0,0.0,0.0,0.0,0.0,0.0,0.0,0.0,0.0,0.0,0.0,0.0,0.0,0.0,0.0,0.0,0.0,0.0,0.0,0.0,0.0,0.0,0.0,0.0,0.0,0.0,0.0,0.0,0.0,0.0,0.0,0.0,0.0,0.0,0.0,0.0,0.0,0.0,0.0,0.0,0.0,0.0,0.0,0.0,0.0,0.0,0.0,0.0,0.0,0.0,0.0,0.0,0.0,0.0,0.0,0.0,0.0,0.0,0.0,0.0,0.0,0.0,0.0,0.0,0.0,0.0,0.0,0.0,0.0,0.0,0.0,0.0,0.0,0.0,0.0,0.0,0.0,0.0,0.0,0.0,0.0,0.0,0.0,0.0,0.0,0.0,0.0,0.6088,0.4722,0.4996,0.4609,0.3517,0.2377,0.1642,0.0,0.0,0.0,0.0,0.0,0.0,0.0,0.0,0.0,0.0,0.0,0.0,0.0,0.0,0.0,0.0,0.0,0.0,0.0,0.0,0.0,0.0,0.0,0.0,0.0,0.0,0.0,0.0,0.0,0.0,0.0,0.0,0.0,0.0,0.0,0.0,0.0,0.0,0.0,0.0,0.0,0.0,0.0,0.0,0.0,0.0,0.0,0.0,0.0,0.0,0.0,0.0,0.0,0.0,0.0,0.0,0.0,0.0,0.0,0.0,0.0,0.0,0.0,0.0,0.0,0.0,0.0,0.0,0.0,0.0,0.0,0.0,0.0,0.0,0.0,0.0,0.0,0.0,0.0,0.0,0.0,0.0,0.0,0.0,0.0,0.0,0.0,0.0,0.0,0.0,0.0,0.0,0.0,0.0,0.0,0.0,0.0,0.0,0.0,0.0,0.0,0.0,0.0,0.0,0.0,0.0,0.0,0.0,0.5881,0.5879,0.5534,0.5127,0.4719,0.3404,0.2666,0.0,0.0,0.0,0.0,0.0,0.0,0.0,0.0,0.0,0.0,0.0,0.0,0.0,0.0,0.0,0.0,0.0,0.0,0.0,0.0,0.0,0.0,0.0,0.0,0.0,0.0,0.0,0.0,0.0,0.0,0.0,0.0,0.0,0.0,0.0,0.0,0.0,0.0,0.0,0.0,0.0,0.0,0.0,0.0,0.0,0.0,0.0,0.0,-0.071,0.0,0.0,0.0,0.0,0.0,0.0,0.0,0.0,0.0,0.0,0.0,0.0,0.0,0.0,0.0,0.0,0.0,0.0,0.0,0.0,0.0,0.0,0.0,0.0,0.0,0.0,0.0,0.0,0.0,0.0,0.0,0.0,0.0,0.0,0.0,0.0,0.0,0.0,0.0,0.0,0.0,0.0,0.0,0.0,0.0,0.0,0.0,0.0,0.0,0.0,0.0,0.0,0.0,0.0,0.0,0.0,0.0,0.0,0.0,0.6497,0.6412,0.6231,0.6023,0.5806,0.5001,0.4216,0.0,0.0,0.0,0.0,0.0,0.0,0.0,0.0,0.0,0.0,0.0,0.0,0.0,0.0,0.0,0.0,0.0,0.0,0.0,0.0,0.0,0.0,0.0,0.0,0.0,0.0,0.0,0.0,0.0,0.0,0.0,0.0,0.0,0.0,0.0,0.0,0.0,0.0,0.0,0.0,0.0,0.0,0.0,0.0,0.0,0.0,0.0,0.0,0.0,0.0,0.0,0.0,0.0,0.0,0.0,0.0,0.0,0.0,0.0,0.0,0.0,0.0,0.0,0.0,0.0,0.0,0.0,0.0,0.0,0.0,0.0,0.0,0.0,0.0,0.0,0.0,0.0,0.0,0.0,0.0,0.0,0.0,0.0,0.0,0.0,0.0,0.0,0.0,0.0,0.0,0.0,0.0,0.0,0.0,0.0,0.0,0.0,0.0,0.0,0.0,0.0,0.0,0.0,0.0,0.0,0.0,0.0,0.7156,0.7308,0.6813,0.7009,0.7119,0.6973,0.6703,0.5907,0.4547,0.0,0.0,0.0,0.0,0.0,0.0,0.0,0.0,0.0,0.0,0.0,0.0,0.0,0.0,0.0,0.0,0.0,0.0,0.0,0.0,0.0,0.0,0.0,0.0,0.0,0.0,0.0,0.0,0.0,0.0,0.0,0.0,0.0,0.0,0.0,0.0,0.0,0.0,0.0903,0.0928,0.0,0.0,0.0,0.0,0.0,0.0,0.0,0.0,-0.0621,0.0,0.0,0.0,0.0,0.0,0.0,0.0,0.0,0.0,0.0,0.0,0.0,0.0,0.0,0.0,0.0,0.0,0.0,0.0,0.0,0.0,0.0,0.0,0.0,0.0,0.0,0.0,0.0,0.0,0.0,0.0,0.0,0.0,0.0,0.0,0.0,0.0,0.0,0.0,0.0,0.0,0.0,0.0,0.0,0.0,0.0,0.0,0.0,0.0,0.0,0.0,0.0,0.0,0.0,0.0,0.0,0.6803,0.721,0.7638,0.7996,0.8239,0.8259,0.8052,0.7824,0.7247,0.6321,0.0,0.0,0.0,0.0,0.0,0.0,0.0,0.0,0.0,0.0,0.0,0.0,0.0,0.0,0.0,0.0,0.0,0.0,0.0,0.0,0.0,0.0,0.0,0.0,0.0,0.0,0.0,0.0,0.0,0.0,0.0,0.0,0.0,0.0,0.0,0.0,0.0,0.0,0.0,0.1038,0.1084,0.0,0.0,0.0,0.0,0.0,0.0,0.0,0.0,-0.0775,0.0,0.0,0.0,0.0,0.0,0.0,0.0,0.0,0.0,0.0,0.0,0.0,0.0,0.0,0.0,0.0,0.0,0.0,0.0,0.0,0.0,0.0,0.0,0.0,0.0,0.0,0.0,0.0,0.0,0.0,0.0,0.0,0.0,0.0,0.0,0.0,0.0,0.0,0.0,0.0,0.0,0.0,0.0,0.0,0.0,0.0,0.0,0.0,0.0,0.0,0.0,0.0,0.0,0.0,0.0,0.6787,0.7329,0.7818,0.8306,0.8411,0.8414,0.832,0.7896,0.7383,0.0,0.0,0.0,0.0,0.0,0.0,0.0,0.0,0.0,0.0,0.0,0.0,0.0,0.0,0.0,0.0,0.0,0.0,0.0,0.0,0.0,0.0,0.0,0.0,0.0,0.0,0.0,0.0,0.0,0.0,0.0,0.0,0.0,0.0,0.0,0.0,0.0,0.0,0.0,0.0,0.1084,0.1121,0.1158,0.0,0.0,0.0,0.0,0.0,0.0,0.0208,-0.0231,0.0,0.0,0.0,0.0,0.0,0.0,0.0,0.0,0.0,0.0,0.0,0.0,0.0,0.0,0.0,0.0,0.0,0.0,0.0,0.0,0.0,0.0,0.0,0.0,0.0,0.0,0.0,0.0,0.0,0.0,0.0,0.0,0.0,0.0,0.0,0.0,0.0,0.0,0.0,0.0,0.0,0.0,0.0,0.0,0.0,0.0,0.0,0.0,0.0,0.0,0.0,0.0,0.0,0.0,0.0,0.6654,0.736,0.7885,0.8208,0.8255,0.8241,0.8221,0.7655,0.7132,0.0,0.0,0.0,0.0,0.0,0.0,0.0,0.0,0.0,0.0,0.0,0.0,0.0,0.0,0.0,0.0,0.0,0.0,0.0,0.0,0.0,0.0,0.0,0.0,0.0,0.0,0.0,0.0,0.0,0.0,0.0,0.0,0.0,0.0,0.0,0.0,0.0,0.0,0.0,0.0,0.0,0.1079,0.112,0.1033,0.0,0.0,0.0,0.0,0.1012,0.0544,0.0,0.0,0.0,0.0,0.0,0.0,0.0,0.0,0.0,0.0,0.0,0.0,0.0,0.0,0.0,0.0,0.0,0.0,0.0,0.0,0.0,0.0,0.0,0.0,0.0,0.0,0.0,0.0,0.0,0.0,0.0,0.0,0.0,0.0,0.0,0.0,0.0,0.0,0.0,0.0,0.0,0.0,0.0,0.0,0.0,0.0,0.0,0.0,0.0,0.0,0.0,0.0,0.0,0.0,0.0,0.0,0.6532,0.7105,0.7634,0.8048,0.8201,0.8143,0.7872,0.7543,0.7081,0.0,0.0,0.0,0.0,0.0,0.0,0.0,0.0,0.0,0.0,0.0,0.0,0.0,0.0,0.0,0.0,0.0,0.0,0.0,0.0,0.0,0.0,0.0,0.0,0.0,0.0,0.0,0.0,0.0,0.0,0.0,0.0,0.0,0.0,0.0,0.0,0.0,0.0,0.0,0.0,0.0,0.091,0.0852,0.082,0.0813,0.0,0.0,0.1067,0.1105,0.0719,0.0,0.0,0.0,0.0,0.0,0.0,0.0,0.0,0.0,0.0,0.0,0.0,0.0,0.0,0.0,0.0,0.0,0.0,0.0,0.0,0.0,0.0,0.0,0.0,0.0,0.0,0.0,0.0,0.0,0.0,0.0,0.0,0.0,0.0,0.0,0.0,0.0,0.0,0.0,0.0,0.0,0.0,0.0,0.0,0.0,0.0,0.0,0.0,0.0,0.0,0.0,0.0,0.0,0.0,0.0,0.5723,0.6385,0.7067,0.7543,0.7896,0.7974,0.7946,0.7811,0.7282,0.6763,0.0,0.0,0.0,0.0,0.0,0.0,0.0,0.0,0.0,0.0,0.0,0.0,0.0,0.0,0.0,0.0,0.0,0.0,0.0,0.0,0.0,0.0,0.0,0.0,0.0,0.0,0.0,0.0,0.0,0.0,0.0,0.0,0.0,0.0,0.0,0.0,0.0,0.0,0.0,0.0,0.0,0.0,0.103,0.0999,0.0,0.0,0.0,0.1147,0.1147,0.0,0.0,0.0,0.0,0.0,0.0,0.0,0.0,0.0,0.0,0.0,0.0,0.0,0.0,0.0,0.0,0.0,0.0,0.0,0.0,0.0,0.0,0.0,0.0,0.0,0.0,0.0,0.0,0.0,0.0,0.0,0.0,0.0,0.0,0.0,0.0,0.0,0.0,0.0,0.0,0.0,0.0,0.0,0.0,0.0,0.0,0.0,0.0,0.0,0.0,0.0,0.0,0.0,0.0,0.0,0.0,0.0,0.6296,0.7168,0.7685,0.7743,0.776,0.774,0.7692,0.7051,0.0,0.0,0.0,0.0,0.0,0.0,0.0,0.0,0.0,0.0,0.0,0.0,0.0,0.0,0.0,0.0,0.0,0.0,0.0,0.0,0.0,0.0,0.0,0.0,0.0,0.0,0.0,0.0739,0.0,0.0,0.0,0.0,0.0,0.0,0.0,0.0,0.0,0.0,0.0,0.0,0.0,0.0,0.1133,0.1126,0.1105,0.1116,0.0,0.0,0.1224,0.1179,0.1234,0.1203,0.0,0.0,0.0,0.0,0.0,0.0,0.0,0.0,0.0,0.0,0.0,0.0,0.0,0.0,0.0,0.0,0.0,0.0,0.0,0.0,0.0,0.0,0.0,0.0,0.0,0.0,0.0,0.0,0.0,0.0,0.0,0.0,0.0,0.0,0.0,0.0,0.0,0.0,0.0,0.0,0.0,0.0,0.0,0.0,0.0,0.0,0.0,0.0,0.0,0.0,0.0,0.0,0.0,0.0,0.0,0.637,0.7647,0.811,0.7647,0.7614,0.7543,0.7443,0.6949,0.6427,0.0,0.0,0.0,0.0,0.0,0.0,0.0,0.0,0.0,0.0,0.0,0.0,0.0,0.0,0.0,0.0,0.0,0.0,0.0,0.0,0.0,0.0,0.0,0.0,0.0,0.0,0.0,0.0,0.0,0.0,0.0,0.0,0.0,0.0,0.0,0.0,0.0,0.0,0.0,0.0,0.0,0.0901,0.0917,0.0932,0.0924,0.0,0.0,0.128,0.1213,0.1239,0.1235,0.1099,0.0,0.0,0.0,0.0,0.0,0.0,0.0,0.0,0.0,0.0,0.0,0.0,0.0,0.0,0.0,0.0,0.0,0.0,0.0,0.0,0.0,0.0,0.0,0.0,0.0,0.0,0.0,0.0,0.0,0.0,0.0,0.0,0.0,0.0,0.0,0.0,0.0,0.0,0.0,0.0,0.0,0.0,0.0,0.0,0.0,0.0,0.0,0.0,0.0,0.0,0.0,0.0,0.0,0.6955,0.7403,0.8526,0.8851,0.8345,0.8364,0.7969,0.7231,0.7213,0.6708,0.0,0.0,0.0,0.0,0.0,0.0,0.0,0.0,0.0,0.0,0.0,0.0,0.0,0.0,0.0,0.0,0.0,0.0,0.0,0.0,0.0,0.0,0.0,0.0,0.0,0.0,0.0,0.0,0.0774,0.0778,0.0789,0.0,0.0,0.0,0.0,0.0,0.0,0.0,0.0,0.0,0.0,0.1094,0.1084,0.1099,0.0,0.0,0.1258,0.1293,0.128,0.1253,0.1183,0.113,0.094,0.0,0.0,0.0,0.0,0.0,0.0,0.0,0.0,0.0,0.0,0.0,0.0,0.0,0.0,0.0,0.0,0.0,0.0,0.0,0.0,0.0,0.0,0.0,0.0,0.0,0.0,0.0,0.0,0.0,0.0,0.0,0.0,0.0,0.0,0.0,0.0,0.0,0.0,0.0,0.0,0.0,0.0,0.0,0.0,0.0,0.0,0.0,0.0,0.0,0.0,0.0,0.0,0.7368,0.7976,0.9029,0.9336,0.8907,0.8867,0.8503,0.7728,0.7741,0.7288,0.0,0.0,0.0,0.0,0.0,0.0,0.0,0.0,0.0,0.0,0.0,0.0,0.0,0.0,0.0,0.0,0.0,0.0,0.0,0.0,0.0,0.0,0.0,0.0,0.0,0.0,0.0,0.0,0.0913,0.08,0.0758,0.0,0.0,0.0,0.0,0.0,0.0,0.0,0.0,0.0,0.0,0.1205,0.1223,0.127,0.1295,0.1314,0.1295,0.1283,0.1283,0.1226,0.1181,0.1091,0.0,0.0,0.0,0.0,0.0,0.0,0.0,0.0,0.0,0.0,0.0,0.0,0.0,0.0,0.0,0.0,0.0,0.0,0.0,0.0,0.0,0.0,0.0,0.0,0.0,0.0,0.0,0.8337,0.0,0.0,0.7976,0.0,0.0,0.0,0.0,0.0,0.0,0.0,0.0,0.0,0.0,0.0,0.0,0.0,0.0,0.0,0.0,0.0,0.0,0.0,0.0,0.0,0.0,0.7642,0.772,0.9071,0.951,0.9123,0.9091,0.9096,0.8991,0.8565,0.821,0.8012,0.0,0.0,0.0,0.0,0.0,0.0,0.0,0.0,0.0,0.0,0.0,0.0,0.0,0.0,0.0,0.0,0.0,0.0,0.0,0.0,0.0,0.0,0.0,0.0,0.0,0.0,0.1652,0.1157,0.0784,0.0,0.0,0.0,0.0,0.0,0.0,0.0,0.0,0.0,0.0,0.111,0.1227,0.1286,0.1322,0.1302,0.13,0.1251,0.1213,0.1215,0.1175,0.1181,0.0,0.0,0.0,0.0,0.0,0.0,0.0,0.0,0.0,0.0,0.0,0.0,0.0,0.0,0.0,0.0,0.0,0.0,0.0,0.0,0.0,0.0,0.0,0.0,0.0,0.0,0.0,1.1171,1.0615,0.0,0.0,0.0,0.0,0.0,0.0,0.0,0.0,0.0,0.0,0.0,1.0304,1.0472,0.0,0.0,0.0,0.0,0.0,0.0,0.0,0.0,0.0,0.0,0.0,0.0,0.8418,0.9164,1.013,1.044,1.006,1.004,0.9681,0.8981,0.8972,0.8658,0.8064,0.0,0.0,0.0,0.0,0.0,0.0,0.0,0.0,0.0,0.0,0.0,0.0,0.0,0.0,0.0,0.0,0.0,0.0,0.0,0.0,0.0,0.0,0.0,0.0,0.0,0.2207,0.0,0.0,0.0,0.0,0.0,0.0,0.0,0.0,0.0,0.0,0.0,0.0984,0.1052,0.1194,0.1265,0.1227,0.127,0.1296,0.0,0.0,0.0,0.0,0.0,0.0,0.0,0.0,0.0,0.0,0.0,0.0,0.0,0.0,0.0545,0.0352,0.0261,0.0182,0.0152,0.0,0.0,0.0,0.0,0.0,0.0,0.0,0.0,0.0,0.0,0.0,0.0,0.0,0.0,1.3294,0.0,1.221,0.0,0.0,0.0,0.0,0.0,0.0,0.0,0.0,1.1155,1.1446,1.111,1.131,1.1214,0.0,1.0406,0.9751,0.0,0.0,0.0,0.0,0.0,0.0,0.0,0.0,0.8933,0.9889,1.0581,1.0883,1.0729,1.0712,1.0361,0.9697,0.9637,0.9225,0.8429,0.7439,0.6572,0.0,0.0,0.0,0.0,0.0,0.0,0.0,0.0,0.0,0.0,0.0,0.0,0.0,0.0,0.0,0.0,0.0,0.0,0.0,0.0,0.0,0.0,0.0,0.2664,0.0,0.0,0.0,0.0,0.0,0.0,0.0,0.0,0.0,0.0928,0.0999,0.1077,0.1114,0.1219,0.1264,0.1228,0.0,0.0,0.0,0.0,0.0,0.0,0.0,0.1179,0.1205,0.1142,0.1112,0.1115,0.1101,0.1039,0.0836,0.0,0.0,0.0354,0.0202,0.0115,0.0084,0.0028,0.0,0.0,0.0,0.0,0.0,0.0,0.0,0.0,0.0,0.0,0.0,0.0,1.5154,1.5205,0.0,1.4032,0.0,0.0,0.0,0.0,0.0,1.2393,0.0,0.0,1.2824,1.286,1.203,1.2018,1.2018,1.1954,1.1694,1.1288,1.0676,0.8903,0.0,0.0,0.0,0.0,0.0,0.0,0.9113,0.9907,1.043,1.0809,1.1074,1.1086,1.1074,1.1038,1.0551,0.9913,0.913,0.8555,0.7914,0.7049,0.6271,0.0,0.0,0.0,0.0,0.0,0.0,0.0,0.0,0.0,0.0,0.0,0.0,0.0,0.0,0.0,0.0,0.0,0.0,0.0,0.0,0.3553,0.0,0.0,0.0,0.0,0.0,0.0,0.0,0.0,0.0,0.0,0.0994,0.1076,0.1146,0.1197,0.0,0.0,0.0,0.0,0.1224,0.1293,0.1232,0.1214,0.1215,0.1213,0.1202,0.1174,0.0,0.0,0.1128,0.1103,0.1037,0.0852,0.0849,0.0771,0.0384,0.017,0.0033,0.0,0.0,0.0,0.0,0.0,0.0,2.0464,0.0,0.0,0.0,0.0,1.7651,1.7917,1.88,1.8079,1.7778,1.7605,1.6246,0.0,0.0,0.0,0.0,0.0,0.0,1.3977,1.3813,1.4165,1.4212,1.4049,1.3932,1.3817,1.3602,1.3038,1.2516,1.1947,1.0775,0.9426,0.8027,0.0,0.0,0.0,0.0,0.9384,1.0154,1.0515,1.0852,1.1105,1.1117,1.0894,1.0527,1.0196,0.9817,0.9408,0.8877,0.8299,0.775,0.6987,0.0,0.0,0.0,0.0,0.0,0.0,0.0,0.0,0.0,0.0,0.0,0.0,0.0,0.0,0.0,0.0,0.0,0.0,0.0,0.389,0.3495,0.315,0.0,0.0,0.0,0.0,0.0,0.0,0.0,0.0,0.0,0.1142,0.1129,0.1186,0.0,0.0,0.1268,0.1226,0.1236,0.1286,0.1295,0.1288,0.0,0.1283,0.1226,0.1217,0.1267,0.1221,0.1196,0.1184,0.1183,0.1141,0.1033,0.0951,0.086,0.0738,0.0453,0.0173,0.0,0.0,0.0,0.0,0.0,0.0,2.2785,2.1257,2.0322,2.0111,2.03,1.9799,2.0,2.0621,2.0034,1.9807,1.9812,1.8305,1.7487,1.7151,1.5889,0.0,0.0,0.0,1.5723,1.5466,1.5591,1.5442,1.5078,1.5,1.4748,1.4447,1.3947,1.3387,1.2805,1.2138,1.0952,0.9293,0.0,0.0,0.8963,0.936,0.9859,1.043,1.0707,1.0954,1.1105,1.1009,1.0719,1.031,1.0039,0.9781,0.9522,0.9095,0.8735,0.843,0.7719,0.6957,0.0,0.0,0.0,0.0,0.0,0.0,0.0,0.0,0.0,0.0,0.0,0.3091,0.2876,0.0,0.0,0.0,0.3384,0.3751,0.4158,0.3907,0.0,0.0,0.0,0.0,0.0,0.0,0.0,0.2196,0.1754,0.14,0.123,0.1177,0.1226,0.1239,0.1262,0.1236,0.1231,0.0,0.1282,0.1295,0.1297,0.1297,0.1297,0.1281,0.1232,0.1238,0.1224,0.1196,0.1156,0.1184,0.1138,0.1114,0.1022,0.0964,0.0878,0.0635,0.0355,0.0176,0.0035,0.0,0.0,0.0,0.0,2.3996,2.3492,2.2346,2.1676,2.1291,2.163,2.1557,2.12,2.1129,2.1339,2.1551,2.0108,1.933,1.905,1.7715,0.0,1.7547,1.7952,1.7676,1.6908,1.7152,1.6679,1.5648,1.5619,1.5362,1.4977,1.4671,1.4204,1.3621,1.3307,1.2402,1.0997,1.0447,1.0104,0.9955,1.0196,1.0454,1.0755,1.0991,1.1111,1.1111,1.0797,1.0574,1.0298,1.0021,0.9757,0.9522,0.9245,0.9101,0.9071,0.8367,0.773,0.7255,0.0,0.0,0.0,0.0,0.0,0.0,0.0,0.0,0.0,0.0,0.0,0.0,0.0,0.0,0.0,0.3775,0.0,0.4498,0.4644,0.0,0.0,0.0,0.3764,0.3482,0.3285,0.3012,0.2551,0.0,0.0,0.1388,0.131,0.1302,0.1293,0.1232,0.1226,0.1293,0.1234,0.1225,0.1293,0.1297,0.1297,0.1297,0.1291,0.1241,0.1219,0.1208,0.1144,0.1134,0.1083,0.1106,0.1083,0.1099,0.1047,0.0838,0.071,0.054,0.0353,0.0141,0.0,0.0,0.0,0.0,2.4707,2.4036,2.3742,2.3171,2.2455,2.2236,2.2089,2.1961,2.1544,2.1471,2.1641,2.0795,2.0165,1.9652,1.9025,1.8931,1.9286,1.9252,1.9318,1.9453,1.9161,1.8768,1.8282,1.7959,1.7589,1.718,1.6627,1.6254,1.6067,1.5328,1.4491,1.3589,1.2798,1.166,1.0266,1.046,1.0755,1.1015,1.1081,1.1117,1.1099,1.0629,1.0393,1.0292,0.9853,0.9576,0.9484,0.9245,0.9101,0.9083,0.8536,0.8078,0.7748,0.6937,0.0,0.0,0.0,0.0,0.0,0.0,0.0,0.0,0.0,0.4119,0.318,0.0,0.3836,0.0,0.4187,0.4508,0.4779,0.4741,0.0,0.0,0.4696,0.4701,0.4881,0.4381,0.4028,0.4041,0.3647,0.3067,0.2306,0.221,0.195,0.1413,0.1291,0.1288,0.1295,0.1291,0.1288,0.1295,0.1297,0.1297,0.1295,0.1237,0.122,0.1175,0.1174,0.1102,0.1088,0.1101,0.1084,0.1111,0.1114,0.1086,0.1021,0.0889,0.0697,0.0465,0.0217,0.0,0.0,0.0,0.0,2.478,2.4211,2.4211,2.3895,2.3446,2.2812,2.2446,2.2254,2.1735,2.1607,2.1668,2.1038,2.0564,2.0159,1.9706,1.9783,2.028,2.0078,2.0144,2.0536,2.0202,1.9757,1.9213,1.899,1.8521,1.7878,1.7578,1.7204,1.6747,1.6297,1.5623,1.4705,1.3963,1.2989,1.185,1.1204,1.0966,1.1111,1.1117,1.1117,1.1099,1.0563,1.0333,1.028,0.9787,0.9462,0.9336,0.9065,0.8921,0.8909,0.8399,0.8057,0.7895,0.7309,0.6799,0.0,0.0,0.0,0.0,0.0,0.0,0.0,0.0,0.0,0.0,0.0,0.4423,0.4238,0.449,0.4762,0.4989,0.4999,0.5088,0.5216,0.5223,0.5304,0.5566,0.5208,0.4906,0.4778,0.4402,0.3852,0.3147,0.2737,0.2365,0.1881,0.1532,0.1297,0.1297,0.1297,0.1297,0.1297,0.1297,0.1297,0.1297,0.1232,0.1206,0.1191,0.1117,0.1082,0.1104,0.1099,0.1096,0.1096,0.1141,0.1151,0.1151,0.0978,0.0777,0.0649,0.0401,0.0111,0.0,0.0,0.0,2.4587,2.4211,2.4211,2.4211,2.4146,2.3242,2.2702,2.2327,2.1888,2.1687,2.1668,2.1027,2.0707,2.0552,2.0021,2.0193,2.0804,2.0604,2.0589,2.0826,2.0835,2.0297,1.9402,1.935,1.8852,1.7951,1.8063,1.7708,1.6796,1.6911,1.6411,1.5262,1.4624,1.4115,1.3661,1.212,1.1298,1.1223,1.1149,1.1117,1.1105,1.0563,1.0333,1.0309,0.9751,0.9348,0.9107,0.8878,0.874,0.8692,0.8243,0.7985,0.7937,0.7527,0.7133,0.0,0.6611,0.0,0.0,0.0,0.0,0.0,0.0,0.0,0.0,0.5284,0.5121,0.4819,0.491,0.5057,0.5147,0.5311,0.5426,0.5429,0.5525,0.5664,0.5786,0.5817,0.5623,0.5184,0.5001,0.4617,0.3967,0.3222,0.2835,0.2655,0.2002,0.1571,0.1453,0.1375,0.1297,0.1297,0.1297,0.1297,0.1294,0.1232,0.1204,0.1176,0.1144,0.1112,0.1089,0.11,0.1113,0.1115,0.1165,0.1186,0.1195,0.1049,0.0906,0.0873,0.0583,0.0296,0.0115,0.0,0.0,2.4537,2.4211,2.4211,2.4211,2.4137,2.3242,2.2858,2.2739,2.2007,2.1687,2.1632,2.0918,2.0726,2.0934,2.0203,2.0313,2.1021,2.0978,2.1162,2.1508,2.1508,2.1082,2.0295,2.0268,1.9801,1.9051,1.9015,1.8944,1.8736,1.8616,1.7909,1.6631,1.5843,1.4925,1.3807,0.0,0.0,0.0,1.1372,1.1117,1.1099,1.0598,1.0333,1.028,0.9564,0.0,0.9095,0.9047,0.8927,0.8716,0.8585,0.0,0.0,0.0,0.0,0.0,0.0,0.0,0.0,0.0,0.0,0.0,0.7819,0.7366,0.6392,0.6223,0.6225,0.6342,0.5829,0.5474,0.5501,0.5528,0.5545,0.5552,0.5674,0.5772,0.58,0.5911,0.5925,0.5837,0.5919,0.5676,0.4881,0.4622,0.4278,0.3595,0.282,0.2315,0.2235,0.1688,0.1336,0.1297,0.1297,0.1297,0.1297,0.127,0.1172,0.1198,0.1156,0.1087,0.1112,0.1095,0.1086,0.1087,0.1089,0.1104,0.1126,0.1094,0.0997,0.0907,0.0692,0.0478,0.0303,0.0114,0.0,2.4395,0.0,2.4211,2.4211,0.0,2.3242,2.2913,2.2849,2.2044,2.1687,2.165,2.1089,2.0924,2.1071,2.0484,2.0539,2.1108,2.1108,2.1337,2.1678,2.152,2.1108,2.0512,2.0278,1.9825,1.9161,1.9262,1.9192,1.8993,1.8773,1.8312,1.752,1.6535,1.5675,1.4924,1.3879,1.3032,1.2445,1.1855,1.1558,1.1502,1.0741,1.0333,1.0274,0.9654,0.0,0.0,0.0,0.0,0.0,0.0,0.0,0.0,0.0,0.0,0.7957,0.781,0.7792,0.7919,0.7937,0.8166,0.8656,0.883,0.8462,0.742,0.7207,0.6936,0.6609,0.6283,0.5962,0.5627,0.565,0.5694,0.5701,0.5827,0.5878,0.5892,0.6051,0.6142,0.6149,0.6252,0.6103,0.5709,0.524,0.4846,0.4416,0.3679,0.2978,0.251,0.1805,0.1336,0.1297,0.1297,0.1297,0.1294,0.1232,0.1174,0.1206,0.1174,0.1141,0.1088,0.1121,0.1151,0.1104,0.1144,0.1127,0.1139,0.1072,0.1005,0.1016,0.0801,0.0585,0.0445,0.0223,0.0,2.4211,2.4211,2.4211,2.4211,2.4137,2.329,2.2821,2.2648,0.0,0.0,0.0,2.1291,2.1145,2.1181,2.0805,2.0799,2.1209,2.1218,2.1401,2.1659,2.13,2.0897,2.0512,2.0076,1.9593,1.9091,1.9222,1.9152,1.8794,1.8536,1.8255,1.7929,1.6856,1.6147,1.5816,1.4587,1.3688,1.3193,1.2519,1.212,1.199,1.0989,1.0431,1.0333,0.9739,0.9336,0.9107,0.9101,0.8896,0.8487,0.8457,0.8429,0.8451,0.8387,0.8481,0.8686,0.8704,0.8734,0.877,0.8776,0.889,0.9149,0.9468,0.9277,0.8474,0.8162,0.772,0.702,0.6813,0.6495,0.5948,0.5813,0.5813,0.584,0.5956,0.6,0.6033,0.6218,0.6289,0.63,0.6296,0.63,0.6219,0.5673,0.5237,0.5121,0.4533,0.36,0.2665,0.1806,0.1297,0.1297,0.1297,0.1297,0.1293,0.1278,0.1221,0.1221,0.1196,0.1166,0.1148,0.1149,0.1147,0.1123,0.1139,0.1182,0.1155,0.1046,0.0977,0.1122,0.0869,0.0614,0.054,0.0288,0.0,2.4211,2.4211,2.4211,2.4211,2.4137,2.3251,2.251,2.1861,2.1742,2.1687,2.1668,2.1291,2.131,2.1577,2.1165,2.1202,2.1595,2.1604,2.1641,2.1668,2.1257,2.0897,2.0512,2.0076,1.9664,1.9289,1.9301,1.9262,1.9146,1.8683,1.8121,1.7565,1.6726,1.5883,1.5096,1.4665,1.4418,1.4353,1.3295,1.2526,1.1996,1.1413,1.0811,1.0297,0.9558,0.9143,0.9101,0.9101,0.9065,0.8993,0.8987,0.8987,0.8981,0.8747,0.8674,0.8704,0.8704,0.8806,0.9023,0.9041,0.9161,0.945,0.9901,1.0036,0.9663,0.9201,0.8966,0.897,0.7848,0.7094,0.6944,0.6266,0.5871,0.5979,0.5979,0.6081,0.6242,0.6282,0.63,0.63,0.63,0.63,0.6257,0.6141,0.6025,0.5983,0.5237,0.4263,0.2938,0.1805,0.1375,0.1297,0.1297,0.1297,0.1296,0.1294,0.1287,0.1289,0.1225,0.1203,0.1156,0.1162,0.1136,0.1087,0.111,0.1105,0.1123,0.1092,0.1022,0.0987,0.0775,0.0597,0.0553,0.0241,0.0,2.4211,2.4211,2.4211,2.4211,2.4146,2.3251,2.2437,2.1714,2.1687,2.1687,2.1668,2.153,2.1513,2.1668,2.1495,2.1504,2.1687,2.1687,2.1568,2.1374,2.0936,2.0576,2.0149,1.9787,1.9485,1.9301,1.9292,1.9292,1.9256,1.8791,1.8323,1.7775,1.6792,1.5987,1.5415,1.507,1.4892,1.4756,1.384,1.3251,1.2974,1.2116,1.1361,1.0805,1.0335,1.0006,0.9756,0.9756,0.9687,0.9553,0.9248,0.9101,0.9095,0.8981,0.8987,0.91,0.9143,0.9197,0.9318,0.9456,0.9594,0.9721,1.0075,1.0244,1.013,1.0032,0.9817,0.9408,0.8416,0.7647,0.7245,0.6518,0.6119,0.6146,0.6152,0.6183,0.6282,0.63,0.63,0.63,0.63,0.63,0.63,0.63,0.63,0.6222,0.555,0.4652,0.3915,0.2743,0.1766,0.1414,0.1297,0.1297,0.1297,0.1297,0.1297,0.1297,0.1285,0.123,0.1217,0.1183,0.1159,0.1092,0.1108,0.1099,0.1101,0.0995,0.096,0.0995,0.073,0.0556,0.0483,0.0244,0.0,2.4211,2.4211,2.4211,2.4101,2.3822,2.3068,2.2355,2.1714,2.1687,2.1687,2.1687,2.1687,2.1687,2.1687,2.1687,2.1687,2.1687,2.1687,2.1467,2.1089,2.0704,2.0268,1.9875,1.9503,1.9292,1.9292,1.9292,1.9292,1.9246,1.8898,1.842,1.7852,1.683,1.614,1.5805,1.5488,1.524,1.5007,1.4517,1.404,1.3641,1.2666,1.1907,1.1296,1.0984,1.0737,1.046,1.0364,1.019,1.0006,0.9587,0.9309,0.9191,0.9191,0.9287,0.9454,0.9478,0.9546,0.958,0.9847,0.9991,1.0003,1.0232,1.0417,1.04,1.0623,1.0485,0.9676,0.9073,0.8384,0.7658,0.6973,0.649,0.6335,0.63,0.6293,0.63,0.63,0.63,0.63,0.63,0.63,0.63,0.63,0.63,0.618,0.5553,0.5043,0.4849,0.368,0.2586,0.2,0.157,0.1335,0.1297,0.1297,0.1297,0.1297,0.1296,0.1285,0.1228,0.1218,0.1192,0.1145,0.109,0.1108,0.1083,0.101,0.0947,0.0988,0.0797,0.0561,0.0459,0.0325,0.0,2.4211,2.4211,2.4211,2.373,2.3023,2.2547,2.2099,2.1723,2.1687,2.1687,2.1687,2.1687,2.1687,2.1687,2.1687,2.1687,2.1687,2.1687,2.1458,2.1037,2.0704,2.0268,1.9857,1.9494,1.9292,1.9292,1.9292,1.9283,1.9237,1.8861,1.8198,1.7316,1.6625,1.6149,1.5832,1.578,1.563,1.547,1.5559,1.4855,1.3354,1.2926,1.2291,1.1411,1.0722,1.0548,1.0895,1.0516,1.0288,1.0268,1.0224,0.9945,0.9532,0.9474,0.948,0.9478,0.9516,0.9612,0.9853,1.0112,1.0262,1.028,1.0503,1.0647,1.0695,1.0918,1.093,1.0532,1.004,0.9364,0.8632,0.7855,0.7099,0.6493,0.6374,0.63,0.63,0.63,0.63,0.63,0.63,0.63,0.63,0.63,0.63,0.63,0.567,0.5162,0.5085,0.4341,0.3677,0.3287,0.2391,0.1492,0.1453,0.1297,0.1415,0.1375,0.1297,0.1293,0.1284,0.1228,0.12,0.1172,0.114,0.1115,0.109,0.1077,0.1019,0.0968,0.0875,0.0743,0.047,0.0408,0.0412,2.4211,2.4211,2.4211,2.3694,2.2895,2.2455,2.2053,2.1705,2.1687,2.1687,2.1687,2.1687,2.1687,2.1687,2.1687,2.1687,2.1687,2.1687,2.1339,2.0787,2.0585,2.014,1.9577,1.9393,1.9292,1.9292,1.9292,1.9173,1.888,1.8311,1.7789,1.7387,1.689,1.6525,1.6272,1.6158,1.6026,1.5877,1.5583,1.4975,1.4119,1.3764,1.3154,1.2191,1.1809,1.1591,1.1452,1.1272,1.1178,1.1153,1.0618,1.0212,0.9989,0.967,0.9478,0.9522,0.966,0.9859,1.0118,1.0382,1.0527,1.0527,1.0767,1.0954,1.0948,1.1051,1.1057,1.088,1.0312,0.9728,0.9387,0.8699,0.7902,0.7215,0.7026,0.6837,0.6338,0.63,0.63,0.63,0.63,0.63,0.63,0.63,0.63,0.6296,0.5944,0.5747,0.5709,0.5043,0.4572,0.4377,0.3482,0.2898,0.2702,0.2275,0.208,0.1923,0.161,0.1297,0.1372,0.1288,0.1267,0.1235,0.1277,0.1244,0.1109,0.1103,0.1074,0.1022,0.0943,0.0814,0.0531,0.0461,0.0384,2.4211,2.4174,2.3981,2.3483,2.2867,2.2336,2.1961,2.1714,2.1687,2.1687,2.1687,2.1687,2.1687,2.1687,2.1687,2.1687,2.1687,2.1687,2.1248,2.0585,2.0521,2.0081,1.9356,1.9292,1.9292,1.9292,1.9292,1.9091,1.8678,1.8027,1.7614,1.7458,1.7101,1.6795,1.6612,1.6482,1.6377,1.6193,1.5746,1.5303,1.4848,1.4449,1.3769,1.2806,1.2531,1.2313,1.2058,1.1872,1.1809,1.1778,1.109,1.0586,1.0301,0.9926,0.967,0.9546,0.9829,1.0088,1.0321,1.0605,1.0828,1.0803,1.1009,1.1117,1.1117,1.1117,1.1117,1.1068,1.055,1.0218,0.9846,0.9387,0.8699,0.794,0.7672,0.7253,0.6718,0.649,0.63,0.63,0.63,0.63,0.63,0.63,0.63,0.6296,0.6296,0.63,0.6222,0.5747,0.5356,0.5318,0.4846,0.43,0.3869,0.3287,0.2899,0.2782,0.2392,0.2157,0.2,0.1999,0.1983,0.2373,0.2004,0.1716,0.1676,0.1557,0.1352,0.1189,0.1074,0.0995,0.07,0.0549,0.0392,2.4211,2.4101,2.3327,2.2968,2.2849,2.2071,2.1723,2.1687,2.1687,2.1687,2.1687,2.1687,2.1687,2.1687,2.1668,2.1687,2.1687,2.1668,2.1238,2.0567,2.0503,2.0081,1.9329,1.9292,1.9292,1.9292,1.9292,1.9081,1.8678,1.8228,1.7889,1.7513,1.7092,1.6795,1.6673,1.676,1.6751,1.6541,1.6274,1.5936,1.5431,1.4744,1.393,1.3063,1.2398,1.2243,1.2436,1.2058,1.184,1.1809,1.1709,1.1272,1.046,1.0269,1.0021,0.9635,0.9991,1.028,1.0364,1.0803,1.1075,1.1081,1.1093,1.1117,1.1117,1.1117,1.1117,1.1117,1.1037,1.0706,1.0105,0.9954,0.9496,0.8737,0.7978,0.7638,0.7403,0.676,0.6335,0.63,0.63,0.63,0.63,0.63,0.63,0.63,0.63,0.63,0.6261,0.6222,0.6141,0.6141,0.5983,0.5634,0.4222,0.3832,0.3793,0.3638,0.3521,0.348,0.3636,0.3703,0.358,0.3463,0.3236,0.2935,0.2523,0.2226,0.2025,0.1792,0.1524,0.1289,0.1449,0.0903,0.0824,2.4211,2.4128,2.3242,2.2913,2.2821,2.2034,2.1687,2.1687,2.1687,2.1687,2.1687,2.1687,2.1687,2.1687,2.1412,2.144,2.1641,2.1456,2.1034,2.053,2.0223,1.9833,1.9347,1.9292,1.9292,1.9292,1.9292,1.8971,1.831,1.7926,1.7513,1.7165,1.6982,1.6864,1.683,1.6864,1.6874,1.6731,1.6233,1.5803,1.5547,1.4768,1.4091,1.3657,1.292,1.256,1.259,1.2406,1.2305,1.2305,1.1988,1.1646,1.124,1.0649,1.0129,0.9841,1.0094,1.037,1.0592,1.0912,1.1117,1.1117,1.1117,1.1117,1.1117,1.1117,1.1117,1.1117,1.1117,1.0925,1.0775,1.0663,1.0363,0.9614,0.9198,0.8585,0.7748,0.7215,0.6911,0.6454,0.63,0.63,0.63,0.63,0.63,0.63,0.63,0.63,0.63,0.63,0.63,0.63,0.6257,0.6103,0.5631,0.4885,0.4533,0.4377,0.4261,0.3908,0.3869,0.3988,0.3911,0.397,0.3971,0.3852,0.3311,0.3055,0.2825,0.2832,0.25,0.2267,0.2543,0.2074,0.1958,2.4211,2.4073,2.3281,2.2913,2.2812,2.2034,2.1687,2.1687,2.1687,2.1687,2.1687,2.1687,2.1687,2.1623,2.1248,2.1245,2.1475,2.1108,2.0662,2.0328,2.0012,1.9674,1.9356,1.9292,1.9292,1.9292,1.9292,1.8898,1.8145,1.7844,1.7431,1.6936,1.6908,1.6908,1.6908,1.6908,1.6908,1.6762,1.6101,1.5689,1.5588,1.4765,1.4207,1.395,1.3376,1.295,1.2744,1.2683,1.266,1.256,1.2243,1.1996,1.174,1.0928,1.0328,1.0207,1.0335,1.0491,1.0713,1.0966,1.1117,1.1117,1.1117,1.1117,1.1117,1.1117,1.1117,1.1117,1.1117,1.1117,1.1117,1.108,1.0887,1.0331,1.0067,0.9382,0.8089,0.7672,0.7138,0.649,0.63,0.63,0.63,0.63,0.63,0.63,0.63,0.63,0.63,0.63,0.63,0.63,0.63,0.6296,0.6064,0.5631,0.5395,0.5276,0.5121,0.4649,0.4416,0.4455,0.4453,0.4518,0.4488,0.4365,0.4192,0.3926,0.3846,0.3898,0.3558,0.3166,0.3283,0.3322,0.3088,2.4202,2.4055,2.3281,2.2885,2.2748,2.2016,2.1687,2.1687,2.1687,2.1687,2.1687,2.1687,2.1668,2.1568,2.1227,2.108,2.097,2.0622,2.0292,1.9948,1.9875,1.9668,1.9311,1.9292,1.9292,1.9292,1.9292,1.8889,1.8118,1.8017,1.7678,1.7037,1.6908,1.6908,1.6908,1.6908,1.6908,1.6752,1.6138,1.5735,1.5565,1.4832,1.4273,1.4049,1.3692,1.3359,1.305,1.2897,1.2744,1.2621,1.2598,1.2344,1.1784,1.115,1.0751,1.067,1.0697,1.0725,1.0743,1.096,1.1117,1.1117,1.1117,1.1117,1.1117,1.1117,1.1117,1.1117,1.1117,1.1117,1.1117,1.1117,1.1074,1.0999,1.0438,0.9685,0.8851,0.7978,0.7215,0.6567,0.6377,0.63,0.63,0.63,0.63,0.63,0.63,0.63,0.63,0.63,0.63,0.63,0.63,0.63,0.63,0.6257,0.6257,0.618,0.606,0.5786,0.5631,0.5592,0.5515,0.5541,0.55,0.5375,0.5062,0.4794,0.4491,0.4416,0.4144,0.4183,0.43,0.4297,0.3908,2.3987,2.3684,2.3123,2.273,2.2428,2.1916,2.1687,2.1687,2.1687,2.1687,2.1687,2.1687,2.1531,2.1264,2.0888,2.0567,2.0273,1.9879,1.976,1.982,1.9632,1.9448,1.932,1.9292,1.9292,1.9292,1.9292,1.8898,1.821,1.8081,1.7715,1.7055,1.6908,1.6908,1.6908,1.6908,1.6908,1.6844,1.6395,1.5991,1.568,1.5153,1.4699,1.4354,1.4139,1.3929,1.3688,1.3103,1.2744,1.2621,1.259,1.2367,1.1893,1.1796,1.1474,1.085,1.1127,1.1114,1.0785,1.0918,1.1117,1.1117,1.1117,1.1117,1.1117,1.1117,1.1117,1.1117,1.1117,1.1117,1.1117,1.1117,1.1117,1.1117,1.085,1.0363,0.9496,0.8322,0.7518,0.7138,0.6644,0.6338,0.63,0.63,0.63,0.63,0.63,0.63,0.63,0.63,0.63,0.63,0.63,0.63,0.63,0.63,0.63,0.63,0.63,0.63,0.63,0.63,0.63,0.63,0.63,0.618,0.5867,0.5592,0.5237,0.5318,0.5395,0.5473,0.5512,0.5237,0.4807,2.3776,2.3444,2.2904,2.2529,2.2236,2.1851,2.1687,2.1687,2.1687,2.1687,2.1687,2.1687,2.1594,2.1264,2.0769,2.0393,2.009,1.9577,1.9439,1.9641,1.9457,1.9301,1.9292,1.9292,1.9292,1.9292,1.9292,1.8889,1.8118,1.8054,1.7679,1.7037,1.6908,1.6908,1.6908,1.6908,1.6908,1.6853,1.648,1.6184,1.5872,1.5377,1.4974,1.4723,1.4439,1.4207,1.398,1.3437,1.3072,1.2889,1.2858,1.2666,1.239,1.2534,1.231,1.176,1.1628,1.1561,1.121,1.1132,1.1117,1.1117,1.1117,1.1117,1.1117,1.1117,1.1117,1.1117,1.1117,1.1117,1.1117,1.1117,1.1117,1.1117,1.1074,1.0738,0.9916,0.8737,0.7863,0.7518,0.7061,0.6679,0.6374,0.63,0.63,0.63,0.63,0.63,0.63,0.63,0.63,0.63,0.63,0.63,0.63,0.63,0.63,0.63,0.63,0.63,0.63,0.63,0.63,0.63,0.63,0.63,0.6025,0.6103,0.5944,0.6257,0.63,0.6141,0.5944,0.6022,0.5709,2.3471,2.3334,2.2602,2.2272,2.2181,2.1833,2.1687,2.1687,2.1687,2.1687,2.1687,2.1687,2.165,2.1458,2.0833,2.0424,2.0328,1.965,1.9311,1.9347,1.9292,1.9292,1.9292,1.9292,1.9292,1.9292,1.9292,1.888,1.8109,1.8072,1.7706,1.6982,1.6908,1.6908,1.6908,1.6908,1.6908,1.6853,1.6551,1.6334,1.6257,1.5625,1.5175,1.5129,1.4669,1.4318,1.4168,1.3934,1.361,1.3359,1.3319,1.3322,1.3322,1.3292,1.3289,1.301,1.2485,1.2321,1.2057,1.1681,1.1372,1.1403,1.1298,1.1149,1.1186,1.1223,1.1223,1.1223,1.1186,1.1186,1.1149,1.1186,1.1186,1.1149,1.1149,1.0738,1.0067,0.9273,0.8585,0.7978,0.7599,0.7292,0.6606,0.649,0.6412,0.63,0.63,0.63,0.63,0.63,0.63,0.63,0.63,0.63,0.63,0.63,0.63,0.63,0.63,0.63,0.63,0.63,0.63,0.63,0.63,0.63,0.63,0.63,0.63,0.63,0.63,0.63,0.63,0.63,0.6257,2.3142,2.2584,2.2364,2.2117,2.1861,2.1723,2.1687,2.1687,2.1687,2.1687,2.1687,2.1687,2.1513,2.1193,2.0769,2.0332,2.0044,1.9567,1.9292,1.9292,1.9292,1.9292,1.9292,1.9292,1.9292,1.9292,1.9274,1.8889,1.8136,1.8081,1.7688,1.6936,1.6908,1.6908,1.6908,1.6908,1.6908,1.6908,1.6826,1.6553,1.6331,1.612,1.5845,1.5515,1.5126,1.4863,1.4756,1.4381,1.392,1.3506,1.374,1.3885,1.3976,1.4378,1.4452,1.4074,1.4042,1.3875,1.3404,1.2748,1.2425,1.2358,1.1774,1.1521,1.1558,1.1521,1.1558,1.1558,1.1521,1.1484,1.1372,1.1446,1.1453,1.1335,1.1223,1.1031,1.0663,1.0099,0.9463,0.9273,0.8742,0.8055,0.7446,0.7176,0.6949,0.6528,0.6374,0.6296,0.6335,0.63,0.63,0.63,0.63,0.63,0.63,0.63,0.63,0.63,0.63,0.63,0.63,0.63,0.63,0.63,0.63,0.63,0.63,0.63,0.63,0.63,0.63,0.63,0.63,0.63,0.63,2.2702,2.2263,2.2099,2.1897,2.1705,2.1687,2.1687,2.1687,2.1687,2.1687,2.165,2.153,2.1438,2.1275,2.0778,2.0369,2.0136,1.9751,1.9476,1.9292,1.9292,1.9292,1.9292,1.9292,1.9292,1.9292,1.9292,1.8843,1.821,1.8081,1.7669,1.7046,1.6908,1.6908,1.6908,1.6908,1.6908,1.6908,1.6908,1.678,1.6544,1.6361,1.6211,1.5909,1.557,1.534,1.5313,1.5058,1.4651,1.4316,1.4347,1.4509,1.4719,1.5146,1.5274,1.4873,1.4884,1.4565,1.3911,1.3266,1.2755,1.2395,1.1922,1.1737,1.1669,1.1706,1.1706,1.1669,1.1706,1.1632,1.1595,1.1632,1.1632,1.1558,1.1416,1.1298,1.1117,1.0706,1.0255,0.9916,0.9463,0.8889,0.8131,0.8016,0.7595,0.7061,0.6872,0.6641,0.6374,0.6335,0.63,0.63,0.63,0.63,0.63,0.63,0.63,0.63,0.63,0.63,0.63,0.63,0.63,0.63,0.63,0.63,0.63,0.63,0.63,0.63,0.63,0.63,0.63,0.63,0.63,2.2263,2.219,2.1833,2.1687,2.1687,2.1687,2.1687,2.1687,2.1687,2.1687,2.1623,2.1302,2.1392,2.1577,2.0781,2.0484,2.0351,1.9875,1.9622,1.9384,1.9292,1.9292,1.9292,1.9292,1.9292,1.9292,1.9292,1.8889,1.8347,1.8145,1.7715,1.7165,1.6963,1.6908,1.6908,1.6908,1.6908,1.6908,1.6908,1.6899,1.6798,1.6587,1.6431,1.634,1.5982,1.5707,1.5661,1.5606,1.5474,1.5217,1.5127,1.5269,1.5553,1.573,1.5776,1.566,1.5417,1.4939,1.407,1.3593,1.2828,1.2291,1.1959,1.1744,1.183,1.19,1.1888,1.1861,1.1806,1.1869,1.1781,1.1781,1.1788,1.182,1.1783,1.1608,1.1297,1.1167,1.085,1.0186,1.003,0.9647,0.9117,0.8742,0.8508,0.7787,0.7557,0.7292,0.6949,0.6756,0.6528,0.63,0.63,0.63,0.63,0.63,0.63,0.63,0.63,0.63,0.63,0.63,0.63,0.63,0.63,0.63,0.63,0.63,0.63,0.63,0.63,0.63,0.63,0.63,0.63,2.2099,2.1806,2.1723,2.1687,2.1687,2.1687,2.1687,2.1687,2.1687,2.1687,2.1659,2.1577,2.1412,2.1236,2.075,2.0314,2.0063,1.9677,1.9375,1.9329,1.9292,1.9292,1.9292,1.9292,1.9292,1.9292,1.9292,1.9026,1.8614,1.8191,1.7871,1.7403,1.7037,1.6908,1.6908,1.6908,1.6908,1.6908,1.6908,1.6908,1.6908,1.6826,1.6743,1.6707,1.6386,1.6028,1.5753,1.5689,1.5799,1.5949,1.6004,1.5999,1.6121,1.6397,1.651,1.6502,1.6427,1.6079,1.5401,1.4565,1.3882,1.3098,1.2512,1.2194,1.2214,1.2386,1.2379,1.2313,1.2386,1.2368,1.2225,1.2029,1.2115,1.2271,1.2323,1.2209,1.1948,1.1589,1.1185,1.0925,1.0775,1.055,0.9765,0.9652,0.9268,0.8623,0.8284,0.8055,0.7676,0.7292,0.7061,0.6834,0.6567,0.6606,0.6528,0.6451,0.63,0.63,0.63,0.63,0.63,0.63,0.63,0.63,0.63,0.63,0.63,0.63,0.63,0.63,0.63,0.63,0.63,0.63,0.63,2.1888,2.1696,2.1687,2.1687,2.1687,2.1687,2.1687,2.1687,2.1687,2.1687,2.1641,2.1548,2.1266,2.108,2.0695,2.0301,1.9866,1.9494,1.9301,1.9292,1.9292,1.9292,1.9292,1.9292,1.9292,1.9292,1.9292,1.9072,1.8705,1.8283,1.7871,1.7495,1.7092,1.6927,1.6908,1.6908,1.6908,1.6908,1.6908,1.6908,1.6908,1.6908,1.6908,1.6899,1.6707,1.6468,1.6303,1.6285,1.6386,1.6532,1.6587,1.6587,1.6606,1.678,1.689,1.6908,1.6908,1.6551,1.5833,1.5357,1.4681,1.3608,1.3098,1.2703,1.2429,1.2496,1.2583,1.2583,1.2683,1.275,1.2726,1.2662,1.2692,1.2758,1.2824,1.2746,1.2505,1.2101,1.1621,1.1353,1.1223,1.0962,1.0625,1.04,1.003,0.942,0.9273,0.9008,0.8399,0.8055,0.794,0.7672,0.7176,0.6949,0.6837,0.6644,0.6296,0.63,0.63,0.63,0.63,0.63,0.63,0.63,0.63,0.63,0.63,0.63,0.63,0.63,0.63,0.63,0.63,0.63,0.63,2.1687,2.1687,2.1687,2.1687,2.1687,2.1687,2.1687,2.1687,2.1687,2.1687,2.1614,2.1291,2.1108,2.0934,2.0576,2.02,1.9815,1.9512,1.9292,1.9292,1.9292,1.9292,1.9292,1.9292,1.9292,1.9292,1.9292,1.9091,1.8797,1.8319,1.7944,1.7568,1.711,1.6936,1.6908,1.6908,1.6908,1.6908,1.6908,1.6908,1.6908,1.6908,1.6908,1.6899,1.6881,1.6844,1.678,1.6798,1.6862,1.6908,1.6908,1.6908,1.6908,1.6908,1.6908,1.6908,1.6908,1.6551,1.5974,1.5648,1.5117,1.3789,1.3499,1.3171,1.2709,1.251,1.2576,1.2717,1.2844,1.2939,1.3166,1.3087,1.3134,1.322,1.3234,1.3194,1.2995,1.2648,1.2235,1.169,1.1546,1.132,1.116,1.0925,1.0594,1.0255,1.0148,0.9841,0.9236,0.8818,0.8699,0.8432,0.7902,0.7714,0.7638,0.7142,0.6756,0.6602,0.6567,0.6412,0.6374,0.63,0.63,0.63,0.63,0.63,0.63,0.63,0.63,0.63,0.63,0.63,0.63,0.63,0.63,2.1687,2.1687,2.1687,2.1687,2.1687,2.1687,2.1687,2.1687,2.1687,2.1687,2.1614,2.1291,2.0924,2.0585,2.0168,1.9806,1.9512,1.9329,1.9292,1.9292,1.9292,1.9292,1.9292,1.9292,1.9292,1.9292,1.9292,1.9228,1.9017,1.8475,1.8164,1.7844,1.7293,1.6954,1.6954,1.6908,1.6908,1.6908,1.6908,1.6908,1.6908,1.6908,1.6908,1.6908,1.6908,1.6908,1.6908,1.6908,1.6908,1.6908,1.6908,1.6908,1.6908,1.6908,1.6908,1.6908,1.6908,1.6577,1.6044,1.5833,1.5365,1.4537,1.3998,1.3622,1.3316,1.2968,1.2869,1.2884,1.3065,1.318,1.32,1.33,1.3327,1.3447,1.3533,1.3527,1.3479,1.3319,1.2975,1.2305,1.2005,1.1726,1.1501,1.1272,1.0968,1.0743,1.0669,1.0406,0.9916,0.9576,0.942,0.9041,0.8589,0.8513,0.8475,0.7863,0.7369,0.7215,0.7061,0.6756,0.6644,0.6374,0.6296,0.6528,0.6412,0.63,0.63,0.63,0.63,0.63,0.63,0.63,0.63,0.63,0.63,2.1687,2.1687,2.1687,2.1687,2.1687,2.1687,2.1687,2.1687,2.1687,2.1568,2.1357,2.1172,2.0769,2.025,2.0003,1.9655,1.9393,1.9292,1.9292,1.9292,1.9292,1.9292,1.9292,1.9292,1.9292,1.9292,1.9292,1.9292,1.9237,1.8695,1.843,1.821,1.7614,1.722,1.7156,1.7009,1.6936,1.6908,1.6908,1.6908,1.6908,1.6908,1.6908,1.6908,1.6908,1.6908,1.6908,1.6908,1.6908,1.6908,1.6908,1.6908,1.6908,1.6908,1.6908,1.6908,1.6908,1.676,1.6438,1.6333,1.6044,1.5321,1.4832,1.4576,1.4278,1.3835,1.3348,1.3305,1.3507,1.3661,1.3687,1.3641,1.3741,1.378,1.382,1.3861,1.3868,1.3861,1.3431,1.2902,1.2525,1.2152,1.1733,1.1501,1.1266,1.1155,1.1117,1.0856,1.0481,1.0331,1.0099,0.9911,0.9496,0.9155,0.9079,0.8585,0.8127,0.7978,0.771,0.7369,0.7253,0.7099,0.6984,0.7022,0.6834,0.6451,0.63,0.63,0.63,0.63,0.63,0.63,0.63,0.63,0.63,2.1687,2.1687,2.1687,2.1687,2.1687,2.1687,2.1687,2.1687,2.1687,2.1467,2.1126,2.0979,2.0585,2.0053,1.9806,1.9604,1.9292,1.9292,1.9292,1.9292,1.9292,1.9292,1.9292,1.9292,1.9292,1.9292,1.9292,1.9292,1.9228,1.8861,1.8687,1.8348,1.7798,1.7431,1.7284,1.7018,1.6927,1.6908,1.6908,1.6908,1.6908,1.6908,1.6908,1.6908,1.6908,1.6908,1.6908,1.6908,1.6908,1.6908,1.6908,1.6908,1.6908,1.6908,1.6908,1.6908,1.6908,1.6908,1.6874,1.6839,1.6596,1.6201,1.5997,1.5755,1.5404,1.4752,1.4034,1.3939,1.3916,1.4021,1.3995,1.4055,1.4062,1.4062,1.4062,1.4075,1.4055,1.4015,1.3948,1.3465,1.3002,1.2583,1.2158,1.1707,1.1513,1.1229,1.1186,1.1117,1.0818,1.0893,1.0775,1.0738,1.0438,0.9949,0.9647,0.9311,0.9003,0.8889,0.8551,0.8169,0.8093,0.8055,0.7863,0.7557,0.7138,0.6795,0.6528,0.6296,0.63,0.63,0.63,0.63,0.63,0.63,0.63,2.1687,2.1687,2.1687,2.1687,2.1687,2.1687,2.1687,2.1668,2.165,2.1458,2.0979,2.0723,2.0287,1.9866,1.954,1.9375,1.9311,1.9292,1.9292,1.9292,1.9292,1.9292,1.9292,1.9292,1.9292,1.9292,1.9292,1.9292,1.9228,1.8926,1.8586,1.8275,1.7926,1.7403,1.7321,1.7101,1.6908,1.6917,1.6917,1.6908,1.6908,1.6908,1.6908,1.6908,1.6908,1.6908,1.6908,1.6908,1.6908,1.6908,1.6908,1.6908,1.6908,1.6908,1.6908,1.6908,1.6908,1.6908,1.6908,1.6917,1.7029,1.6902,1.6668,1.6558,1.6305,1.5709,1.4993,1.4739,1.4434,1.4237,1.425,1.413,1.4088,1.4088,1.4088,1.4088,1.4088,1.4082,1.4021,1.3955,1.3492,1.3048,1.259,1.2138,1.1725,1.147,1.126,1.1192,1.1117,1.1117,1.1117,1.0999,1.0962,1.0513,1.0282,0.9949,0.9803,0.9728,0.9463,0.9046,0.9003,0.8922,0.8318,0.7978,0.7561,0.7103,0.6756,0.6528,0.6374,0.63,0.63,0.63,0.63,0.63,0.63,2.1687,2.1687,2.1687,2.1687,2.1687,2.1687,2.1549,2.141,2.133,2.1025,2.0503,2.0232,1.9921,1.9604,1.9356,1.9301,1.9292,1.9292,1.9292,1.9292,1.9292,1.9292,1.9292,1.9292,1.9292,1.9292,1.9292,1.9292,1.9219,1.9146,1.8887,1.8724,1.8385,1.8174,1.7715,1.7431,1.7293,1.7193,1.7055,1.6917,1.6908,1.6908,1.6908,1.6908,1.6908,1.6908,1.6908,1.6908,1.6908,1.6908,1.6908,1.6908,1.6908,1.6908,1.6908,1.6908,1.6908,1.6908,1.6908,1.6917,1.7156,1.7349,1.7225,1.713,1.7128,1.688,1.6299,1.5957,1.5265,1.4894,1.4657,1.4377,1.4173,1.4088,1.4088,1.4088,1.4088,1.4088,1.4062,1.4021,1.3955,1.3506,1.3068,1.2635,1.2221,1.191,1.1614,1.1409,1.1266,1.1192,1.1155,1.108,1.108,1.0962,1.085,1.07,1.0594,1.0524,1.053,1.0186,1.0062,0.9793,0.9188,0.8775,0.8508,0.794,0.7138,0.6641,0.6451,0.6335,0.63,0.63,0.63,0.63,0.63,2.1687,2.1687,2.1687,2.1687,2.1687,2.1687,2.1458,2.1135,2.1126,2.0677,2.0012,1.9783,1.9586,1.9366,1.9311,1.9292,1.9292,1.9292,1.9292,1.9292,1.9292,1.9292,1.9292,1.9292,1.9292,1.9292,1.9292,1.9292,1.9292,1.9256,1.9201,1.9155,1.8733,1.8559,1.8385,1.7972,1.7614,1.7413,1.7082,1.6927,1.6908,1.6908,1.6908,1.6908,1.6908,1.6908,1.6908,1.6908,1.6908,1.6908,1.6908,1.6908,1.6908,1.6908,1.6908,1.6908,1.6908,1.6991,1.7055,1.7138,1.7284,1.7559,1.7889,1.8028,1.7951,1.8077,1.7836,1.7017,1.6232,1.5718,1.5311,1.4783,1.4454,1.425,1.4088,1.4088,1.4088,1.4088,1.4088,1.4062,1.4021,1.3975,1.3539,1.3101,1.2733,1.2395,1.2062,1.1671,1.1483,1.1334,1.1198,1.1161,1.1129,1.1129,1.1098,1.1092,1.1098,1.1172,1.1184,1.1091,1.0747,1.0492,1.0024,0.9685,0.9397,0.8737,0.7978,0.7215,0.6528,0.6374,0.63,0.63,0.63,0.6335,0.6374,2.1687,2.1687,2.1687,2.1687,2.1687,2.1687,2.1493,2.1053,2.108,2.0622,1.9829,1.9558,1.9375,1.9301,1.9292,1.9292,1.9292,1.9292,1.9292,1.9292,1.9292,1.9292,1.9292,1.9292,1.9292,1.9292,1.9292,1.9292,1.9292,1.9292,1.9081,1.8788,1.8861,1.8531,1.8348,1.8182,1.7816,1.755,1.7156,1.6954,1.6927,1.6908,1.6908,1.6908,1.6908,1.6908,1.6908,1.6908,1.6908,1.6908,1.6908,1.6908,1.6908,1.6908,1.6908,1.6908,1.6991,1.7119,1.7284,1.7385,1.766,1.8128,1.8566,1.8923,1.8813,1.8297,1.7997,1.7836,1.7107,1.637,1.5842,1.5318,1.5026,1.4573,1.437,1.425,1.4208,1.4088,1.4088,1.4088,1.4062,1.4021,1.3981,1.3532,1.324,1.2889,1.2434,1.2037,1.1796,1.162,1.1334,1.121,1.1148,1.1154,1.1172,1.1196,1.125,1.1323,1.1371,1.1304,1.1131,1.0863,1.0686,1.0376,0.9976,0.9375,0.8851,0.8241,0.7518,0.6679,0.6412,0.6834,0.6911,0.6984,0.6834,2.1687,2.1687,2.1687,2.1687,2.1687,2.1687,2.1312,2.0805,2.0741,2.025,1.95,1.9375,1.9292,1.9292,1.9292,1.9292,1.9292,1.9292,1.9292,1.9292,1.9292,1.9292,1.9292,1.9292,1.9292,1.9292,1.9292,1.9292,1.9292,1.9292,1.9246,1.9109,1.9045,1.9026,1.8843,1.8484,1.8109,1.7642,1.7348,1.7183,1.6927,1.6908,1.6908,1.6908,1.6908,1.6908,1.6908,1.6908,1.6908,1.6908,1.6908,1.6917,1.6954,1.6945,1.6963,1.7009,1.7156,1.7367,1.7495,1.7578,1.7789,1.844,1.8953,1.9292,1.9292,1.8926,1.8807,1.8527,1.7997,1.7269,1.7107,1.6494,1.5918,1.5228,1.4817,1.4657,1.4419,1.4334,1.413,1.413,1.413,1.4068,1.4035,1.3968,1.3693,1.3392,1.2903,1.2434,1.2215,1.196,1.172,1.15,1.1443,1.1397,1.1427,1.1389,1.1395,1.1473,1.1564,1.1528,1.1473,1.1375,1.1133,1.0871,1.0633,1.0176,0.9727,0.9279,0.8603,0.779,0.7624,0.7902,0.7863,0.7633,0.7518,2.1687,2.1687,2.1687,2.1687,2.1678,2.1559,2.1193,2.0723,2.0397,1.9971,1.9301,1.9292,1.9292,1.9292,1.9292,1.9292,1.9292,1.9292,1.9292,1.9292,1.9292,1.9292,1.9292,1.9292,1.9292,1.9292,1.9292,1.9292,1.9292,1.9292,1.9274,1.9265,1.9292,1.9256,1.9173,1.8898,1.8412,1.7981,1.755,1.7413,1.711,1.6963,1.6908,1.6908,1.6908,1.6908,1.6908,1.6908,1.6908,1.6908,1.6927,1.6982,1.7037,1.7101,1.7147,1.7303,1.7495,1.7697,1.7816,1.7926,1.8183,1.8825,1.9091,1.9274,1.9292,1.9292,1.9173,1.9173,1.8687,1.8278,1.8126,1.735,1.669,1.6,1.5801,1.5602,1.4985,1.4699,1.4377,1.4173,1.413,1.413,1.4075,1.4041,1.3961,1.3706,1.3379,1.2948,1.2705,1.2458,1.2169,1.2009,1.1854,1.1813,1.1772,1.1748,1.1757,1.1727,1.1805,1.183,1.1787,1.1709,1.1543,1.1275,1.1065,1.0895,1.0656,1.0308,0.9678,0.8894,0.8798,0.8702,0.8399,0.8208,0.836,2.1687,2.1687,2.1687,2.1687,2.165,2.13,2.1108,2.0869,2.0195,1.9705,1.932,1.9292,1.9292,1.9292,1.9292,1.9292,1.9292,1.9292,1.9292,1.9292,1.9292,1.9292,1.9292,1.9292,1.9292,1.9292,1.9292,1.9292,1.9292,1.9292,1.9292,1.9292,1.9292,1.9292,1.9265,1.8926,1.8715,1.855,1.7844,1.7578,1.7284,1.7037,1.6927,1.6908,1.6908,1.6908,1.7018,1.7027,1.7037,1.7027,1.7018,1.7101,1.7257,1.7303,1.7486,1.7862,1.7972,1.8247,1.8605,1.865,1.8852,1.9109,1.9265,1.9283,1.9292,1.9292,1.9292,1.9253,1.9134,1.8767,1.8359,1.7957,1.7423,1.6976,1.6739,1.637,1.576,1.5352,1.511,1.4664,1.4334,1.413,1.413,1.4082,1.4082,1.3955,1.3733,1.3464,1.3163,1.2912,1.26,1.2438,1.228,1.2209,1.2185,1.2152,1.2113,1.2065,1.2057,1.2097,1.2109,1.2067,1.1869,1.1648,1.1498,1.1352,1.1412,1.1406,1.0606,0.9815,0.9475,0.9256,0.8971,0.8941,0.9218,2.1687,2.1687,2.1687,2.1687,2.1668,2.1549,2.1193,2.0631,1.9907,1.9439,1.9329,1.9292,1.9292,1.9292,1.9292,1.9292,1.9292,1.9292,1.9292,1.9292,1.9292,1.9292,1.9292,1.9292,1.9292,1.9292,1.9292,1.9292,1.9292,1.9292,1.9292,1.9292,1.9292,1.9292,1.9283,1.9091,1.8916,1.8394,1.7981,1.7688,1.7183,1.7009,1.6927,1.6936,1.6936,1.7055,1.7275,1.7303,1.7303,1.7284,1.7284,1.7266,1.7257,1.7229,1.7376,1.7743,1.7935,1.8449,1.888,1.91,1.9136,1.9256,1.9292,1.9292,1.9292,1.9292,1.9292,1.9292,1.9292,1.9054,1.8935,1.8847,1.8439,1.7787,1.7464,1.7066,1.6617,1.6337,1.6049,1.5436,1.4992,1.4538,1.4377,1.4334,1.4334,1.4077,1.3854,1.37,1.3457,1.3269,1.3017,1.2833,1.2694,1.2647,1.2584,1.254,1.2491,1.2474,1.2416,1.2416,1.2394,1.2427,1.2359,1.2206,1.1994,1.1796,1.173,1.1633,1.1257,1.0741,1.0357,1.0219,1.0209,1.0291,1.0528,2.1687,2.1678,2.1531,2.1476,2.1502,2.133,2.0808,2.0118,1.9668,1.9448,1.9329,1.9292,1.9292,1.9292,1.9292,1.9292,1.9292,1.9292,1.9292,1.9292,1.9292,1.9292,1.9292,1.9292,1.9292,1.9292,1.9292,1.9292,1.9292,1.9292,1.9292,1.9292,1.9292,1.9292,1.9283,1.9201,1.9081,1.866,1.843,1.8045,1.7568,1.7257,1.7128,1.7138,1.7183,1.7303,1.7587,1.7706,1.7697,1.7669,1.7568,1.7477,1.7312,1.7358,1.7523,1.7908,1.833,1.8797,1.9155,1.9265,1.9265,1.9283,1.9292,1.9292,1.9292,1.9292,1.9292,1.9292,1.9292,1.9292,1.9253,1.9292,1.9045,1.8399,1.8238,1.7876,1.7432,1.7188,1.6821,1.6214,1.5718,1.5235,1.479,1.4622,1.4622,1.426,1.3935,1.3883,1.3809,1.3611,1.3454,1.3335,1.3214,1.3159,1.3007,1.2867,1.2852,1.2845,1.2811,1.2788,1.2825,1.287,1.2843,1.2787,1.2529,1.2284,1.1986,1.1738,1.1438,1.1301,1.1195,1.1195,1.1369,1.1351,1.1327,2.1687,2.1632,2.1257,2.1172,2.1089,2.0753,2.0136,1.9402,1.9683,1.965,1.9311,1.9292,1.9292,1.9292,1.9292,1.9292,1.9292,1.9292,1.9292,1.9292,1.9292,1.9292,1.9292,1.9292,1.9292,1.9292,1.9292,1.9292,1.9292,1.9292,1.9292,1.9292,1.9292,1.9292,1.9292,1.9274,1.9173,1.8916,1.8696,1.833,1.7862,1.7669,1.755,1.7504,1.7486,1.7697,1.7917,1.8009,1.8045,1.7972,1.7779,1.7853,1.7944,1.8063,1.8329,1.8621,1.8999,1.9191,1.9274,1.9292,1.9292,1.9292,1.9292,1.9292,1.9292,1.9292,1.9292,1.9292,1.9292,1.9292,1.9292,1.9292,1.9253,1.9085,1.9085,1.8687,1.8207,1.7836,1.7513,1.7066,1.6657,1.6165,1.5643,1.5401,1.5311,1.5081,1.483,1.458,1.4441,1.401,1.3906,1.3864,1.3726,1.3659,1.3481,1.3195,1.3085,1.3057,1.3176,1.3144,1.3218,1.3239,1.3174,1.3075,1.3012,1.2733,1.2298,1.1962,1.1688,1.1585,1.1594,1.1552,1.157,1.1549,1.1555,2.1687,2.1678,2.1568,2.1513,2.1403,2.0763,2.0177,1.9738,1.9595,1.9384,1.9292,1.9292,1.9292,1.9292,1.9292,1.9292,1.9292,1.9292,1.9292,1.9292,1.9292,1.9292,1.9292,1.9292,1.9292,1.9292,1.9292,1.9292,1.9292,1.9292,1.9292,1.9292,1.9292,1.9292,1.9292,1.9292,1.9146,1.8999,1.8834,1.855,1.8237,1.8018,1.7944,1.7908,1.7715,1.7972,1.8339,1.8054,1.81,1.8394,1.8128,1.8073,1.8073,1.81,1.8264,1.8687,1.9026,1.9292,1.9292,1.9292,1.9292,1.9292,1.9292,1.9292,1.9292,1.9292,1.9292,1.9292,1.9292,1.9292,1.9292,1.9292,1.9292,1.9292,1.9292,1.9094,1.8687,1.8567,1.8238,1.7836,1.7432,1.6984,1.646,1.6329,1.6206,1.6049,1.5809,1.5477,1.5068,1.4622,1.4166,1.4124,1.4039,1.3864,1.3694,1.3419,1.3371,1.3315,1.3403,1.3481,1.351,1.3499,1.3432,1.3279,1.3085,1.2776,1.2402,1.2119,1.1844,1.182,1.1823,1.1769,1.1733,1.1742,1.1814,2.1687,2.1668,2.1548,2.1284,2.0934,2.0328,1.9888,1.961,1.9402,1.9292,1.9292,1.9292,1.9292,1.9292,1.9292,1.9292,1.9292,1.9292,1.9292,1.9292,1.9292,1.9292,1.9292,1.9292,1.9292,1.9292,1.9292,1.9292,1.9292,1.9292,1.9292,1.9292,1.9292,1.9292,1.9292,1.9283,1.9191,1.9072,1.8916,1.8696,1.8513,1.8366,1.8319,1.8264,1.8045,1.8375,1.8779,1.8293,1.8513,1.876,1.8476,1.8229,1.8284,1.8347,1.8512,1.8916,1.9136,1.9283,1.9292,1.9292,1.9292,1.9292,1.9292,1.9292,1.9292,1.9292,1.9292,1.9292,1.9292,1.9292,1.9292,1.9292,1.9292,1.9292,1.9292,1.9292,1.9253,1.9253,1.8935,1.8567,1.8126,1.7715,1.7432,1.7302,1.7017,1.6576,1.637,1.6206,1.576,1.5269,1.458,1.4173,1.4082,1.4033,1.3856,1.3761,1.3688,1.3643,1.3707,1.3756,1.3766,1.373,1.3669,1.3406,1.306,1.2824,1.2619,1.2282,1.2089,1.2077,1.2077,1.2053,1.2035,1.2053,1.2143,2.1687,2.1659,2.1273,2.0741,1.9948,1.9613,1.9393,1.9292,1.9301,1.9292,1.9292,1.9292,1.9292,1.9292,1.9292,1.9292,1.9292,1.9292,1.9292,1.9292,1.9292,1.9292,1.9292,1.9292,1.9292,1.9292,1.9292,1.9292,1.9292,1.9292,1.9292,1.9292,1.9292,1.9292,1.9292,1.9292,1.9246,1.921,1.9164,1.9054,1.8852,1.876,1.876,1.8742,1.8724,1.8843,1.9127,1.921,1.9237,1.9008,1.8751,1.843,1.8632,1.877,1.899,1.9109,1.9256,1.9283,1.9292,1.9292,1.9292,1.9292,1.9292,1.9292,1.9292,1.9292,1.9292,1.9292,1.9292,1.9292,1.9292,1.9292,1.9292,1.9292,1.9292,1.9292,1.9292,1.9292,1.9173,1.8895,1.8807,1.8407,1.8247,1.8078,1.8037,1.735,1.7147,1.7188,1.6698,1.6124,1.5519,1.4783,1.4824,1.4817,1.4433,1.4308,1.4084,1.4019,1.4041,1.3915,1.3857,1.3906,1.3955,1.3613,1.3237,1.3142,1.2959,1.2654,1.2419,1.2343,1.2343,1.2343,1.2337,1.233,1.2367,2.1687,2.165,2.1282,2.0814,2.0347,1.9912,1.9577,1.9301,1.9292,1.9292,1.9292,1.9292,1.9292,1.9292,1.9292,1.9292,1.9292,1.9292,1.9292,1.9292,1.9292,1.9292,1.9292,1.9292,1.9292,1.9292,1.9292,1.9292,1.9292,1.9292,1.9292,1.9292,1.9292,1.9292,1.9292,1.9292,1.9292,1.9292,1.9274,1.9256,1.9136,1.9136,1.9155,1.9054,1.9008,1.8971,1.9036,1.8779,1.8953,1.9017,1.8797,1.8834,1.9118,1.9136,1.9201,1.9283,1.9292,1.9292,1.9292,1.9292,1.9292,1.9292,1.9292,1.9292,1.9292,1.9292,1.9292,1.9292,1.9292,1.9292,1.9292,1.9292,1.9292,1.9292,1.9292,1.9292,1.9292,1.9292,1.9292,1.9292,1.9292,1.9173,1.8975,1.8895,1.8856,1.8776,1.8736,1.8567,1.7957,1.7383,1.7025,1.6419,1.6131,1.5966,1.5394,1.5026,1.4901,1.4573,1.4475,1.4279,1.4082,1.3955,1.3913,1.3737,1.3476,1.3355,1.3228,1.3063,1.2856,1.2686,1.259,1.2602,1.2542,1.2548,1.2578,2.1687,2.1614,2.1089,2.0622,2.0177,1.9783,1.9512,1.932,1.9292,1.9292,1.9292,1.9292,1.9292,1.9292,1.9292,1.9292,1.9292,1.9292,1.9292,1.9292,1.9292,1.9292,1.9292,1.9292,1.9292,1.9292,1.9292,1.9292,1.9292,1.9292,1.9292,1.9292,1.9292,1.9292,1.9292,1.9292,1.9292,1.9292,1.9292,1.9292,1.9292,1.9292,1.9292,1.9191,1.9164,1.9127,1.9072,1.8852,1.8999,1.9173,1.9054,1.8898,1.9072,1.9155,1.9256,1.9292,1.9292,1.9292,1.9292,1.9292,1.9292,1.9292,1.9292,1.9292,1.9292,1.9292,1.9292,1.9292,1.9292,1.9292,1.9292,1.9292,1.9292,1.9292,1.9292,1.9292,1.9292,1.9292,1.9292,1.9292,1.9292,1.9253,1.9134,1.9134,1.9094,1.9094,1.9262,1.9262,1.8767,1.8399,1.8078,1.7796,1.7391,1.6862,1.6206,1.5966,1.5842,1.5477,1.5026,1.5026,1.4901,1.4286,1.387,1.3906,1.3822,1.3568,1.344,1.3313,1.3143,1.2953,1.2881,1.2851,1.279,1.2747,1.2687,2.165,2.1504,2.0842,2.025,1.9857,1.9485,1.9301,1.9292,1.9292,1.9292,1.9292,1.9292,1.9292,1.9292,1.9292,1.9292,1.9292,1.9292,1.9292,1.9292,1.9292,1.9292,1.9292,1.9292,1.9292,1.9292,1.9292,1.9292,1.9292,1.9292,1.9292,1.9292,1.9292,1.9292,1.9292,1.9292,1.9292,1.9292,1.9292,1.9292,1.9292,1.9292,1.9292,1.9292,1.9292,1.9292,1.9292,1.9292,1.9292,1.9283,1.9256,1.9136,1.9063,1.9182,1.9246,1.9292,1.9292,1.9292,1.9292,1.9292,1.9292,1.9292,1.9292,1.9292,1.9292,1.9292,1.9292,1.9292,1.9292,1.9292,1.9292,1.9292,1.9292,1.9292,1.9292,1.9292,1.9292,1.9292,1.9292,1.9292,1.9292,1.9292,1.9292,1.9292,1.9292,1.9292,1.9292,1.9292,1.9213,1.9006,1.8727,1.8487,1.8167,1.7594,1.6976,1.6862,1.678,1.6288,1.5925,1.5925,1.5801,1.5311,1.4817,1.437,1.4195,1.4068,1.373,1.3519,1.3349,1.3264,1.3052,1.2966,1.2924,1.2833,1.2747,2.1495,2.119,2.0714,2.0241,1.9888,1.9476,1.9292,1.9292,1.9292,1.9292,1.9292,1.9292,1.9292,1.9292,1.9292,1.9292,1.9292,1.9292,1.9292,1.9292,1.9292,1.9292,1.9292,1.9292,1.9292,1.9292,1.9292,1.9292,1.9292,1.9292,1.9292,1.9292,1.9292,1.9292,1.9292,1.9292,1.9292,1.9292,1.9292,1.9292,1.9292,1.9292,1.9292,1.9292,1.9292,1.9292,1.9292,1.9292,1.9292,1.9292,1.9292,1.9228,1.921,1.921,1.9274,1.9292,1.9292,1.9292,1.9292,1.9292,1.9292,1.9292,1.9292,1.9292,1.9292,1.9292,1.9292,1.9292,1.9292,1.9292,1.9292,1.9292,1.9292,1.9292,1.9292,1.9292,1.9292,1.9292,1.9292,1.9292,1.9292,1.9292,1.9292,1.9292,1.9292,1.9292,1.9292,1.9292,1.9292,1.9292,1.9292,1.9054,1.8767,1.8447,1.7917,1.7755,1.7634,1.7147,1.6739,1.6657,1.6576,1.6494,1.6049,1.5352,1.4985,1.4852,1.444,1.4146,1.3766,1.3639,1.3264,1.3058,1.3052,1.3009,1.2966]}]]